<?xml version='1.0' encoding='UTF-8'?><gpx version="1.1" creator="JPX - https://github.com/jenetics/jpx" xmlns="http://www.topografix.com/GPX/1/1"><trk><trkseg><trkpt lat="43.61663377539178" lon="7.0547855770233925"><ele>177.0</ele><time>2026-04-29T16:21:34.995Z</time></trkpt><trkpt lat="43.616721445009475" lon="7.054827612005345"><ele>177.0</ele><time>2026-04-29T16:21:37.996Z</time></trkpt><trkpt lat="43.61683511966084" lon="7.054839090997414"><ele>177.0</ele><time>2026-04-29T16:21:39.997Z</time></trkpt><trkpt lat="43.61691346737689" lon="7.054843897221732"><ele>177.0</ele><time>2026-04-29T16:21:40.997Z</time></trkpt><trkpt lat="43.61699429529494" lon="7.054855766610436"><ele>177.0</ele><time>2026-04-29T16:21:41.997Z</time></trkpt><trkpt lat="43.61708290389893" lon="7.054881392162825"><ele>176.5</ele><time>2026-04-29T16:21:42.997Z</time></trkpt><trkpt lat="43.617174404227875" lon="7.054929803940555"><ele>176.0</ele><time>2026-04-29T16:21:43.997Z</time></trkpt><trkpt lat="43.61724721811827" lon="7.054977368088168"><ele>175.5</ele><time>2026-04-29T16:21:44.998Z</time></trkpt><trkpt lat="43.617304982506255" lon="7.055022823399115"><ele>175.0</ele><time>2026-04-29T16:21:45.998Z</time></trkpt><trkpt lat="43.617415024441726" lon="7.055095850588174"><ele>174.5</ele><time>2026-04-29T16:21:47.998Z</time></trkpt><trkpt lat="43.617476736136226" lon="7.05512127023503"><ele>174.0</ele><time>2026-04-29T16:21:48.998Z</time></trkpt><trkpt lat="43.61760736683068" lon="7.055129046951283"><ele>173.66666666666666</ele><time>2026-04-29T16:21:50.998Z</time></trkpt><trkpt lat="43.617680004108365" lon="7.055114359778668"><ele>173.33333333333334</ele><time>2026-04-29T16:21:51.998Z</time></trkpt><trkpt lat="43.61776037318949" lon="7.055066895128605"><ele>173.0</ele><time>2026-04-29T16:21:52.998Z</time></trkpt><trkpt lat="43.61783900852978" lon="7.054977519927801"><ele>172.66666666666669</ele><time>2026-04-29T16:21:53.999Z</time></trkpt><trkpt lat="43.61789276407337" lon="7.0548734153225405"><ele>172.33333333333334</ele><time>2026-04-29T16:21:54.999Z</time></trkpt><trkpt lat="43.61792484206704" lon="7.054761986614255"><ele>172.0</ele><time>2026-04-29T16:21:55.999Z</time></trkpt><trkpt lat="43.61793840556073" lon="7.0546513652072695"><ele>171.00000000000003</ele><time>2026-04-29T16:21:56.999Z</time></trkpt><trkpt lat="43.61794818556814" lon="7.054550723311985"><ele>170.0</ele><time>2026-04-29T16:21:57.999Z</time></trkpt><trkpt lat="43.61795910076628" lon="7.0544528462322535"><ele>169.0</ele><time>2026-04-29T16:21:58.999Z</time></trkpt><trkpt lat="43.61796918006894" lon="7.054352298931099"><ele>168.0</ele><time>2026-04-29T16:21:59.999Z</time></trkpt><trkpt lat="43.617977301133806" lon="7.054253028680751"><ele>167.0</ele><time>2026-04-29T16:22:00.999Z</time></trkpt><trkpt lat="43.61798998963448" lon="7.054155581814747"><ele>166.00000000000003</ele><time>2026-04-29T16:22:01.999Z</time></trkpt><trkpt lat="43.617999940576276" lon="7.054068535226082"><ele>165.0</ele><time>2026-04-29T16:22:02.999Z</time></trkpt><trkpt lat="43.6180269872883" lon="7.053931370324424"><ele>165.0</ele><time>2026-04-29T16:22:04.999Z</time></trkpt><trkpt lat="43.61805632268015" lon="7.053845218500221"><ele>165.0</ele><time>2026-04-29T16:22:06.999Z</time></trkpt><trkpt lat="43.61816877758134" lon="7.053836620072841"><ele>165.0</ele><time>2026-04-29T16:22:12.999Z</time></trkpt><trkpt lat="43.618235607653" lon="7.053893315233361"><ele>165.0</ele><time>2026-04-29T16:22:24Z</time></trkpt><trkpt lat="43.61829132247564" lon="7.0539344511024415"><ele>165.0</ele><time>2026-04-29T16:22:25Z</time></trkpt><trkpt lat="43.61832370554385" lon="7.054071192058196"><ele>165.0</ele><time>2026-04-29T16:22:26Z</time></trkpt><trkpt lat="43.6183580664885" lon="7.054182282809887"><ele>165.0</ele><time>2026-04-29T16:22:27Z</time></trkpt><trkpt lat="43.61839177105537" lon="7.054302482224189"><ele>165.0</ele><time>2026-04-29T16:22:28Z</time></trkpt><trkpt lat="43.61842048040678" lon="7.054445242715882"><ele>165.0</ele><time>2026-04-29T16:22:29Z</time></trkpt><trkpt lat="43.6184427608508" lon="7.054593723800774"><ele>165.0</ele><time>2026-04-29T16:22:30Z</time></trkpt><trkpt lat="43.61844816664602" lon="7.0547473367594025"><ele>165.0</ele><time>2026-04-29T16:22:31Z</time></trkpt><trkpt lat="43.61844761144931" lon="7.054897382958938"><ele>165.0</ele><time>2026-04-29T16:22:32Z</time></trkpt><trkpt lat="43.61844154167824" lon="7.0550456004598745"><ele>165.0</ele><time>2026-04-29T16:22:33Z</time></trkpt><trkpt lat="43.61842287897674" lon="7.055193419094446"><ele>165.0</ele><time>2026-04-29T16:22:34Z</time></trkpt><trkpt lat="43.61839771335821" lon="7.055331339667381"><ele>165.0</ele><time>2026-04-29T16:22:35Z</time></trkpt><trkpt lat="43.61835821978579" lon="7.055467024074528"><ele>165.0</ele><time>2026-04-29T16:22:36Z</time></trkpt><trkpt lat="43.61831573459034" lon="7.0555967510411195"><ele>165.0</ele><time>2026-04-29T16:22:37Z</time></trkpt><trkpt lat="43.618277257740736" lon="7.0557275904165175"><ele>165.0</ele><time>2026-04-29T16:22:38Z</time></trkpt><trkpt lat="43.61823506236203" lon="7.055863098484756"><ele>165.0</ele><time>2026-04-29T16:22:39Z</time></trkpt><trkpt lat="43.618193583928935" lon="7.05599498937656"><ele>165.0</ele><time>2026-04-29T16:22:40Z</time></trkpt><trkpt lat="43.618157261007795" lon="7.05612603264919"><ele>165.0</ele><time>2026-04-29T16:22:41Z</time></trkpt><trkpt lat="43.61812166589722" lon="7.05625665012902"><ele>163.4</ele><time>2026-04-29T16:22:42Z</time></trkpt><trkpt lat="43.618094338930035" lon="7.056389664099847"><ele>161.8</ele><time>2026-04-29T16:22:43Z</time></trkpt><trkpt lat="43.618073601974" lon="7.056528843730436"><ele>160.2</ele><time>2026-04-29T16:22:44Z</time></trkpt><trkpt lat="43.61805663196394" lon="7.0566710527384995"><ele>158.6</ele><time>2026-04-29T16:22:45Z</time></trkpt><trkpt lat="43.61803978557298" lon="7.056823452106044"><ele>157.0</ele><time>2026-04-29T16:22:46Z</time></trkpt><trkpt lat="43.61802336636548" lon="7.056973991555625"><ele>155.0</ele><time>2026-04-29T16:22:47Z</time></trkpt><trkpt lat="43.618008552605815" lon="7.057121176005457"><ele>153.0</ele><time>2026-04-29T16:22:48Z</time></trkpt><trkpt lat="43.617968256455626" lon="7.057264764584509"><ele>151.0</ele><time>2026-04-29T16:22:49Z</time></trkpt><trkpt lat="43.617933432293555" lon="7.057413471197098"><ele>149.0</ele><time>2026-04-29T16:22:50Z</time></trkpt><trkpt lat="43.617906058190854" lon="7.057574528735904"><ele>149.25</ele><time>2026-04-29T16:22:51Z</time></trkpt><trkpt lat="43.61785083221177" lon="7.057731706578173"><ele>149.5</ele><time>2026-04-29T16:22:52Z</time></trkpt><trkpt lat="43.61779142873697" lon="7.057885090938324"><ele>149.75</ele><time>2026-04-29T16:22:53Z</time></trkpt><trkpt lat="43.61772905640153" lon="7.0580325651227795"><ele>150.0</ele><time>2026-04-29T16:22:54Z</time></trkpt><trkpt lat="43.617672730619" lon="7.058179686454841"><ele>147.0</ele><time>2026-04-29T16:22:55Z</time></trkpt><trkpt lat="43.6176221097457" lon="7.058326454480409"><ele>144.0</ele><time>2026-04-29T16:22:56Z</time></trkpt><trkpt lat="43.61757165671767" lon="7.058476849195054"><ele>141.0</ele><time>2026-04-29T16:22:57Z</time></trkpt><trkpt lat="43.61751802050612" lon="7.058624369432467"><ele>138.0</ele><time>2026-04-29T16:22:58Z</time></trkpt><trkpt lat="43.617480002867765" lon="7.058768921225736"><ele>138.0</ele><time>2026-04-29T16:22:58.999Z</time></trkpt><trkpt lat="43.61744687470844" lon="7.058886897946807"><ele>138.0</ele><time>2026-04-29T16:22:59.999Z</time></trkpt><trkpt lat="43.61741685832188" lon="7.058993491765191"><ele>138.0</ele><time>2026-04-29T16:23:00.999Z</time></trkpt><trkpt lat="43.617396002277985" lon="7.059075609815315"><ele>138.0</ele><time>2026-04-29T16:23:01.999Z</time></trkpt><trkpt lat="43.61735717071374" lon="7.059213827015491"><ele>138.0</ele><time>2026-04-29T16:23:03.999Z</time></trkpt><trkpt lat="43.617323337965594" lon="7.059327119129977"><ele>138.0</ele><time>2026-04-29T16:23:05.999Z</time></trkpt><trkpt lat="43.61727101491903" lon="7.059446124247516"><ele>137.57142857142858</ele><time>2026-04-29T16:23:07.999Z</time></trkpt><trkpt lat="43.617217751483466" lon="7.059498449104834"><ele>137.14285714285717</ele><time>2026-04-29T16:23:08.999Z</time></trkpt><trkpt lat="43.61716398038646" lon="7.059556264088877"><ele>136.71428571428572</ele><time>2026-04-29T16:23:09.999Z</time></trkpt><trkpt lat="43.61713267633951" lon="7.059635000231192"><ele>136.28571428571428</ele><time>2026-04-29T16:23:10.999Z</time></trkpt><trkpt lat="43.617134599055696" lon="7.059732110328787"><ele>135.85714285714283</ele><time>2026-04-29T16:23:11.999Z</time></trkpt><trkpt lat="43.6171570994144" lon="7.059838158060889"><ele>135.42857142857142</ele><time>2026-04-29T16:23:12.999Z</time></trkpt><trkpt lat="43.61721432109995" lon="7.05990999090772"><ele>135.0</ele><time>2026-04-29T16:23:13.999Z</time></trkpt><trkpt lat="43.61717415048323" lon="7.060051914508729"><ele>134.4</ele><time>2026-04-29T16:23:14.999Z</time></trkpt><trkpt lat="43.617139066743185" lon="7.060168989084103"><ele>133.8</ele><time>2026-04-29T16:23:15.999Z</time></trkpt><trkpt lat="43.61713373526943" lon="7.0603029174759255"><ele>133.2</ele><time>2026-04-29T16:23:16.999Z</time></trkpt><trkpt lat="43.6171051936075" lon="7.060439791555464"><ele>132.6</ele><time>2026-04-29T16:23:17.999Z</time></trkpt><trkpt lat="43.617082165656406" lon="7.060585647195802"><ele>132.0</ele><time>2026-04-29T16:23:18.999Z</time></trkpt><trkpt lat="43.617060450775966" lon="7.060726723727428"><ele>130.6</ele><time>2026-04-29T16:23:19.999Z</time></trkpt><trkpt lat="43.61704096626349" lon="7.060859939454336"><ele>129.2</ele><time>2026-04-29T16:23:20.999Z</time></trkpt><trkpt lat="43.61701831464366" lon="7.060995364127189"><ele>127.8</ele><time>2026-04-29T16:23:21.999Z</time></trkpt><trkpt lat="43.61699569491043" lon="7.06113479511627"><ele>126.4</ele><time>2026-04-29T16:23:22.999Z</time></trkpt><trkpt lat="43.61697257326747" lon="7.06127555493643"><ele>125.0</ele><time>2026-04-29T16:23:23.999Z</time></trkpt><trkpt lat="43.616947829588014" lon="7.061425651267328"><ele>124.75</ele><time>2026-04-29T16:23:24.999Z</time></trkpt><trkpt lat="43.61692153807908" lon="7.0615772537206745"><ele>124.5</ele><time>2026-04-29T16:23:25.999Z</time></trkpt><trkpt lat="43.616899035175145" lon="7.061737201089421"><ele>124.25</ele><time>2026-04-29T16:23:26.999Z</time></trkpt><trkpt lat="43.616873225293766" lon="7.061898120458634"><ele>124.0</ele><time>2026-04-29T16:23:27.999Z</time></trkpt><trkpt lat="43.61684628828688" lon="7.062058470806159"><ele>125.0</ele><time>2026-04-29T16:23:28.999Z</time></trkpt><trkpt lat="43.61682066419461" lon="7.062219044588363"><ele>126.0</ele><time>2026-04-29T16:23:29.999Z</time></trkpt><trkpt lat="43.61679461530139" lon="7.062385036361149"><ele>127.0</ele><time>2026-04-29T16:23:31Z</time></trkpt><trkpt lat="43.616772919537325" lon="7.062549234658936"><ele>128.0</ele><time>2026-04-29T16:23:32Z</time></trkpt><trkpt lat="43.61674697571802" lon="7.062704231900163"><ele>128.5</ele><time>2026-04-29T16:23:33Z</time></trkpt><trkpt lat="43.61672453887349" lon="7.062861862903595"><ele>129.0</ele><time>2026-04-29T16:23:34Z</time></trkpt><trkpt lat="43.61670106736459" lon="7.063017769650372"><ele>129.5</ele><time>2026-04-29T16:23:34.999Z</time></trkpt><trkpt lat="43.61667638775003" lon="7.063171693003865"><ele>130.0</ele><time>2026-04-29T16:23:35.999Z</time></trkpt><trkpt lat="43.61665088593871" lon="7.0633243049141825"><ele>130.0</ele><time>2026-04-29T16:23:36.999Z</time></trkpt><trkpt lat="43.616627594207365" lon="7.06347699115641"><ele>130.0</ele><time>2026-04-29T16:23:37.999Z</time></trkpt><trkpt lat="43.61660067801772" lon="7.06362594570576"><ele>130.0</ele><time>2026-04-29T16:23:38.999Z</time></trkpt><trkpt lat="43.61657523539049" lon="7.063783103522679"><ele>130.0</ele><time>2026-04-29T16:23:39.999Z</time></trkpt><trkpt lat="43.61655122168258" lon="7.063941991155495"><ele>130.0</ele><time>2026-04-29T16:23:41Z</time></trkpt><trkpt lat="43.616524151366384" lon="7.064102663648503"><ele>130.0</ele><time>2026-04-29T16:23:42Z</time></trkpt><trkpt lat="43.61650211955444" lon="7.064264019006432"><ele>130.0</ele><time>2026-04-29T16:23:43Z</time></trkpt><trkpt lat="43.616479646490525" lon="7.064417147436246"><ele>130.0</ele><time>2026-04-29T16:23:44Z</time></trkpt><trkpt lat="43.61645459123427" lon="7.064572405640001"><ele>130.6</ele><time>2026-04-29T16:23:45Z</time></trkpt><trkpt lat="43.61643106281796" lon="7.064723232985195"><ele>131.2</ele><time>2026-04-29T16:23:46Z</time></trkpt><trkpt lat="43.61640238133584" lon="7.064880963059804"><ele>131.8</ele><time>2026-04-29T16:23:47Z</time></trkpt><trkpt lat="43.61637471121811" lon="7.06503542236622"><ele>132.4</ele><time>2026-04-29T16:23:48Z</time></trkpt><trkpt lat="43.61635146065618" lon="7.06517444860844"><ele>133.0</ele><time>2026-04-29T16:23:49Z</time></trkpt><trkpt lat="43.616325699595926" lon="7.065312063261989"><ele>133.83333333333334</ele><time>2026-04-29T16:23:50Z</time></trkpt><trkpt lat="43.6163033807294" lon="7.0654346302802224"><ele>134.66666666666669</ele><time>2026-04-29T16:23:51Z</time></trkpt><trkpt lat="43.616279097674926" lon="7.065547375853607"><ele>135.5</ele><time>2026-04-29T16:23:52Z</time></trkpt><trkpt lat="43.6162494417396" lon="7.065641781782798"><ele>136.33333333333334</ele><time>2026-04-29T16:23:53Z</time></trkpt><trkpt lat="43.61620624654402" lon="7.065723080705522"><ele>137.16666666666666</ele><time>2026-04-29T16:23:54Z</time></trkpt><trkpt lat="43.61614097539157" lon="7.065797604220882"><ele>138.0</ele><time>2026-04-29T16:23:55Z</time></trkpt><trkpt lat="43.616114480773604" lon="7.065909350001123"><ele>137.8</ele><time>2026-04-29T16:23:56Z</time></trkpt><trkpt lat="43.61614450454653" lon="7.066046708799555"><ele>137.60000000000002</ele><time>2026-04-29T16:23:57Z</time></trkpt><trkpt lat="43.6161996102432" lon="7.066156608172379"><ele>137.39999999999998</ele><time>2026-04-29T16:23:58Z</time></trkpt><trkpt lat="43.616217845956754" lon="7.066269019851491"><ele>137.2</ele><time>2026-04-29T16:23:59Z</time></trkpt><trkpt lat="43.616221692932854" lon="7.066393214228026"><ele>137.0</ele><time>2026-04-29T16:24:00Z</time></trkpt><trkpt lat="43.61621620559824" lon="7.066521784940073"><ele>136.0</ele><time>2026-04-29T16:24:01Z</time></trkpt><trkpt lat="43.616207668300206" lon="7.066657777371532"><ele>135.0</ele><time>2026-04-29T16:24:02Z</time></trkpt><trkpt lat="43.61620597442593" lon="7.0667948965784175"><ele>134.0</ele><time>2026-04-29T16:24:03Z</time></trkpt><trkpt lat="43.61620547506525" lon="7.066933798622577"><ele>133.0</ele><time>2026-04-29T16:24:04Z</time></trkpt><trkpt lat="43.61620731351302" lon="7.0670739498226975"><ele>132.0</ele><time>2026-04-29T16:24:05Z</time></trkpt><trkpt lat="43.616216181955096" lon="7.067213387398049"><ele>132.0</ele><time>2026-04-29T16:24:06Z</time></trkpt><trkpt lat="43.616228956965664" lon="7.067355422571096"><ele>132.0</ele><time>2026-04-29T16:24:07Z</time></trkpt><trkpt lat="43.616247600714395" lon="7.06749820016665"><ele>132.0</ele><time>2026-04-29T16:24:08Z</time></trkpt><trkpt lat="43.61627085842925" lon="7.067627197604485"><ele>132.0</ele><time>2026-04-29T16:24:09Z</time></trkpt><trkpt lat="43.616298932209055" lon="7.067761965799416"><ele>132.0</ele><time>2026-04-29T16:24:10Z</time></trkpt><trkpt lat="43.61632894533205" lon="7.067900069310138"><ele>131.0</ele><time>2026-04-29T16:24:11Z</time></trkpt><trkpt lat="43.61636595295434" lon="7.068039217480932"><ele>130.0</ele><time>2026-04-29T16:24:11.999Z</time></trkpt><trkpt lat="43.61640584122525" lon="7.068174732122324"><ele>129.0</ele><time>2026-04-29T16:24:12.999Z</time></trkpt><trkpt lat="43.61645152473389" lon="7.068310003935773"><ele>128.0</ele><time>2026-04-29T16:24:13.999Z</time></trkpt><trkpt lat="43.616503176696234" lon="7.068444136007175"><ele>127.0</ele><time>2026-04-29T16:24:14.999Z</time></trkpt><trkpt lat="43.61656206574167" lon="7.068577771423528"><ele>126.75</ele><time>2026-04-29T16:24:15.999Z</time></trkpt><trkpt lat="43.616624710764995" lon="7.068705690192079"><ele>126.5</ele><time>2026-04-29T16:24:16.999Z</time></trkpt><trkpt lat="43.61669028188077" lon="7.068833023051351"><ele>126.25</ele><time>2026-04-29T16:24:17.999Z</time></trkpt><trkpt lat="43.616754344407525" lon="7.068965180009065"><ele>126.0</ele><time>2026-04-29T16:24:18.999Z</time></trkpt><trkpt lat="43.61681513361685" lon="7.069093126812194"><ele>127.0</ele><time>2026-04-29T16:24:19.999Z</time></trkpt><trkpt lat="43.616875605131" lon="7.069223717025342"><ele>128.0</ele><time>2026-04-29T16:24:20.999Z</time></trkpt><trkpt lat="43.61693409041456" lon="7.069355895253643"><ele>129.0</ele><time>2026-04-29T16:24:21.999Z</time></trkpt><trkpt lat="43.616990614535936" lon="7.069494066607083"><ele>130.0</ele><time>2026-04-29T16:24:22.999Z</time></trkpt><trkpt lat="43.61704394976803" lon="7.069633732138109"><ele>129.0</ele><time>2026-04-29T16:24:23.999Z</time></trkpt><trkpt lat="43.61709527009393" lon="7.06977627686884"><ele>128.0</ele><time>2026-04-29T16:24:24.999Z</time></trkpt><trkpt lat="43.61714246854871" lon="7.069914339285063"><ele>127.0</ele><time>2026-04-29T16:24:25.999Z</time></trkpt><trkpt lat="43.617184839208306" lon="7.0700398299466976"><ele>126.0</ele><time>2026-04-29T16:24:26.999Z</time></trkpt><trkpt lat="43.61722162849261" lon="7.070165753470351"><ele>125.0</ele><time>2026-04-29T16:24:27.999Z</time></trkpt><trkpt lat="43.61725451400274" lon="7.070285446845275"><ele>125.0</ele><time>2026-04-29T16:24:28.999Z</time></trkpt><trkpt lat="43.61727378586575" lon="7.070401906162074"><ele>125.0</ele><time>2026-04-29T16:24:29.999Z</time></trkpt><trkpt lat="43.617281456579036" lon="7.070525055002405"><ele>125.0</ele><time>2026-04-29T16:24:30.999Z</time></trkpt><trkpt lat="43.617278692289545" lon="7.070663941205585"><ele>125.0</ele><time>2026-04-29T16:24:31.999Z</time></trkpt><trkpt lat="43.61729334714591" lon="7.0707819182383265"><ele>125.0</ele><time>2026-04-29T16:24:32.999Z</time></trkpt><trkpt lat="43.6173367221603" lon="7.0708849783726455"><ele>125.4</ele><time>2026-04-29T16:24:33.999Z</time></trkpt><trkpt lat="43.617397676772484" lon="7.0709768203080134"><ele>125.8</ele><time>2026-04-29T16:24:34.999Z</time></trkpt><trkpt lat="43.61744853163858" lon="7.071081345363411"><ele>126.19999999999999</ele><time>2026-04-29T16:24:35.999Z</time></trkpt><trkpt lat="43.617504820777334" lon="7.071183498558206"><ele>126.6</ele><time>2026-04-29T16:24:36.999Z</time></trkpt><trkpt lat="43.61752363772228" lon="7.07133186040119"><ele>127.0</ele><time>2026-04-29T16:24:37.999Z</time></trkpt><trkpt lat="43.61752387327649" lon="7.071495591556"><ele>126.5</ele><time>2026-04-29T16:24:38.999Z</time></trkpt><trkpt lat="43.61751897726522" lon="7.071659651757923"><ele>126.0</ele><time>2026-04-29T16:24:39.999Z</time></trkpt><trkpt lat="43.617508093143975" lon="7.071835746025547"><ele>125.5</ele><time>2026-04-29T16:24:40.999Z</time></trkpt><trkpt lat="43.61748352903047" lon="7.072014955948559"><ele>125.0</ele><time>2026-04-29T16:24:41.999Z</time></trkpt><trkpt lat="43.61744482443485" lon="7.0721762846586875"><ele>125.0</ele><time>2026-04-29T16:24:42.999Z</time></trkpt><trkpt lat="43.617395619814886" lon="7.072326577901041"><ele>125.0</ele><time>2026-04-29T16:24:43.999Z</time></trkpt><trkpt lat="43.617341396656045" lon="7.0724734856467695"><ele>125.0</ele><time>2026-04-29T16:24:44.999Z</time></trkpt><trkpt lat="43.61728038776898" lon="7.072626110990061"><ele>125.0</ele><time>2026-04-29T16:24:45.999Z</time></trkpt><trkpt lat="43.61722948825651" lon="7.072777219448501"><ele>124.0</ele><time>2026-04-29T16:24:46.999Z</time></trkpt><trkpt lat="43.61718908754076" lon="7.072924842638073"><ele>123.0</ele><time>2026-04-29T16:24:47.999Z</time></trkpt><trkpt lat="43.61715771964208" lon="7.073068114001366"><ele>122.0</ele><time>2026-04-29T16:24:48.999Z</time></trkpt><trkpt lat="43.617138967897596" lon="7.073200013352053"><ele>121.0</ele><time>2026-04-29T16:24:49.999Z</time></trkpt><trkpt lat="43.61712492100283" lon="7.073322653868703"><ele>120.0</ele><time>2026-04-29T16:24:50.999Z</time></trkpt><trkpt lat="43.61709967032529" lon="7.0734141234086465"><ele>120.16666666666667</ele><time>2026-04-29T16:24:51.999Z</time></trkpt><trkpt lat="43.617070014808775" lon="7.073525054744275"><ele>120.33333333333334</ele><time>2026-04-29T16:24:53.999Z</time></trkpt><trkpt lat="43.61698344132174" lon="7.073584115100059"><ele>120.5</ele><time>2026-04-29T16:24:56.999Z</time></trkpt><trkpt lat="43.61691564135416" lon="7.073624150818905"><ele>120.66666666666667</ele><time>2026-04-29T16:24:57.999Z</time></trkpt><trkpt lat="43.61684490128214" lon="7.073672819080529"><ele>120.83333333333334</ele><time>2026-04-29T16:24:58.999Z</time></trkpt><trkpt lat="43.61678428794559" lon="7.073742852616732"><ele>121.0</ele><time>2026-04-29T16:24:59.999Z</time></trkpt><trkpt lat="43.61673240827733" lon="7.073842880382729"><ele>121.00000000000001</ele><time>2026-04-29T16:25:00.999Z</time></trkpt><trkpt lat="43.61669712008207" lon="7.0739612172836885"><ele>121.0</ele><time>2026-04-29T16:25:01.999Z</time></trkpt><trkpt lat="43.616673373834374" lon="7.074073591450022"><ele>121.0</ele><time>2026-04-29T16:25:02.999Z</time></trkpt><trkpt lat="43.61665848149212" lon="7.074198493688597"><ele>121.0</ele><time>2026-04-29T16:25:03.999Z</time></trkpt><trkpt lat="43.61665644453558" lon="7.074326788625412"><ele>121.00000000000001</ele><time>2026-04-29T16:25:04.999Z</time></trkpt><trkpt lat="43.61666930220635" lon="7.0744333166890465"><ele>121.0</ele><time>2026-04-29T16:25:05.999Z</time></trkpt><trkpt lat="43.616700874705515" lon="7.074563628983884"><ele>119.8</ele><time>2026-04-29T16:25:07.999Z</time></trkpt><trkpt lat="43.61675540241004" lon="7.074728904569889"><ele>118.6</ele><time>2026-04-29T16:25:09.999Z</time></trkpt><trkpt lat="43.61674438752329" lon="7.07484700513213"><ele>117.4</ele><time>2026-04-29T16:25:10.999Z</time></trkpt><trkpt lat="43.616685594901114" lon="7.0749728747327865"><ele>116.2</ele><time>2026-04-29T16:25:11.999Z</time></trkpt><trkpt lat="43.61661288469849" lon="7.075106841322986"><ele>115.0</ele><time>2026-04-29T16:25:12.999Z</time></trkpt><trkpt lat="43.616506891138506" lon="7.075270913186289"><ele>115.0</ele><time>2026-04-29T16:25:13.999Z</time></trkpt><trkpt lat="43.616421220848785" lon="7.075430333433133"><ele>115.0</ele><time>2026-04-29T16:25:14.999Z</time></trkpt><trkpt lat="43.61634304034016" lon="7.075597018112711"><ele>115.0</ele><time>2026-04-29T16:25:15.999Z</time></trkpt><trkpt lat="43.61627846059131" lon="7.075804823253742"><ele>114.33333333333334</ele><time>2026-04-29T16:25:16.999Z</time></trkpt><trkpt lat="43.61622864020636" lon="7.076043148298176"><ele>113.66666666666666</ele><time>2026-04-29T16:25:17.999Z</time></trkpt><trkpt lat="43.616185566909955" lon="7.076287645348502"><ele>113.0</ele><time>2026-04-29T16:25:18.999Z</time></trkpt><trkpt lat="43.61614920410537" lon="7.0765118622297285"><ele>113.0</ele><time>2026-04-29T16:25:19.999Z</time></trkpt><trkpt lat="43.616110420888866" lon="7.076731896906187"><ele>113.0</ele><time>2026-04-29T16:25:20.999Z</time></trkpt><trkpt lat="43.616074331349196" lon="7.076941172263596"><ele>113.0</ele><time>2026-04-29T16:25:21.999Z</time></trkpt><trkpt lat="43.61603068193292" lon="7.0771396517167515"><ele>113.0</ele><time>2026-04-29T16:25:22.999Z</time></trkpt><trkpt lat="43.61597392439675" lon="7.07733182973427"><ele>113.0</ele><time>2026-04-29T16:25:23.999Z</time></trkpt><trkpt lat="43.615895474300224" lon="7.077524848110684"><ele>113.0</ele><time>2026-04-29T16:25:24.999Z</time></trkpt><trkpt lat="43.61579985845235" lon="7.07771337631237"><ele>114.66666666666666</ele><time>2026-04-29T16:25:25.999Z</time></trkpt><trkpt lat="43.61569148151648" lon="7.07788963910778"><ele>116.33333333333334</ele><time>2026-04-29T16:25:26.999Z</time></trkpt><trkpt lat="43.615593611858046" lon="7.078049488757238"><ele>118.0</ele><time>2026-04-29T16:25:27.999Z</time></trkpt><trkpt lat="43.61550559224737" lon="7.078209073688885"><ele>117.75</ele><time>2026-04-29T16:25:28.999Z</time></trkpt><trkpt lat="43.61543035238216" lon="7.07835976022013"><ele>117.5</ele><time>2026-04-29T16:25:29.999Z</time></trkpt><trkpt lat="43.615360833283766" lon="7.078513140406154"><ele>117.25</ele><time>2026-04-29T16:25:30.999Z</time></trkpt><trkpt lat="43.61529599374891" lon="7.07867795984718"><ele>117.0</ele><time>2026-04-29T16:25:31.999Z</time></trkpt><trkpt lat="43.61524617010431" lon="7.078848951477483"><ele>117.0</ele><time>2026-04-29T16:25:32.999Z</time></trkpt><trkpt lat="43.61521278198208" lon="7.079015716449046"><ele>117.0</ele><time>2026-04-29T16:25:33.999Z</time></trkpt><trkpt lat="43.61519754097038" lon="7.0791848426112685"><ele>117.0</ele><time>2026-04-29T16:25:34.999Z</time></trkpt><trkpt lat="43.61518219799185" lon="7.079350542935476"><ele>117.0</ele><time>2026-04-29T16:25:35.999Z</time></trkpt><trkpt lat="43.61515780006241" lon="7.079503057207599"><ele>117.0</ele><time>2026-04-29T16:25:37Z</time></trkpt><trkpt lat="43.61514313677472" lon="7.079650298205537"><ele>117.0</ele><time>2026-04-29T16:25:38Z</time></trkpt><trkpt lat="43.6151355700937" lon="7.079782359912211"><ele>117.0</ele><time>2026-04-29T16:25:39Z</time></trkpt><trkpt lat="43.615134703819" lon="7.079899594899376"><ele>117.0</ele><time>2026-04-29T16:25:40Z</time></trkpt><trkpt lat="43.6151287413129" lon="7.080006894343633"><ele>117.0</ele><time>2026-04-29T16:25:41Z</time></trkpt><trkpt lat="43.61512916610414" lon="7.080098341883894"><ele>117.0</ele><time>2026-04-29T16:25:42Z</time></trkpt><trkpt lat="43.61511095253266" lon="7.080189316174784"><ele>117.0</ele><time>2026-04-29T16:25:43Z</time></trkpt><trkpt lat="43.61511811848462" lon="7.08032722635393"><ele>117.0</ele><time>2026-04-29T16:25:45Z</time></trkpt><trkpt lat="43.61509367175808" lon="7.0804620675754295"><ele>117.0</ele><time>2026-04-29T16:25:47Z</time></trkpt><trkpt lat="43.61506420175986" lon="7.080540593968318"><ele>117.0</ele><time>2026-04-29T16:25:48Z</time></trkpt><trkpt lat="43.615044533901845" lon="7.080636971085481"><ele>117.0</ele><time>2026-04-29T16:25:49Z</time></trkpt><trkpt lat="43.61503667622981" lon="7.080738618764968"><ele>117.0</ele><time>2026-04-29T16:25:50Z</time></trkpt><trkpt lat="43.61510397634185" lon="7.080838770118705"><ele>116.39999999999999</ele><time>2026-04-29T16:25:51Z</time></trkpt><trkpt lat="43.61517970088003" lon="7.0809241963753795"><ele>115.79999999999998</ele><time>2026-04-29T16:25:52Z</time></trkpt><trkpt lat="43.6152628602886" lon="7.08100326172934"><ele>115.2</ele><time>2026-04-29T16:25:53Z</time></trkpt><trkpt lat="43.615329645283964" lon="7.081106571836677"><ele>114.6</ele><time>2026-04-29T16:25:54Z</time></trkpt><trkpt lat="43.61537826108548" lon="7.081238557907361"><ele>114.0</ele><time>2026-04-29T16:25:55Z</time></trkpt><trkpt lat="43.615431752739745" lon="7.081394494942992"><ele>114.25</ele><time>2026-04-29T16:25:56Z</time></trkpt><trkpt lat="43.6154887191577" lon="7.081552329531941"><ele>114.5</ele><time>2026-04-29T16:25:57Z</time></trkpt><trkpt lat="43.61555328621419" lon="7.081721552387365"><ele>114.75</ele><time>2026-04-29T16:25:58Z</time></trkpt><trkpt lat="43.615615520505514" lon="7.081892808390341"><ele>115.0</ele><time>2026-04-29T16:25:59Z</time></trkpt><trkpt lat="43.61567325406885" lon="7.082060994869443"><ele>115.0</ele><time>2026-04-29T16:26:00Z</time></trkpt><trkpt lat="43.61572854486896" lon="7.082230102766722"><ele>115.0</ele><time>2026-04-29T16:26:01Z</time></trkpt><trkpt lat="43.61578099454463" lon="7.082395184902897"><ele>115.0</ele><time>2026-04-29T16:26:02Z</time></trkpt><trkpt lat="43.6158317190323" lon="7.082554988958395"><ele>115.0</ele><time>2026-04-29T16:26:03Z</time></trkpt><trkpt lat="43.61587514214535" lon="7.0827132767805825"><ele>113.5</ele><time>2026-04-29T16:26:04Z</time></trkpt><trkpt lat="43.615905588602274" lon="7.082873881489404"><ele>112.0</ele><time>2026-04-29T16:26:05Z</time></trkpt><trkpt lat="43.615915731160335" lon="7.083043003994376"><ele>110.5</ele><time>2026-04-29T16:26:06Z</time></trkpt><trkpt lat="43.61589788840157" lon="7.083217761239421"><ele>109.0</ele><time>2026-04-29T16:26:07Z</time></trkpt><trkpt lat="43.61586538562465" lon="7.083391172562214"><ele>108.5</ele><time>2026-04-29T16:26:08Z</time></trkpt><trkpt lat="43.615815833582516" lon="7.083558806927894"><ele>108.0</ele><time>2026-04-29T16:26:09Z</time></trkpt><trkpt lat="43.615745310080335" lon="7.083715847706382"><ele>107.5</ele><time>2026-04-29T16:26:10Z</time></trkpt><trkpt lat="43.615664153607504" lon="7.083871090821851"><ele>107.0</ele><time>2026-04-29T16:26:11Z</time></trkpt><trkpt lat="43.615567422531896" lon="7.084015789212196"><ele>107.75</ele><time>2026-04-29T16:26:12Z</time></trkpt><trkpt lat="43.61545722403932" lon="7.084143260354032"><ele>108.5</ele><time>2026-04-29T16:26:13Z</time></trkpt><trkpt lat="43.6153551121604" lon="7.084276770011864"><ele>109.25</ele><time>2026-04-29T16:26:14Z</time></trkpt><trkpt lat="43.61527294216795" lon="7.084418188947422"><ele>110.0</ele><time>2026-04-29T16:26:15Z</time></trkpt><trkpt lat="43.61522127508944" lon="7.084586286996747"><ele>110.5</ele><time>2026-04-29T16:26:16Z</time></trkpt><trkpt lat="43.6152045362817" lon="7.084787261740207"><ele>111.0</ele><time>2026-04-29T16:26:17Z</time></trkpt><trkpt lat="43.61519684538011" lon="7.084987373458831"><ele>111.5</ele><time>2026-04-29T16:26:18Z</time></trkpt><trkpt lat="43.615182200941994" lon="7.085189344819653"><ele>112.0</ele><time>2026-04-29T16:26:19Z</time></trkpt><trkpt lat="43.615160285918144" lon="7.085385233872696"><ele>112.0</ele><time>2026-04-29T16:26:20Z</time></trkpt><trkpt lat="43.61513051952721" lon="7.085572647832449"><ele>112.0</ele><time>2026-04-29T16:26:21Z</time></trkpt><trkpt lat="43.61509603719057" lon="7.085750715990094"><ele>112.0</ele><time>2026-04-29T16:26:22Z</time></trkpt><trkpt lat="43.61506020324516" lon="7.085928326914585"><ele>112.0</ele><time>2026-04-29T16:26:23Z</time></trkpt><trkpt lat="43.61501786233254" lon="7.086101372460627"><ele>113.5</ele><time>2026-04-29T16:26:24Z</time></trkpt><trkpt lat="43.61496388019592" lon="7.086262558659282"><ele>115.0</ele><time>2026-04-29T16:26:25Z</time></trkpt><trkpt lat="43.61489352472194" lon="7.086418863438988"><ele>116.5</ele><time>2026-04-29T16:26:26Z</time></trkpt><trkpt lat="43.614809707066385" lon="7.086561279210852"><ele>118.0</ele><time>2026-04-29T16:26:27Z</time></trkpt><trkpt lat="43.614716373798565" lon="7.086690888351733"><ele>118.5</ele><time>2026-04-29T16:26:28Z</time></trkpt><trkpt lat="43.61461383195894" lon="7.086797493671659"><ele>119.0</ele><time>2026-04-29T16:26:29Z</time></trkpt><trkpt lat="43.61451772075236" lon="7.086899985821303"><ele>119.5</ele><time>2026-04-29T16:26:30Z</time></trkpt><trkpt lat="43.61443489186745" lon="7.08702670205757"><ele>120.0</ele><time>2026-04-29T16:26:31Z</time></trkpt><trkpt lat="43.61435922332696" lon="7.08717967218278"><ele>120.0</ele><time>2026-04-29T16:26:32Z</time></trkpt><trkpt lat="43.61430354265971" lon="7.087359652058479"><ele>120.0</ele><time>2026-04-29T16:26:33Z</time></trkpt><trkpt lat="43.61425470617885" lon="7.087545957597279"><ele>120.0</ele><time>2026-04-29T16:26:34Z</time></trkpt><trkpt lat="43.61421069521023" lon="7.087723154664177"><ele>120.0</ele><time>2026-04-29T16:26:35Z</time></trkpt><trkpt lat="43.61416763522173" lon="7.0878963839584"><ele>118.5</ele><time>2026-04-29T16:26:36Z</time></trkpt><trkpt lat="43.614124329170544" lon="7.0880655353876385"><ele>117.0</ele><time>2026-04-29T16:26:37Z</time></trkpt><trkpt lat="43.61408136915917" lon="7.0882259830200285"><ele>115.5</ele><time>2026-04-29T16:26:38Z</time></trkpt><trkpt lat="43.61403904930338" lon="7.08837811993602"><ele>114.0</ele><time>2026-04-29T16:26:39Z</time></trkpt><trkpt lat="43.61398592454443" lon="7.088516424305833"><ele>112.0</ele><time>2026-04-29T16:26:40Z</time></trkpt><trkpt lat="43.61391031489825" lon="7.088624365386789"><ele>110.0</ele><time>2026-04-29T16:26:41Z</time></trkpt><trkpt lat="43.61387398880256" lon="7.088762626993517"><ele>108.0</ele><time>2026-04-29T16:26:42Z</time></trkpt><trkpt lat="43.61391024975781" lon="7.088938892489372"><ele>106.0</ele><time>2026-04-29T16:26:43Z</time></trkpt><trkpt lat="43.613940215345536" lon="7.089119890183685"><ele>105.66666666666667</ele><time>2026-04-29T16:26:44Z</time></trkpt><trkpt lat="43.61396998652646" lon="7.0893098256002105"><ele>105.33333333333334</ele><time>2026-04-29T16:26:45Z</time></trkpt><trkpt lat="43.614001564306804" lon="7.089515046162747"><ele>105.0</ele><time>2026-04-29T16:26:46Z</time></trkpt><trkpt lat="43.61403305145798" lon="7.089729727699806"><ele>106.0</ele><time>2026-04-29T16:26:47Z</time></trkpt><trkpt lat="43.61406621418294" lon="7.089939765740294"><ele>107.0</ele><time>2026-04-29T16:26:48Z</time></trkpt><trkpt lat="43.614103372329666" lon="7.090137356747736"><ele>108.0</ele><time>2026-04-29T16:26:49Z</time></trkpt><trkpt lat="43.614145624288604" lon="7.090319469782125"><ele>109.0</ele><time>2026-04-29T16:26:50Z</time></trkpt><trkpt lat="43.61419353084478" lon="7.090497166069766"><ele>109.0</ele><time>2026-04-29T16:26:51Z</time></trkpt><trkpt lat="43.61424373980719" lon="7.090666889773953"><ele>109.0</ele><time>2026-04-29T16:26:52Z</time></trkpt><trkpt lat="43.61429886979064" lon="7.090838766974074"><ele>109.0</ele><time>2026-04-29T16:26:53Z</time></trkpt><trkpt lat="43.61436319123257" lon="7.091020012384801"><ele>109.0</ele><time>2026-04-29T16:26:54Z</time></trkpt><trkpt lat="43.6144359965489" lon="7.091207043735886"><ele>107.0</ele><time>2026-04-29T16:26:55Z</time></trkpt><trkpt lat="43.61451366778765" lon="7.091391250710753"><ele>105.0</ele><time>2026-04-29T16:26:56Z</time></trkpt><trkpt lat="43.61458962694854" lon="7.091564030944135"><ele>103.0</ele><time>2026-04-29T16:26:57Z</time></trkpt><trkpt lat="43.6146690559369" lon="7.091732135931094"><ele>101.0</ele><time>2026-04-29T16:26:58Z</time></trkpt><trkpt lat="43.614742455000304" lon="7.091895285296808"><ele>101.0</ele><time>2026-04-29T16:26:59Z</time></trkpt><trkpt lat="43.61481506534452" lon="7.092045481999758"><ele>101.0</ele><time>2026-04-29T16:27:00Z</time></trkpt><trkpt lat="43.61488697253281" lon="7.092178513211884"><ele>101.0</ele><time>2026-04-29T16:27:01Z</time></trkpt><trkpt lat="43.61497535628248" lon="7.0922904666969995"><ele>101.0</ele><time>2026-04-29T16:27:02Z</time></trkpt><trkpt lat="43.61508564013867" lon="7.092357653529848"><ele>101.0</ele><time>2026-04-29T16:27:03Z</time></trkpt><trkpt lat="43.61520475489984" lon="7.092388590773523"><ele>101.0</ele><time>2026-04-29T16:27:04Z</time></trkpt><trkpt lat="43.615331275621934" lon="7.092387366329791"><ele>101.0</ele><time>2026-04-29T16:27:05Z</time></trkpt><trkpt lat="43.615444768705615" lon="7.092324101250678"><ele>101.0</ele><time>2026-04-29T16:27:06Z</time></trkpt><trkpt lat="43.61555749036847" lon="7.092268870597489"><ele>98.0</ele><time>2026-04-29T16:27:07Z</time></trkpt><trkpt lat="43.61566272248197" lon="7.092195254367763"><ele>95.0</ele><time>2026-04-29T16:27:08Z</time></trkpt><trkpt lat="43.61577074724041" lon="7.092149082597058"><ele>92.0</ele><time>2026-04-29T16:27:09Z</time></trkpt><trkpt lat="43.61587893743145" lon="7.092117460759244"><ele>89.0</ele><time>2026-04-29T16:27:10Z</time></trkpt><trkpt lat="43.61598818258456" lon="7.092113581931114"><ele>89.0</ele><time>2026-04-29T16:27:11Z</time></trkpt><trkpt lat="43.61609496790827" lon="7.092137291900074"><ele>89.0</ele><time>2026-04-29T16:27:12Z</time></trkpt><trkpt lat="43.61619734833386" lon="7.092208859282164"><ele>89.0</ele><time>2026-04-29T16:27:13Z</time></trkpt><trkpt lat="43.61628887929936" lon="7.092308225813727"><ele>89.0</ele><time>2026-04-29T16:27:14Z</time></trkpt><trkpt lat="43.616378362813926" lon="7.092424221846215"><ele>86.75</ele><time>2026-04-29T16:27:15Z</time></trkpt><trkpt lat="43.616455195487106" lon="7.092567843446571"><ele>84.5</ele><time>2026-04-29T16:27:16Z</time></trkpt><trkpt lat="43.616526928459855" lon="7.092733225377881"><ele>82.25</ele><time>2026-04-29T16:27:17Z</time></trkpt><trkpt lat="43.61660183187412" lon="7.092893982730475"><ele>80.0</ele><time>2026-04-29T16:27:18Z</time></trkpt><trkpt lat="43.61668679101621" lon="7.093033308215214"><ele>80.0</ele><time>2026-04-29T16:27:19Z</time></trkpt><trkpt lat="43.616777797766225" lon="7.093153611812647"><ele>80.0</ele><time>2026-04-29T16:27:20Z</time></trkpt><trkpt lat="43.61687286498833" lon="7.093255929004543"><ele>80.0</ele><time>2026-04-29T16:27:21Z</time></trkpt><trkpt lat="43.61696761952246" lon="7.093365685528812"><ele>80.0</ele><time>2026-04-29T16:27:22Z</time></trkpt><trkpt lat="43.61706168423457" lon="7.0934762844033745"><ele>77.5</ele><time>2026-04-29T16:27:23Z</time></trkpt><trkpt lat="43.61714850602896" lon="7.093591768976304"><ele>75.0</ele><time>2026-04-29T16:27:24Z</time></trkpt><trkpt lat="43.61722836875744" lon="7.09372270587133"><ele>72.5</ele><time>2026-04-29T16:27:25Z</time></trkpt><trkpt lat="43.61729169224114" lon="7.093882087103835"><ele>70.0</ele><time>2026-04-29T16:27:26Z</time></trkpt><trkpt lat="43.61734050216035" lon="7.094043889571056"><ele>70.75</ele><time>2026-04-29T16:27:27Z</time></trkpt><trkpt lat="43.617381082212695" lon="7.094198604516545"><ele>71.5</ele><time>2026-04-29T16:27:28Z</time></trkpt><trkpt lat="43.617423817707426" lon="7.094346907315452"><ele>72.25</ele><time>2026-04-29T16:27:29Z</time></trkpt><trkpt lat="43.617468362820134" lon="7.09449104080776"><ele>73.0</ele><time>2026-04-29T16:27:30Z</time></trkpt><trkpt lat="43.61751110030234" lon="7.094627834301604"><ele>73.0</ele><time>2026-04-29T16:27:31Z</time></trkpt><trkpt lat="43.61754636617877" lon="7.0947652257559"><ele>73.0</ele><time>2026-04-29T16:27:32Z</time></trkpt><trkpt lat="43.61756066539794" lon="7.094907298619661"><ele>73.0</ele><time>2026-04-29T16:27:33Z</time></trkpt><trkpt lat="43.61755327385368" lon="7.095053003435402"><ele>73.0</ele><time>2026-04-29T16:27:34Z</time></trkpt><trkpt lat="43.61751351586368" lon="7.095195656157498"><ele>73.0</ele><time>2026-04-29T16:27:35Z</time></trkpt><trkpt lat="43.61744323306557" lon="7.09532047779996"><ele>73.0</ele><time>2026-04-29T16:27:36Z</time></trkpt><trkpt lat="43.617348042679446" lon="7.095422586034528"><ele>73.0</ele><time>2026-04-29T16:27:36.999Z</time></trkpt><trkpt lat="43.617233542976386" lon="7.095499657828593"><ele>73.0</ele><time>2026-04-29T16:27:37.999Z</time></trkpt><trkpt lat="43.617121614350054" lon="7.095573943208686"><ele>73.0</ele><time>2026-04-29T16:27:38.999Z</time></trkpt><trkpt lat="43.61701901146112" lon="7.095649543438818"><ele>73.2</ele><time>2026-04-29T16:27:39.999Z</time></trkpt><trkpt lat="43.61692371783865" lon="7.095726973672003"><ele>73.4</ele><time>2026-04-29T16:27:40.999Z</time></trkpt><trkpt lat="43.61685172487842" lon="7.095827467541375"><ele>73.60000000000001</ele><time>2026-04-29T16:27:41.999Z</time></trkpt><trkpt lat="43.61680886023968" lon="7.095960323734659"><ele>73.8</ele><time>2026-04-29T16:27:43Z</time></trkpt><trkpt lat="43.616808636796776" lon="7.096110181885015"><ele>74.0</ele><time>2026-04-29T16:27:44Z</time></trkpt><trkpt lat="43.61684370364218" lon="7.0962498837457515"><ele>74.0</ele><time>2026-04-29T16:27:45Z</time></trkpt><trkpt lat="43.61693061540589" lon="7.096349252145217"><ele>74.0</ele><time>2026-04-29T16:27:46Z</time></trkpt><trkpt lat="43.617026774504374" lon="7.0964265171645575"><ele>74.0</ele><time>2026-04-29T16:27:47Z</time></trkpt><trkpt lat="43.61712782387984" lon="7.096462631288517"><ele>74.0</ele><time>2026-04-29T16:27:48Z</time></trkpt><trkpt lat="43.61724920363125" lon="7.096437658362644"><ele>71.75</ele><time>2026-04-29T16:27:49Z</time></trkpt><trkpt lat="43.61737204055637" lon="7.096406660031978"><ele>69.5</ele><time>2026-04-29T16:27:50Z</time></trkpt><trkpt lat="43.61749362745008" lon="7.096388042400052"><ele>67.25</ele><time>2026-04-29T16:27:51Z</time></trkpt><trkpt lat="43.617612333608015" lon="7.096366596050715"><ele>65.0</ele><time>2026-04-29T16:27:52Z</time></trkpt><trkpt lat="43.61772787832972" lon="7.096350415508205"><ele>62.0</ele><time>2026-04-29T16:27:53Z</time></trkpt><trkpt lat="43.617844241529504" lon="7.0963498854978475"><ele>59.0</ele><time>2026-04-29T16:27:54Z</time></trkpt><trkpt lat="43.617962658402135" lon="7.096376786089707"><ele>56.0</ele><time>2026-04-29T16:27:55Z</time></trkpt><trkpt lat="43.61808079257455" lon="7.0964301617525125"><ele>53.0</ele><time>2026-04-29T16:27:56Z</time></trkpt><trkpt lat="43.61818548844923" lon="7.096502145184384"><ele>52.2</ele><time>2026-04-29T16:27:57Z</time></trkpt><trkpt lat="43.61828277530295" lon="7.096589659679131"><ele>51.4</ele><time>2026-04-29T16:27:58Z</time></trkpt><trkpt lat="43.61837567884713" lon="7.096666642545714"><ele>50.6</ele><time>2026-04-29T16:27:59Z</time></trkpt><trkpt lat="43.61847436082132" lon="7.096725319449419"><ele>49.800000000000004</ele><time>2026-04-29T16:28:00Z</time></trkpt><trkpt lat="43.61857920505563" lon="7.096758694974221"><ele>49.0</ele><time>2026-04-29T16:28:01Z</time></trkpt><trkpt lat="43.61868744793361" lon="7.096757733873464"><ele>49.0</ele><time>2026-04-29T16:28:02Z</time></trkpt><trkpt lat="43.61879616604153" lon="7.096682305045305"><ele>49.0</ele><time>2026-04-29T16:28:03Z</time></trkpt><trkpt lat="43.6188859889138" lon="7.096574135869934"><ele>49.0</ele><time>2026-04-29T16:28:04Z</time></trkpt><trkpt lat="43.61899190607758" lon="7.096473202706296"><ele>49.0</ele><time>2026-04-29T16:28:05Z</time></trkpt><trkpt lat="43.61910140870742" lon="7.096399031418557"><ele>49.0</ele><time>2026-04-29T16:28:06Z</time></trkpt><trkpt lat="43.61921941255643" lon="7.096362195574156"><ele>49.0</ele><time>2026-04-29T16:28:07Z</time></trkpt><trkpt lat="43.619332763374075" lon="7.096338988445776"><ele>49.0</ele><time>2026-04-29T16:28:08Z</time></trkpt><trkpt lat="43.61944662835534" lon="7.0963605116597765"><ele>49.0</ele><time>2026-04-29T16:28:09Z</time></trkpt><trkpt lat="43.619553900937845" lon="7.0964215733059515"><ele>49.75</ele><time>2026-04-29T16:28:10Z</time></trkpt><trkpt lat="43.61964978089191" lon="7.096525275492762"><ele>50.5</ele><time>2026-04-29T16:28:11Z</time></trkpt><trkpt lat="43.61971024975813" lon="7.096679783771645"><ele>51.25</ele><time>2026-04-29T16:28:12Z</time></trkpt><trkpt lat="43.61973978369183" lon="7.0968472790984105"><ele>52.0</ele><time>2026-04-29T16:28:13Z</time></trkpt><trkpt lat="43.619772673879524" lon="7.097031164699439"><ele>49.666666666666664</ele><time>2026-04-29T16:28:14Z</time></trkpt><trkpt lat="43.619808597389984" lon="7.097225074920595"><ele>47.33333333333333</ele><time>2026-04-29T16:28:15Z</time></trkpt><trkpt lat="43.619836695639734" lon="7.097438981086647"><ele>45.0</ele><time>2026-04-29T16:28:16Z</time></trkpt><trkpt lat="43.61986940780415" lon="7.097653243436195"><ele>43.5</ele><time>2026-04-29T16:28:17Z</time></trkpt><trkpt lat="43.619910996433994" lon="7.097847079706767"><ele>42.0</ele><time>2026-04-29T16:28:18Z</time></trkpt><trkpt lat="43.61996680426802" lon="7.098025905138308"><ele>40.5</ele><time>2026-04-29T16:28:19Z</time></trkpt><trkpt lat="43.62003947025869" lon="7.098178487945627"><ele>39.0</ele><time>2026-04-29T16:28:20Z</time></trkpt><trkpt lat="43.62012554067248" lon="7.098316651055761"><ele>40.0</ele><time>2026-04-29T16:28:21Z</time></trkpt><trkpt lat="43.62022897616321" lon="7.09842816137334"><ele>41.0</ele><time>2026-04-29T16:28:22Z</time></trkpt><trkpt lat="43.62034450250864" lon="7.09853513003863"><ele>42.0</ele><time>2026-04-29T16:28:23Z</time></trkpt><trkpt lat="43.62045447466561" lon="7.0986412615400445"><ele>43.0</ele><time>2026-04-29T16:28:24Z</time></trkpt><trkpt lat="43.62056290155294" lon="7.098741359753868"><ele>43.0</ele><time>2026-04-29T16:28:25Z</time></trkpt><trkpt lat="43.62066416569077" lon="7.098838983642177"><ele>43.0</ele><time>2026-04-29T16:28:26Z</time></trkpt><trkpt lat="43.62076177839435" lon="7.09893280233046"><ele>43.0</ele><time>2026-04-29T16:28:27Z</time></trkpt><trkpt lat="43.62085363256367" lon="7.099019372368686"><ele>43.0</ele><time>2026-04-29T16:28:28Z</time></trkpt><trkpt lat="43.6209439839062" lon="7.099097280697505"><ele>40.199999999999996</ele><time>2026-04-29T16:28:29Z</time></trkpt><trkpt lat="43.62103809473065" lon="7.099173787057358"><ele>37.4</ele><time>2026-04-29T16:28:30Z</time></trkpt><trkpt lat="43.62113412899433" lon="7.0992403237892745"><ele>34.599999999999994</ele><time>2026-04-29T16:28:31Z</time></trkpt><trkpt lat="43.62123260166725" lon="7.099298831342627"><ele>31.799999999999997</ele><time>2026-04-29T16:28:32Z</time></trkpt><trkpt lat="43.62132852176085" lon="7.099357682973809"><ele>29.0</ele><time>2026-04-29T16:28:33Z</time></trkpt><trkpt lat="43.621422020629744" lon="7.099419622080682"><ele>29.0</ele><time>2026-04-29T16:28:34Z</time></trkpt><trkpt lat="43.6215002863371" lon="7.099472628862968"><ele>29.0</ele><time>2026-04-29T16:28:35Z</time></trkpt><trkpt lat="43.62156744063752" lon="7.099523786949483"><ele>29.0</ele><time>2026-04-29T16:28:36Z</time></trkpt><trkpt lat="43.62162753880788" lon="7.099568516136251"><ele>29.0</ele><time>2026-04-29T16:28:37Z</time></trkpt><trkpt lat="43.621719657514554" lon="7.099668010282444"><ele>29.0</ele><time>2026-04-29T16:28:39Z</time></trkpt><trkpt lat="43.62180271383872" lon="7.099765209075087"><ele>29.0</ele><time>2026-04-29T16:28:41Z</time></trkpt><trkpt lat="43.621875392651525" lon="7.0998814863933415"><ele>29.0</ele><time>2026-04-29T16:28:43Z</time></trkpt><trkpt lat="43.62191480653063" lon="7.099951891347541"><ele>29.0</ele><time>2026-04-29T16:28:44Z</time></trkpt><trkpt lat="43.62200963848401" lon="7.100054705309912"><ele>29.0</ele><time>2026-04-29T16:28:46Z</time></trkpt><trkpt lat="43.622084952718374" lon="7.100084055833034"><ele>29.0</ele><time>2026-04-29T16:28:48Z</time></trkpt><trkpt lat="43.622145465038834" lon="7.099861259918703"><ele>27.4</ele><time>2026-04-29T16:28:49Z</time></trkpt><trkpt lat="43.62219515825641" lon="7.09978727738619"><ele>25.799999999999997</ele><time>2026-04-29T16:28:50Z</time></trkpt><trkpt lat="43.622264194509825" lon="7.099712405638168"><ele>24.200000000000003</ele><time>2026-04-29T16:28:51Z</time></trkpt><trkpt lat="43.62233986338185" lon="7.099626813010131"><ele>22.6</ele><time>2026-04-29T16:28:52Z</time></trkpt><trkpt lat="43.62241546299839" lon="7.099546267560887"><ele>21.0</ele><time>2026-04-29T16:28:53Z</time></trkpt><trkpt lat="43.622492218447874" lon="7.099467010424978"><ele>21.0</ele><time>2026-04-29T16:28:54Z</time></trkpt><trkpt lat="43.622567266211675" lon="7.099381870443974"><ele>21.0</ele><time>2026-04-29T16:28:55Z</time></trkpt><trkpt lat="43.62264073494607" lon="7.099300215173742"><ele>21.0</ele><time>2026-04-29T16:28:56Z</time></trkpt><trkpt lat="43.62271570381817" lon="7.099230180268607"><ele>21.0</ele><time>2026-04-29T16:28:57Z</time></trkpt><trkpt lat="43.62279496705325" lon="7.099178262361045"><ele>21.0</ele><time>2026-04-29T16:28:58Z</time></trkpt><trkpt lat="43.62287555242855" lon="7.099144744980341"><ele>20.428571428571427</ele><time>2026-04-29T16:28:59Z</time></trkpt><trkpt lat="43.622952304592594" lon="7.099121186538928"><ele>19.857142857142858</ele><time>2026-04-29T16:29:00Z</time></trkpt><trkpt lat="43.62303479527136" lon="7.099110757817091"><ele>19.285714285714285</ele><time>2026-04-29T16:29:01Z</time></trkpt><trkpt lat="43.623110901914444" lon="7.099111549991427"><ele>18.714285714285715</ele><time>2026-04-29T16:29:02Z</time></trkpt><trkpt lat="43.62318341156682" lon="7.09910584804193"><ele>18.142857142857142</ele><time>2026-04-29T16:29:03Z</time></trkpt><trkpt lat="43.623251712385496" lon="7.099094975378249"><ele>17.57142857142857</ele><time>2026-04-29T16:29:04Z</time></trkpt><trkpt lat="43.62331357734579" lon="7.099069474653285"><ele>17.0</ele><time>2026-04-29T16:29:05Z</time></trkpt><trkpt lat="43.62336616574103" lon="7.099006306719316"><ele>17.0</ele><time>2026-04-29T16:29:06Z</time></trkpt><trkpt lat="43.62340382061444" lon="7.098918982805474"><ele>17.0</ele><time>2026-04-29T16:29:07Z</time></trkpt><trkpt lat="43.62343700364653" lon="7.098818867981057"><ele>17.0</ele><time>2026-04-29T16:29:08Z</time></trkpt><trkpt lat="43.623471197804925" lon="7.098708215324037"><ele>17.0</ele><time>2026-04-29T16:29:09Z</time></trkpt><trkpt lat="43.62350965657755" lon="7.0985974192777315"><ele>17.0</ele><time>2026-04-29T16:29:10Z</time></trkpt><trkpt lat="43.62355416056032" lon="7.098491871139458"><ele>17.0</ele><time>2026-04-29T16:29:11Z</time></trkpt><trkpt lat="43.62359806700152" lon="7.098395468231387"><ele>17.0</ele><time>2026-04-29T16:29:12Z</time></trkpt><trkpt lat="43.62364223888779" lon="7.098313214733628"><ele>17.0</ele><time>2026-04-29T16:29:13Z</time></trkpt><trkpt lat="43.623680020869465" lon="7.098242371701259"><ele>17.0</ele><time>2026-04-29T16:29:14Z</time></trkpt><trkpt lat="43.623745356442065" lon="7.098118846308296"><ele>17.0</ele><time>2026-04-29T16:29:16Z</time></trkpt><trkpt lat="43.62381754173968" lon="7.097972327900273"><ele>17.0</ele><time>2026-04-29T16:29:18Z</time></trkpt><trkpt lat="43.62386055774935" lon="7.097887626197543"><ele>17.0</ele><time>2026-04-29T16:29:19Z</time></trkpt><trkpt lat="43.623904979216455" lon="7.097798587283882"><ele>17.0</ele><time>2026-04-29T16:29:20Z</time></trkpt><trkpt lat="43.6239573542241" lon="7.097702363950064"><ele>17.0</ele><time>2026-04-29T16:29:21Z</time></trkpt><trkpt lat="43.62400904786753" lon="7.097605388444274"><ele>17.0</ele><time>2026-04-29T16:29:22Z</time></trkpt><trkpt lat="43.62405835840812" lon="7.097509388408705"><ele>17.0</ele><time>2026-04-29T16:29:23Z</time></trkpt><trkpt lat="43.62410849244828" lon="7.0974148626364135"><ele>17.0</ele><time>2026-04-29T16:29:24Z</time></trkpt><trkpt lat="43.624162544989005" lon="7.097328346488335"><ele>17.0</ele><time>2026-04-29T16:29:25Z</time></trkpt><trkpt lat="43.62422172645135" lon="7.097264688193219"><ele>17.0</ele><time>2026-04-29T16:29:26Z</time></trkpt><trkpt lat="43.62428851563807" lon="7.097209965359666"><ele>17.0</ele><time>2026-04-29T16:29:27Z</time></trkpt><trkpt lat="43.624368923106466" lon="7.097177949155188"><ele>17.0</ele><time>2026-04-29T16:29:28Z</time></trkpt><trkpt lat="43.624445875063095" lon="7.097155377425796"><ele>17.0</ele><time>2026-04-29T16:29:29Z</time></trkpt><trkpt lat="43.62452538169178" lon="7.097138377332038"><ele>17.0</ele><time>2026-04-29T16:29:30Z</time></trkpt><trkpt lat="43.62463380049563" lon="7.09711186404156"><ele>17.666666666666668</ele><time>2026-04-29T16:29:32Z</time></trkpt><trkpt lat="43.62474201579563" lon="7.097091111132248"><ele>18.333333333333336</ele><time>2026-04-29T16:29:34Z</time></trkpt><trkpt lat="43.62480657334031" lon="7.097068112601336"><ele>19.0</ele><time>2026-04-29T16:29:35Z</time></trkpt><trkpt lat="43.62487431164243" lon="7.097039197497131"><ele>19.666666666666668</ele><time>2026-04-29T16:29:36Z</time></trkpt><trkpt lat="43.62495116156349" lon="7.097006449505285"><ele>20.333333333333332</ele><time>2026-04-29T16:29:37Z</time></trkpt><trkpt lat="43.625040318934204" lon="7.096967804213138"><ele>21.0</ele><time>2026-04-29T16:29:38Z</time></trkpt><trkpt lat="43.62513496885338" lon="7.096929104578479"><ele>21.0</ele><time>2026-04-29T16:29:39Z</time></trkpt><trkpt lat="43.625235700236345" lon="7.096891772754647"><ele>21.0</ele><time>2026-04-29T16:29:40Z</time></trkpt><trkpt lat="43.62532997167929" lon="7.096855408492517"><ele>21.0</ele><time>2026-04-29T16:29:41Z</time></trkpt><trkpt lat="43.625422028096246" lon="7.096827203493562"><ele>21.0</ele><time>2026-04-29T16:29:42Z</time></trkpt><trkpt lat="43.62550902544964" lon="7.096809217014431"><ele>21.0</ele><time>2026-04-29T16:29:43Z</time></trkpt><trkpt lat="43.62558485730332" lon="7.096798974545529"><ele>22.333333333333332</ele><time>2026-04-29T16:29:44Z</time></trkpt><trkpt lat="43.62565218285139" lon="7.096787727311284"><ele>23.666666666666664</ele><time>2026-04-29T16:29:45Z</time></trkpt><trkpt lat="43.62575940089052" lon="7.096763578350976"><ele>25.0</ele><time>2026-04-29T16:29:47Z</time></trkpt><trkpt lat="43.62583281970583" lon="7.096757780621681"><ele>26.333333333333332</ele><time>2026-04-29T16:29:49Z</time></trkpt><trkpt lat="43.62589643391205" lon="7.096750573285375"><ele>27.666666666666664</ele><time>2026-04-29T16:29:53Z</time></trkpt><trkpt lat="43.626004556265116" lon="7.096732240058382"><ele>29.0</ele><time>2026-04-29T16:29:56Z</time></trkpt><trkpt lat="43.626094776824" lon="7.0967336340626765"><ele>32.2</ele><time>2026-04-29T16:29:58Z</time></trkpt><trkpt lat="43.62617909437312" lon="7.096786717728689"><ele>35.4</ele><time>2026-04-29T16:30:00Z</time></trkpt><trkpt lat="43.62617134276731" lon="7.096976765305257"><ele>38.6</ele><time>2026-04-29T16:30:02Z</time></trkpt><trkpt lat="43.62618629939058" lon="7.097087237281743"><ele>41.8</ele><time>2026-04-29T16:30:03Z</time></trkpt><trkpt lat="43.62618369312704" lon="7.097207953524281"><ele>45.0</ele><time>2026-04-29T16:30:04Z</time></trkpt><trkpt lat="43.626163993887054" lon="7.0973336715898485"><ele>46.0</ele><time>2026-04-29T16:30:05Z</time></trkpt><trkpt lat="43.626171470410846" lon="7.0974679380974734"><ele>47.0</ele><time>2026-04-29T16:30:06Z</time></trkpt><trkpt lat="43.62615829772378" lon="7.097616086880333"><ele>48.0</ele><time>2026-04-29T16:30:07Z</time></trkpt><trkpt lat="43.62612210282399" lon="7.097757893150228"><ele>49.0</ele><time>2026-04-29T16:30:08Z</time></trkpt><trkpt lat="43.6260928683565" lon="7.097902396145085"><ele>50.0</ele><time>2026-04-29T16:30:09Z</time></trkpt><trkpt lat="43.62605207391815" lon="7.098042889689795"><ele>46.2</ele><time>2026-04-29T16:30:10Z</time></trkpt><trkpt lat="43.62600656809582" lon="7.098170963158652"><ele>42.4</ele><time>2026-04-29T16:30:11Z</time></trkpt><trkpt lat="43.62596258228331" lon="7.098291780103186"><ele>38.6</ele><time>2026-04-29T16:30:12Z</time></trkpt><trkpt lat="43.6259209486883" lon="7.098400049190535"><ele>34.8</ele><time>2026-04-29T16:30:13Z</time></trkpt><trkpt lat="43.62587757893444" lon="7.09851112494083"><ele>31.0</ele><time>2026-04-29T16:30:14Z</time></trkpt><trkpt lat="43.625848251783516" lon="7.098632898371822"><ele>31.0</ele><time>2026-04-29T16:30:15Z</time></trkpt><trkpt lat="43.625802685818556" lon="7.098741792019667"><ele>31.0</ele><time>2026-04-29T16:30:16Z</time></trkpt><trkpt lat="43.625758055423056" lon="7.098854056337847"><ele>31.0</ele><time>2026-04-29T16:30:17Z</time></trkpt><trkpt lat="43.62571504572868" lon="7.0989645122363045"><ele>31.0</ele><time>2026-04-29T16:30:18Z</time></trkpt><trkpt lat="43.62567352408622" lon="7.099070868155506"><ele>31.0</ele><time>2026-04-29T16:30:19Z</time></trkpt><trkpt lat="43.62562987726444" lon="7.099183867436353"><ele>32.833333333333336</ele><time>2026-04-29T16:30:20Z</time></trkpt><trkpt lat="43.62558807325402" lon="7.099292123902209"><ele>34.66666666666667</ele><time>2026-04-29T16:30:21Z</time></trkpt><trkpt lat="43.62555170830949" lon="7.099389965919475"><ele>36.5</ele><time>2026-04-29T16:30:22Z</time></trkpt><trkpt lat="43.62551515841629" lon="7.099488326773304"><ele>38.333333333333336</ele><time>2026-04-29T16:30:23Z</time></trkpt><trkpt lat="43.62546370234189" lon="7.099573120735266"><ele>40.166666666666664</ele><time>2026-04-29T16:30:24Z</time></trkpt><trkpt lat="43.6254255357923" lon="7.099671770506899"><ele>42.0</ele><time>2026-04-29T16:30:25Z</time></trkpt><trkpt lat="43.625384450416725" lon="7.0997728341444715"><ele>42.0</ele><time>2026-04-29T16:30:26Z</time></trkpt><trkpt lat="43.625340055823706" lon="7.099881578608298"><ele>42.0</ele><time>2026-04-29T16:30:27Z</time></trkpt><trkpt lat="43.62529926704825" lon="7.099981490652703"><ele>42.0</ele><time>2026-04-29T16:30:28Z</time></trkpt><trkpt lat="43.62525912794649" lon="7.100078171380044"><ele>42.0</ele><time>2026-04-29T16:30:29Z</time></trkpt><trkpt lat="43.62521492635612" lon="7.100181244355665"><ele>42.0</ele><time>2026-04-29T16:30:30Z</time></trkpt><trkpt lat="43.62517225494579" lon="7.100290691918906"><ele>42.0</ele><time>2026-04-29T16:30:31Z</time></trkpt><trkpt lat="43.62513887795264" lon="7.100424228748473"><ele>38.4</ele><time>2026-04-29T16:30:32Z</time></trkpt><trkpt lat="43.62511369659045" lon="7.1005563712895565"><ele>34.800000000000004</ele><time>2026-04-29T16:30:33Z</time></trkpt><trkpt lat="43.625090648384834" lon="7.10068918068461"><ele>31.2</ele><time>2026-04-29T16:30:34Z</time></trkpt><trkpt lat="43.62506640807058" lon="7.100828859283733"><ele>27.6</ele><time>2026-04-29T16:30:35Z</time></trkpt><trkpt lat="43.62504289709174" lon="7.100964335298798"><ele>24.0</ele><time>2026-04-29T16:30:36Z</time></trkpt><trkpt lat="43.62502005842051" lon="7.101095937261819"><ele>24.0</ele><time>2026-04-29T16:30:37Z</time></trkpt><trkpt lat="43.62499568379376" lon="7.101231944412272"><ele>24.0</ele><time>2026-04-29T16:30:38Z</time></trkpt><trkpt lat="43.62497001459845" lon="7.101375654843663"><ele>24.0</ele><time>2026-04-29T16:30:39Z</time></trkpt><trkpt lat="43.62494345991855" lon="7.101519712736319"><ele>24.0</ele><time>2026-04-29T16:30:40Z</time></trkpt><trkpt lat="43.624915783669316" lon="7.101658759731793"><ele>24.0</ele><time>2026-04-29T16:30:41Z</time></trkpt><trkpt lat="43.62489029061556" lon="7.101786838252411"><ele>22.8</ele><time>2026-04-29T16:30:42Z</time></trkpt><trkpt lat="43.624866304319795" lon="7.101917813710753"><ele>21.599999999999998</ele><time>2026-04-29T16:30:43Z</time></trkpt><trkpt lat="43.624857483657784" lon="7.10204813421893"><ele>20.4</ele><time>2026-04-29T16:30:44Z</time></trkpt><trkpt lat="43.624839075316586" lon="7.1021652781592035"><ele>19.2</ele><time>2026-04-29T16:30:45Z</time></trkpt><trkpt lat="43.62482082983436" lon="7.102290172959971"><ele>18.0</ele><time>2026-04-29T16:30:46Z</time></trkpt><trkpt lat="43.624796694779235" lon="7.10242113628418"><ele>17.8</ele><time>2026-04-29T16:30:47Z</time></trkpt><trkpt lat="43.62476996396492" lon="7.102542390343168"><ele>17.6</ele><time>2026-04-29T16:30:48Z</time></trkpt><trkpt lat="43.62473485618939" lon="7.102666720238325"><ele>17.4</ele><time>2026-04-29T16:30:49Z</time></trkpt><trkpt lat="43.624707173707556" lon="7.102789143277903"><ele>17.2</ele><time>2026-04-29T16:30:50Z</time></trkpt><trkpt lat="43.624677861690785" lon="7.102922124117394"><ele>17.0</ele><time>2026-04-29T16:30:51Z</time></trkpt><trkpt lat="43.62463988523026" lon="7.103057357041416"><ele>17.0</ele><time>2026-04-29T16:30:52Z</time></trkpt><trkpt lat="43.62459708491557" lon="7.103196740616653"><ele>17.0</ele><time>2026-04-29T16:30:53Z</time></trkpt><trkpt lat="43.624548159254005" lon="7.103336998430978"><ele>17.0</ele><time>2026-04-29T16:30:54Z</time></trkpt><trkpt lat="43.62449161974271" lon="7.103464620137193"><ele>17.0</ele><time>2026-04-29T16:30:55Z</time></trkpt><trkpt lat="43.624450070405295" lon="7.103594955117732"><ele>17.0</ele><time>2026-04-29T16:30:56Z</time></trkpt><trkpt lat="43.62440277359083" lon="7.103719447193269"><ele>17.0</ele><time>2026-04-29T16:30:57Z</time></trkpt><trkpt lat="43.6243159256079" lon="7.103795916224983"><ele>17.0</ele><time>2026-04-29T16:30:58Z</time></trkpt><trkpt lat="43.624236633457436" lon="7.103872527646879"><ele>17.0</ele><time>2026-04-29T16:30:59Z</time></trkpt><trkpt lat="43.62415071908653" lon="7.103928911961359"><ele>17.0</ele><time>2026-04-29T16:31:00Z</time></trkpt><trkpt lat="43.62407141315732" lon="7.104015274624438"><ele>17.0</ele><time>2026-04-29T16:31:01Z</time></trkpt><trkpt lat="43.62397064131559" lon="7.104087709200094"><ele>16.75</ele><time>2026-04-29T16:31:02Z</time></trkpt><trkpt lat="43.623869926271134" lon="7.104162206377405"><ele>16.5</ele><time>2026-04-29T16:31:03Z</time></trkpt><trkpt lat="43.62375382127716" lon="7.104225126336965"><ele>16.25</ele><time>2026-04-29T16:31:04Z</time></trkpt><trkpt lat="43.62364308182374" lon="7.104310472699729"><ele>16.0</ele><time>2026-04-29T16:31:05Z</time></trkpt><trkpt lat="43.623533256759146" lon="7.104400100843979"><ele>16.0</ele><time>2026-04-29T16:31:06Z</time></trkpt><trkpt lat="43.623426057740915" lon="7.104495236527683"><ele>16.0</ele><time>2026-04-29T16:31:07Z</time></trkpt><trkpt lat="43.62331968615924" lon="7.104599344776102"><ele>16.0</ele><time>2026-04-29T16:31:08Z</time></trkpt><trkpt lat="43.62321853874512" lon="7.104707245420315"><ele>16.0</ele><time>2026-04-29T16:31:09Z</time></trkpt><trkpt lat="43.62312750828678" lon="7.104825663571775"><ele>17.0</ele><time>2026-04-29T16:31:10Z</time></trkpt><trkpt lat="43.6230483429959" lon="7.104953006091281"><ele>18.0</ele><time>2026-04-29T16:31:11Z</time></trkpt><trkpt lat="43.62299859318528" lon="7.105120908517305"><ele>19.0</ele><time>2026-04-29T16:31:12Z</time></trkpt><trkpt lat="43.62293766425577" lon="7.10527771775227"><ele>20.0</ele><time>2026-04-29T16:31:13Z</time></trkpt><trkpt lat="43.62288018319601" lon="7.105442536863789"><ele>20.0</ele><time>2026-04-29T16:31:14Z</time></trkpt><trkpt lat="43.62281795304147" lon="7.105608689546079"><ele>20.0</ele><time>2026-04-29T16:31:15Z</time></trkpt><trkpt lat="43.62275656016317" lon="7.105776237922079"><ele>20.0</ele><time>2026-04-29T16:31:16Z</time></trkpt><trkpt lat="43.62269796467026" lon="7.105944725607199"><ele>20.0</ele><time>2026-04-29T16:31:17Z</time></trkpt><trkpt lat="43.622622253339394" lon="7.106105915032687"><ele>20.5</ele><time>2026-04-29T16:31:18Z</time></trkpt><trkpt lat="43.62257370631605" lon="7.10628575775729"><ele>21.0</ele><time>2026-04-29T16:31:19Z</time></trkpt><trkpt lat="43.622490074807914" lon="7.106425920113271"><ele>21.5</ele><time>2026-04-29T16:31:20Z</time></trkpt><trkpt lat="43.62241180415966" lon="7.106563025498614"><ele>22.0</ele><time>2026-04-29T16:31:21Z</time></trkpt><trkpt lat="43.62233475909253" lon="7.106687536605376"><ele>22.0</ele><time>2026-04-29T16:31:22Z</time></trkpt><trkpt lat="43.622259331788044" lon="7.106806745759802"><ele>22.0</ele><time>2026-04-29T16:31:23Z</time></trkpt><trkpt lat="43.62220211422746" lon="7.106930049932312"><ele>22.0</ele><time>2026-04-29T16:31:24Z</time></trkpt><trkpt lat="43.62214148352083" lon="7.107026842628236"><ele>22.0</ele><time>2026-04-29T16:31:25Z</time></trkpt><trkpt lat="43.622091759304695" lon="7.107104898697446"><ele>22.0</ele><time>2026-04-29T16:31:26Z</time></trkpt><trkpt lat="43.62201184514089" lon="7.10720137528794"><ele>22.0</ele><time>2026-04-29T16:31:28Z</time></trkpt><trkpt lat="43.62208070708175" lon="7.107404297952126"><ele>22.0</ele><time>2026-04-29T16:31:30Z</time></trkpt><trkpt lat="43.62210466119342" lon="7.107511996953253"><ele>22.0</ele><time>2026-04-29T16:31:31Z</time></trkpt><trkpt lat="43.62212917739453" lon="7.107621476142425"><ele>22.0</ele><time>2026-04-29T16:31:32Z</time></trkpt><trkpt lat="43.622140324610484" lon="7.107741536363522"><ele>22.0</ele><time>2026-04-29T16:31:33Z</time></trkpt><trkpt lat="43.62214437966873" lon="7.107855514656021"><ele>22.6</ele><time>2026-04-29T16:31:34Z</time></trkpt><trkpt lat="43.622163569202776" lon="7.1079663115320475"><ele>23.200000000000003</ele><time>2026-04-29T16:31:35Z</time></trkpt><trkpt lat="43.62220121962911" lon="7.108068405783134"><ele>23.8</ele><time>2026-04-29T16:31:36Z</time></trkpt><trkpt lat="43.62224459922267" lon="7.108192857870212"><ele>24.4</ele><time>2026-04-29T16:31:37Z</time></trkpt><trkpt lat="43.6223458608952" lon="7.108284719946789"><ele>25.0</ele><time>2026-04-29T16:31:38Z</time></trkpt><trkpt lat="43.622431216616945" lon="7.108404504429324"><ele>25.0</ele><time>2026-04-29T16:31:39Z</time></trkpt><trkpt lat="43.62250025114955" lon="7.108536050350553"><ele>25.0</ele><time>2026-04-29T16:31:40Z</time></trkpt><trkpt lat="43.62256840455999" lon="7.108661478779256"><ele>25.0</ele><time>2026-04-29T16:31:41Z</time></trkpt><trkpt lat="43.62264037230059" lon="7.1087874809499265"><ele>25.0</ele><time>2026-04-29T16:31:42Z</time></trkpt><trkpt lat="43.62274443167891" lon="7.1088836083865115"><ele>24.25</ele><time>2026-04-29T16:31:43Z</time></trkpt><trkpt lat="43.622854174967635" lon="7.108964416618358"><ele>23.5</ele><time>2026-04-29T16:31:44Z</time></trkpt><trkpt lat="43.62296585996907" lon="7.109040615550686"><ele>22.75</ele><time>2026-04-29T16:31:45Z</time></trkpt><trkpt lat="43.62307091293615" lon="7.109117526619077"><ele>22.0</ele><time>2026-04-29T16:31:46Z</time></trkpt><trkpt lat="43.62316963775188" lon="7.109195170276205"><ele>22.0</ele><time>2026-04-29T16:31:47Z</time></trkpt><trkpt lat="43.62326896938619" lon="7.109270546333333"><ele>22.0</ele><time>2026-04-29T16:31:48Z</time></trkpt><trkpt lat="43.62336662810261" lon="7.109341068419326"><ele>22.0</ele><time>2026-04-29T16:31:49Z</time></trkpt><trkpt lat="43.62345003784218" lon="7.10943362869842"><ele>22.0</ele><time>2026-04-29T16:31:50Z</time></trkpt><trkpt lat="43.62354036175657" lon="7.109504329197149"><ele>22.0</ele><time>2026-04-29T16:31:51Z</time></trkpt><trkpt lat="43.623632855352525" lon="7.109563747482691"><ele>22.200000000000003</ele><time>2026-04-29T16:31:52Z</time></trkpt><trkpt lat="43.62368376059866" lon="7.109681495607831"><ele>22.4</ele><time>2026-04-29T16:31:53Z</time></trkpt><trkpt lat="43.62372640043152" lon="7.109806813042642"><ele>22.6</ele><time>2026-04-29T16:31:54Z</time></trkpt><trkpt lat="43.623791305287405" lon="7.109942641395416"><ele>22.799999999999997</ele><time>2026-04-29T16:31:55Z</time></trkpt><trkpt lat="43.623829356218785" lon="7.110079302796913"><ele>23.0</ele><time>2026-04-29T16:31:56Z</time></trkpt><trkpt lat="43.62387339393041" lon="7.110175983588025"><ele>23.0</ele><time>2026-04-29T16:31:57Z</time></trkpt><trkpt lat="43.62391149720598" lon="7.110253577726874"><ele>23.0</ele><time>2026-04-29T16:31:58Z</time></trkpt><trkpt lat="43.624011395259394" lon="7.110219963736039"><ele>23.0</ele><time>2026-04-29T16:31:59Z</time></trkpt><trkpt lat="43.62407639543165" lon="7.110156378188627"><ele>23.0</ele><time>2026-04-29T16:32:00Z</time></trkpt><trkpt lat="43.62412043803145" lon="7.11003927251662"><ele>23.0</ele><time>2026-04-29T16:32:01Z</time></trkpt><trkpt lat="43.62416795235874" lon="7.109921610520259"><ele>23.0</ele><time>2026-04-29T16:32:02Z</time></trkpt><trkpt lat="43.62421640627201" lon="7.109831316772328"><ele>23.0</ele><time>2026-04-29T16:32:03Z</time></trkpt><trkpt lat="43.624298191982724" lon="7.109754575925807"><ele>23.0</ele><time>2026-04-29T16:32:05Z</time></trkpt><trkpt lat="43.624356134284085" lon="7.109800906633292"><ele>23.0</ele><time>2026-04-29T16:32:07Z</time></trkpt><trkpt lat="43.6243113326428" lon="7.109941982681401"><ele>23.0</ele><time>2026-04-29T16:32:09Z</time></trkpt><trkpt lat="43.62428589771941" lon="7.110046669788782"><ele>23.0</ele><time>2026-04-29T16:32:10Z</time></trkpt><trkpt lat="43.62425075954441" lon="7.110166772239419"><ele>22.25</ele><time>2026-04-29T16:32:11Z</time></trkpt><trkpt lat="43.62422421697117" lon="7.110300032949879"><ele>21.5</ele><time>2026-04-29T16:32:12Z</time></trkpt><trkpt lat="43.62420177505108" lon="7.110457272364556"><ele>20.75</ele><time>2026-04-29T16:32:13Z</time></trkpt><trkpt lat="43.62416921334272" lon="7.110627995833784"><ele>20.0</ele><time>2026-04-29T16:32:14Z</time></trkpt><trkpt lat="43.62413602331088" lon="7.1107916151967645"><ele>22.25</ele><time>2026-04-29T16:32:15Z</time></trkpt><trkpt lat="43.624106119908774" lon="7.110953996013802"><ele>24.5</ele><time>2026-04-29T16:32:16Z</time></trkpt><trkpt lat="43.624066279272334" lon="7.111118933961797"><ele>26.75</ele><time>2026-04-29T16:32:17Z</time></trkpt><trkpt lat="43.62403187528848" lon="7.111285197599495"><ele>29.0</ele><time>2026-04-29T16:32:18Z</time></trkpt><trkpt lat="43.62400623006382" lon="7.111430517750925"><ele>28.999999999999996</ele><time>2026-04-29T16:32:19Z</time></trkpt><trkpt lat="43.6240003424207" lon="7.111550625244224"><ele>29.0</ele><time>2026-04-29T16:32:20Z</time></trkpt><trkpt lat="43.62400796753649" lon="7.111665509749011"><ele>29.0</ele><time>2026-04-29T16:32:21Z</time></trkpt><trkpt lat="43.62402507462011" lon="7.111765691491063"><ele>29.0</ele><time>2026-04-29T16:32:22Z</time></trkpt><trkpt lat="43.62404778835791" lon="7.111848821993422"><ele>28.999999999999996</ele><time>2026-04-29T16:32:23Z</time></trkpt><trkpt lat="43.62407066520367" lon="7.111940723111904"><ele>29.0</ele><time>2026-04-29T16:32:24Z</time></trkpt><trkpt lat="43.62413252211767" lon="7.112000745286"><ele>30.166666666666664</ele><time>2026-04-29T16:32:25Z</time></trkpt><trkpt lat="43.6241930719201" lon="7.112059586363387"><ele>31.333333333333332</ele><time>2026-04-29T16:32:26Z</time></trkpt><trkpt lat="43.62425882186001" lon="7.112115243478432"><ele>32.5</ele><time>2026-04-29T16:32:27Z</time></trkpt><trkpt lat="43.62433619495611" lon="7.112173622550223"><ele>33.666666666666664</ele><time>2026-04-29T16:32:28Z</time></trkpt><trkpt lat="43.62442276132676" lon="7.112233889227684"><ele>34.833333333333336</ele><time>2026-04-29T16:32:29Z</time></trkpt><trkpt lat="43.62450088374782" lon="7.112331298730756"><ele>36.0</ele><time>2026-04-29T16:32:30Z</time></trkpt><trkpt lat="43.624598138986094" lon="7.11240856168326"><ele>36.8</ele><time>2026-04-29T16:32:31Z</time></trkpt><trkpt lat="43.62468617992279" lon="7.1125098287591655"><ele>37.6</ele><time>2026-04-29T16:32:32Z</time></trkpt><trkpt lat="43.62477477259603" lon="7.112598312060543"><ele>38.4</ele><time>2026-04-29T16:32:33Z</time></trkpt><trkpt lat="43.624859307208034" lon="7.112681925407812"><ele>39.2</ele><time>2026-04-29T16:32:34Z</time></trkpt><trkpt lat="43.62494614367474" lon="7.112763277714281"><ele>40.0</ele><time>2026-04-29T16:32:35Z</time></trkpt><trkpt lat="43.625028193883594" lon="7.112831273524906"><ele>40.0</ele><time>2026-04-29T16:32:36Z</time></trkpt><trkpt lat="43.62510890668556" lon="7.112903031342783"><ele>40.0</ele><time>2026-04-29T16:32:37Z</time></trkpt><trkpt lat="43.6251957875171" lon="7.112966895457086"><ele>40.0</ele><time>2026-04-29T16:32:38Z</time></trkpt><trkpt lat="43.62527981990217" lon="7.113019308029857"><ele>40.0</ele><time>2026-04-29T16:32:39Z</time></trkpt><trkpt lat="43.62535777191719" lon="7.113078303689724"><ele>40.0</ele><time>2026-04-29T16:32:40Z</time></trkpt><trkpt lat="43.62544589008822" lon="7.113144580461285"><ele>39.8</ele><time>2026-04-29T16:32:41Z</time></trkpt><trkpt lat="43.62554283905969" lon="7.113221337469822"><ele>39.6</ele><time>2026-04-29T16:32:42Z</time></trkpt><trkpt lat="43.62563386609885" lon="7.113303759794994"><ele>39.4</ele><time>2026-04-29T16:32:43Z</time></trkpt><trkpt lat="43.62571858800952" lon="7.113410042177473"><ele>39.2</ele><time>2026-04-29T16:32:44Z</time></trkpt><trkpt lat="43.62579881137137" lon="7.113519655615721"><ele>39.0</ele><time>2026-04-29T16:32:45Z</time></trkpt><trkpt lat="43.62586851743812" lon="7.113646354473104"><ele>39.0</ele><time>2026-04-29T16:32:46Z</time></trkpt><trkpt lat="43.62592739355273" lon="7.113776195397631"><ele>39.0</ele><time>2026-04-29T16:32:47Z</time></trkpt><trkpt lat="43.625985889555025" lon="7.113887665649124"><ele>39.0</ele><time>2026-04-29T16:32:48Z</time></trkpt><trkpt lat="43.626052676329635" lon="7.113984539611332"><ele>39.0</ele><time>2026-04-29T16:32:49Z</time></trkpt><trkpt lat="43.62613542210909" lon="7.114057790616453"><ele>39.0</ele><time>2026-04-29T16:32:50Z</time></trkpt><trkpt lat="43.62622349677847" lon="7.114139227102608"><ele>38.6</ele><time>2026-04-29T16:32:51Z</time></trkpt><trkpt lat="43.62631300114081" lon="7.114221142147852"><ele>38.2</ele><time>2026-04-29T16:32:52Z</time></trkpt><trkpt lat="43.626403279984515" lon="7.114298683403905"><ele>37.800000000000004</ele><time>2026-04-29T16:32:53Z</time></trkpt><trkpt lat="43.62648897665331" lon="7.1143719808625665"><ele>37.4</ele><time>2026-04-29T16:32:54Z</time></trkpt><trkpt lat="43.62656486909634" lon="7.114461958652376"><ele>37.0</ele><time>2026-04-29T16:32:55Z</time></trkpt><trkpt lat="43.62664865675163" lon="7.114530908825017"><ele>37.0</ele><time>2026-04-29T16:32:56Z</time></trkpt><trkpt lat="43.62674476799064" lon="7.114579620149061"><ele>37.0</ele><time>2026-04-29T16:32:57Z</time></trkpt><trkpt lat="43.62683350653347" lon="7.114664095211745"><ele>37.0</ele><time>2026-04-29T16:32:58Z</time></trkpt><trkpt lat="43.62693216027669" lon="7.114734664614176"><ele>37.0</ele><time>2026-04-29T16:32:59Z</time></trkpt><trkpt lat="43.62702232087365" lon="7.114807625395307"><ele>37.0</ele><time>2026-04-29T16:33:00Z</time></trkpt><trkpt lat="43.627095470074615" lon="7.114890468784099"><ele>37.2</ele><time>2026-04-29T16:33:01Z</time></trkpt><trkpt lat="43.62715107074562" lon="7.114990364129005"><ele>37.400000000000006</ele><time>2026-04-29T16:33:02Z</time></trkpt><trkpt lat="43.62719707321996" lon="7.115135025495891"><ele>37.599999999999994</ele><time>2026-04-29T16:33:03Z</time></trkpt><trkpt lat="43.62726740279167" lon="7.1152583974446495"><ele>37.8</ele><time>2026-04-29T16:33:04Z</time></trkpt><trkpt lat="43.627305402144536" lon="7.1153931596600914"><ele>38.0</ele><time>2026-04-29T16:33:05Z</time></trkpt><trkpt lat="43.6273533481902" lon="7.115511441487076"><ele>38.0</ele><time>2026-04-29T16:33:06Z</time></trkpt><trkpt lat="43.62739795187662" lon="7.115623143693069"><ele>38.0</ele><time>2026-04-29T16:33:07Z</time></trkpt><trkpt lat="43.62742589173636" lon="7.115738380331284"><ele>38.0</ele><time>2026-04-29T16:33:08Z</time></trkpt><trkpt lat="43.62743657421877" lon="7.115862238347078"><ele>38.0</ele><time>2026-04-29T16:33:09Z</time></trkpt><trkpt lat="43.62742462518247" lon="7.116000816693143"><ele>38.0</ele><time>2026-04-29T16:33:10Z</time></trkpt><trkpt lat="43.6274386025761" lon="7.116132466273179"><ele>37.83333333333333</ele><time>2026-04-29T16:33:11Z</time></trkpt><trkpt lat="43.62743359326082" lon="7.116247375916047"><ele>37.666666666666664</ele><time>2026-04-29T16:33:12Z</time></trkpt><trkpt lat="43.62742906909006" lon="7.116362820616028"><ele>37.5</ele><time>2026-04-29T16:33:13Z</time></trkpt><trkpt lat="43.627431681482285" lon="7.116481276563717"><ele>37.333333333333336</ele><time>2026-04-29T16:33:14Z</time></trkpt><trkpt lat="43.62742320759937" lon="7.1165889531146656"><ele>37.16666666666667</ele><time>2026-04-29T16:33:15Z</time></trkpt><trkpt lat="43.627425113878914" lon="7.1166880087202316"><ele>37.0</ele><time>2026-04-29T16:33:16Z</time></trkpt><trkpt lat="43.627433310665786" lon="7.116783201058333"><ele>36.85714285714286</ele><time>2026-04-29T16:33:17Z</time></trkpt><trkpt lat="43.62746486878252" lon="7.116865419020978"><ele>36.714285714285715</ele><time>2026-04-29T16:33:18Z</time></trkpt><trkpt lat="43.627525384040325" lon="7.1169218279037345"><ele>36.57142857142857</ele><time>2026-04-29T16:33:19Z</time></trkpt><trkpt lat="43.62757049113382" lon="7.117000907729406"><ele>36.42857142857143</ele><time>2026-04-29T16:33:20Z</time></trkpt><trkpt lat="43.627621419785235" lon="7.117066537215514"><ele>36.285714285714285</ele><time>2026-04-29T16:33:21Z</time></trkpt><trkpt lat="43.627689857527244" lon="7.117107921970994"><ele>36.142857142857146</ele><time>2026-04-29T16:33:22Z</time></trkpt><trkpt lat="43.62773420536699" lon="7.117185427864218"><ele>36.0</ele><time>2026-04-29T16:33:23Z</time></trkpt><trkpt lat="43.62776287473255" lon="7.117275832620955"><ele>36.0</ele><time>2026-04-29T16:33:24Z</time></trkpt><trkpt lat="43.627779376992194" lon="7.11737105795787"><ele>36.0</ele><time>2026-04-29T16:33:25Z</time></trkpt><trkpt lat="43.62778940253893" lon="7.117473629158855"><ele>36.0</ele><time>2026-04-29T16:33:26Z</time></trkpt><trkpt lat="43.62780400109143" lon="7.117569722326249"><ele>36.0</ele><time>2026-04-29T16:33:27Z</time></trkpt><trkpt lat="43.62782737888805" lon="7.117668911648355"><ele>36.0</ele><time>2026-04-29T16:33:28Z</time></trkpt><trkpt lat="43.62783407180961" lon="7.117771902142079"><ele>36.0</ele><time>2026-04-29T16:33:29Z</time></trkpt><trkpt lat="43.62786196491601" lon="7.117881817182916"><ele>34.6</ele><time>2026-04-29T16:33:30Z</time></trkpt><trkpt lat="43.6279005043597" lon="7.118026207990766"><ele>33.2</ele><time>2026-04-29T16:33:31Z</time></trkpt><trkpt lat="43.62795095896892" lon="7.1181755084531355"><ele>31.799999999999997</ele><time>2026-04-29T16:33:32Z</time></trkpt><trkpt lat="43.62800826855947" lon="7.118307790067775"><ele>30.4</ele><time>2026-04-29T16:33:33Z</time></trkpt><trkpt lat="43.628060048769505" lon="7.118428370837846"><ele>29.0</ele><time>2026-04-29T16:33:34Z</time></trkpt><trkpt lat="43.62810562789936" lon="7.118542701593553"><ele>28.666666666666664</ele><time>2026-04-29T16:33:35Z</time></trkpt><trkpt lat="43.62815446732767" lon="7.118651125239539"><ele>28.333333333333332</ele><time>2026-04-29T16:33:36Z</time></trkpt><trkpt lat="43.628191577844696" lon="7.1187594422425295"><ele>28.0</ele><time>2026-04-29T16:33:37Z</time></trkpt><trkpt lat="43.62822913918123" lon="7.118866937903518"><ele>27.666666666666664</ele><time>2026-04-29T16:33:38Z</time></trkpt><trkpt lat="43.628261922225384" lon="7.1189633886651125"><ele>27.333333333333332</ele><time>2026-04-29T16:33:39Z</time></trkpt><trkpt lat="43.628301219673354" lon="7.119048478877686"><ele>27.0</ele><time>2026-04-29T16:33:40Z</time></trkpt><trkpt lat="43.628344197980226" lon="7.119144502815256"><ele>27.0</ele><time>2026-04-29T16:33:41Z</time></trkpt><trkpt lat="43.628394765850175" lon="7.119248329014297"><ele>27.000000000000004</ele><time>2026-04-29T16:33:42Z</time></trkpt><trkpt lat="43.628456264860525" lon="7.119362515621531"><ele>27.000000000000004</ele><time>2026-04-29T16:33:43Z</time></trkpt><trkpt lat="43.62851977915867" lon="7.119474781410383"><ele>27.0</ele><time>2026-04-29T16:33:44Z</time></trkpt><trkpt lat="43.62857720197292" lon="7.119581713964508"><ele>27.0</ele><time>2026-04-29T16:33:45Z</time></trkpt><trkpt lat="43.628623223238876" lon="7.119705002461524"><ele>25.200000000000003</ele><time>2026-04-29T16:33:46Z</time></trkpt><trkpt lat="43.62868239868272" lon="7.119808434988803"><ele>23.400000000000002</ele><time>2026-04-29T16:33:47Z</time></trkpt><trkpt lat="43.62875451097395" lon="7.119908896557231"><ele>21.6</ele><time>2026-04-29T16:33:48Z</time></trkpt><trkpt lat="43.62882936709379" lon="7.120012856197513"><ele>19.8</ele><time>2026-04-29T16:33:49Z</time></trkpt><trkpt lat="43.62890205724019" lon="7.120112132099232"><ele>18.0</ele><time>2026-04-29T16:33:50Z</time></trkpt><trkpt lat="43.6289768757583" lon="7.120174967061201"><ele>18.0</ele><time>2026-04-29T16:33:51Z</time></trkpt><trkpt lat="43.62903402772974" lon="7.120251285535996"><ele>18.0</ele><time>2026-04-29T16:33:52Z</time></trkpt><trkpt lat="43.62911117746574" lon="7.120347868749305"><ele>18.0</ele><time>2026-04-29T16:33:53Z</time></trkpt><trkpt lat="43.62920266502565" lon="7.120451439633982"><ele>18.0</ele><time>2026-04-29T16:33:54Z</time></trkpt><trkpt lat="43.62929965453297" lon="7.120551550355509"><ele>18.0</ele><time>2026-04-29T16:33:55Z</time></trkpt><trkpt lat="43.629376751214494" lon="7.120684422944042"><ele>18.25</ele><time>2026-04-29T16:33:56Z</time></trkpt><trkpt lat="43.629457182280106" lon="7.120814027984769"><ele>18.5</ele><time>2026-04-29T16:33:57Z</time></trkpt><trkpt lat="43.62953298730989" lon="7.1209505964563835"><ele>18.75</ele><time>2026-04-29T16:33:58Z</time></trkpt><trkpt lat="43.62960000852819" lon="7.121085210834468"><ele>19.0</ele><time>2026-04-29T16:33:59Z</time></trkpt><trkpt lat="43.629676347047734" lon="7.121207897784737"><ele>19.0</ele><time>2026-04-29T16:34:00Z</time></trkpt><trkpt lat="43.62971871120192" lon="7.121359936232361"><ele>19.0</ele><time>2026-04-29T16:34:01Z</time></trkpt><trkpt lat="43.62973102033326" lon="7.121518575288461"><ele>19.0</ele><time>2026-04-29T16:34:02Z</time></trkpt><trkpt lat="43.62969928742262" lon="7.121678417189229"><ele>19.0</ele><time>2026-04-29T16:34:03Z</time></trkpt><trkpt lat="43.629656807575934" lon="7.1218371856614375"><ele>19.5</ele><time>2026-04-29T16:34:04Z</time></trkpt><trkpt lat="43.62962479069751" lon="7.122017391952544"><ele>20.0</ele><time>2026-04-29T16:34:05Z</time></trkpt><trkpt lat="43.629590379451365" lon="7.122187901410752"><ele>20.5</ele><time>2026-04-29T16:34:06Z</time></trkpt><trkpt lat="43.62957769506049" lon="7.122349569970389"><ele>21.0</ele><time>2026-04-29T16:34:07Z</time></trkpt><trkpt lat="43.62957934702345" lon="7.122503424497566"><ele>21.6</ele><time>2026-04-29T16:34:08Z</time></trkpt><trkpt lat="43.629595673539896" lon="7.122641580660068"><ele>22.200000000000003</ele><time>2026-04-29T16:34:09Z</time></trkpt><trkpt lat="43.629614656375665" lon="7.122767571161635"><ele>22.799999999999997</ele><time>2026-04-29T16:34:10Z</time></trkpt><trkpt lat="43.62960069192102" lon="7.122898907199086"><ele>23.4</ele><time>2026-04-29T16:34:11Z</time></trkpt><trkpt lat="43.62957752386841" lon="7.123032192633754"><ele>24.0</ele><time>2026-04-29T16:34:12Z</time></trkpt><trkpt lat="43.6295321768912" lon="7.123158631485361"><ele>24.4</ele><time>2026-04-29T16:34:13Z</time></trkpt><trkpt lat="43.62949703131286" lon="7.123291647678252"><ele>24.799999999999997</ele><time>2026-04-29T16:34:14Z</time></trkpt><trkpt lat="43.62944036827694" lon="7.123414402831623"><ele>25.200000000000003</ele><time>2026-04-29T16:34:15Z</time></trkpt><trkpt lat="43.629399361719976" lon="7.1235285551933485"><ele>25.6</ele><time>2026-04-29T16:34:16Z</time></trkpt><trkpt lat="43.62936145694413" lon="7.123641505938298"><ele>26.0</ele><time>2026-04-29T16:34:17Z</time></trkpt><trkpt lat="43.62932943039234" lon="7.123758259244023"><ele>23.400000000000002</ele><time>2026-04-29T16:34:18Z</time></trkpt><trkpt lat="43.62929438721129" lon="7.123881382271136"><ele>20.8</ele><time>2026-04-29T16:34:19Z</time></trkpt><trkpt lat="43.62925643497808" lon="7.124020121386376"><ele>18.200000000000003</ele><time>2026-04-29T16:34:20Z</time></trkpt><trkpt lat="43.62922430110652" lon="7.124154354635415"><ele>15.600000000000001</ele><time>2026-04-29T16:34:21Z</time></trkpt><trkpt lat="43.62919764689377" lon="7.124272688757959"><ele>13.0</ele><time>2026-04-29T16:34:22Z</time></trkpt><trkpt lat="43.629174650922984" lon="7.124380794189519"><ele>13.0</ele><time>2026-04-29T16:34:23Z</time></trkpt><trkpt lat="43.629146003758855" lon="7.124505969531003"><ele>13.0</ele><time>2026-04-29T16:34:24Z</time></trkpt><trkpt lat="43.62911603196818" lon="7.1246438255767535"><ele>13.0</ele><time>2026-04-29T16:34:25Z</time></trkpt><trkpt lat="43.62907940110941" lon="7.124812939918063"><ele>13.0</ele><time>2026-04-29T16:34:26Z</time></trkpt><trkpt lat="43.62903670679258" lon="7.124984679108659"><ele>13.75</ele><time>2026-04-29T16:34:27Z</time></trkpt><trkpt lat="43.628980055266425" lon="7.125139850386402"><ele>14.5</ele><time>2026-04-29T16:34:28Z</time></trkpt><trkpt lat="43.62894398569739" lon="7.125288101495578"><ele>15.25</ele><time>2026-04-29T16:34:29Z</time></trkpt><trkpt lat="43.628859027609124" lon="7.125406917661917"><ele>16.0</ele><time>2026-04-29T16:34:30Z</time></trkpt><trkpt lat="43.6287870596891" lon="7.125538451787513"><ele>16.0</ele><time>2026-04-29T16:34:31Z</time></trkpt><trkpt lat="43.62869849702693" lon="7.1256423291660145"><ele>16.0</ele><time>2026-04-29T16:34:32Z</time></trkpt><trkpt lat="43.62861347669236" lon="7.125743003424652"><ele>16.0</ele><time>2026-04-29T16:34:33Z</time></trkpt><trkpt lat="43.628537159452556" lon="7.125848251868816"><ele>16.0</ele><time>2026-04-29T16:34:34Z</time></trkpt><trkpt lat="43.62848175404252" lon="7.125966957085255"><ele>16.0</ele><time>2026-04-29T16:34:35Z</time></trkpt><trkpt lat="43.62845517015218" lon="7.126103219136428"><ele>15.5</ele><time>2026-04-29T16:34:36Z</time></trkpt><trkpt lat="43.628460136685995" lon="7.126261743869292"><ele>15.0</ele><time>2026-04-29T16:34:37Z</time></trkpt><trkpt lat="43.62847307916291" lon="7.126428345990874"><ele>14.5</ele><time>2026-04-29T16:34:38Z</time></trkpt><trkpt lat="43.62847107739186" lon="7.126604689203821"><ele>14.0</ele><time>2026-04-29T16:34:39Z</time></trkpt><trkpt lat="43.62849849413077" lon="7.126765160883958"><ele>14.0</ele><time>2026-04-29T16:34:40Z</time></trkpt><trkpt lat="43.62851311923478" lon="7.126910786000541"><ele>13.999999999999998</ele><time>2026-04-29T16:34:41Z</time></trkpt><trkpt lat="43.6285552112013" lon="7.127059586721216"><ele>13.999999999999998</ele><time>2026-04-29T16:34:42Z</time></trkpt><trkpt lat="43.62858653840912" lon="7.127210638309718"><ele>14.0</ele><time>2026-04-29T16:34:43Z</time></trkpt><trkpt lat="43.62861991619082" lon="7.127346415410732"><ele>14.0</ele><time>2026-04-29T16:34:44Z</time></trkpt><trkpt lat="43.62863284432741" lon="7.127482528294329"><ele>14.799999999999999</ele><time>2026-04-29T16:34:45Z</time></trkpt><trkpt lat="43.62865496915641" lon="7.127614030691516"><ele>15.599999999999998</ele><time>2026-04-29T16:34:46Z</time></trkpt><trkpt lat="43.628674058511855" lon="7.127741198958807"><ele>16.4</ele><time>2026-04-29T16:34:47Z</time></trkpt><trkpt lat="43.6287124663268" lon="7.127858056567519"><ele>17.2</ele><time>2026-04-29T16:34:48Z</time></trkpt><trkpt lat="43.62877416374656" lon="7.127955007469766"><ele>18.0</ele><time>2026-04-29T16:34:49Z</time></trkpt><trkpt lat="43.62886489511167" lon="7.12803726466739"><ele>18.0</ele><time>2026-04-29T16:34:50Z</time></trkpt><trkpt lat="43.62896785248781" lon="7.128111143695522"><ele>18.0</ele><time>2026-04-29T16:34:51Z</time></trkpt><trkpt lat="43.62905839562845" lon="7.128207001371045"><ele>18.0</ele><time>2026-04-29T16:34:52Z</time></trkpt><trkpt lat="43.629149885896204" lon="7.128303695899277"><ele>18.0</ele><time>2026-04-29T16:34:53Z</time></trkpt><trkpt lat="43.629237507913984" lon="7.128403167012592"><ele>18.2</ele><time>2026-04-29T16:34:54Z</time></trkpt><trkpt lat="43.629319245424675" lon="7.128499015003807"><ele>18.4</ele><time>2026-04-29T16:34:55Z</time></trkpt><trkpt lat="43.62940155207938" lon="7.128569346679674"><ele>18.599999999999998</ele><time>2026-04-29T16:34:56Z</time></trkpt><trkpt lat="43.62948788897256" lon="7.12864020095929"><ele>18.8</ele><time>2026-04-29T16:34:57Z</time></trkpt><trkpt lat="43.62957372493094" lon="7.128724968498141"><ele>19.0</ele><time>2026-04-29T16:34:58Z</time></trkpt><trkpt lat="43.62964947230792" lon="7.12880726205905"><ele>19.0</ele><time>2026-04-29T16:34:59Z</time></trkpt><trkpt lat="43.62973606133757" lon="7.128905488747661"><ele>19.0</ele><time>2026-04-29T16:35:00Z</time></trkpt><trkpt lat="43.629820667567735" lon="7.128993110673429"><ele>19.0</ele><time>2026-04-29T16:35:01Z</time></trkpt><trkpt lat="43.62990649870135" lon="7.129075642837099"><ele>19.0</ele><time>2026-04-29T16:35:02Z</time></trkpt><trkpt lat="43.62999048846829" lon="7.129154737935796"><ele>19.0</ele><time>2026-04-29T16:35:03Z</time></trkpt><trkpt lat="43.63007766618867" lon="7.129228359869167"><ele>18.8</ele><time>2026-04-29T16:35:04Z</time></trkpt><trkpt lat="43.63016889951297" lon="7.129304254985668"><ele>18.599999999999998</ele><time>2026-04-29T16:35:05Z</time></trkpt><trkpt lat="43.630268233070844" lon="7.129353050940028"><ele>18.4</ele><time>2026-04-29T16:35:06Z</time></trkpt><trkpt lat="43.630366739880444" lon="7.129381411475683"><ele>18.2</ele><time>2026-04-29T16:35:07Z</time></trkpt><trkpt lat="43.630467552221404" lon="7.129391858132783"><ele>18.0</ele><time>2026-04-29T16:35:08Z</time></trkpt><trkpt lat="43.630559554218415" lon="7.129394153395654"><ele>18.0</ele><time>2026-04-29T16:35:09Z</time></trkpt><trkpt lat="43.63064313210988" lon="7.129416767952108"><ele>18.0</ele><time>2026-04-29T16:35:10Z</time></trkpt><trkpt lat="43.63070260153304" lon="7.129502107804333"><ele>18.0</ele><time>2026-04-29T16:35:11Z</time></trkpt><trkpt lat="43.63074813266445" lon="7.129605045856872"><ele>18.0</ele><time>2026-04-29T16:35:12Z</time></trkpt><trkpt lat="43.630791536334876" lon="7.1297128489065225"><ele>18.0</ele><time>2026-04-29T16:35:13Z</time></trkpt><trkpt lat="43.63084209829611" lon="7.129790042670613"><ele>18.0</ele><time>2026-04-29T16:35:14Z</time></trkpt><trkpt lat="43.63083452975146" lon="7.129889703489863"><ele>17.0</ele><time>2026-04-29T16:35:15Z</time></trkpt><trkpt lat="43.630767949310666" lon="7.129971148452125"><ele>16.0</ele><time>2026-04-29T16:35:16Z</time></trkpt><trkpt lat="43.63072148796788" lon="7.130091328891379"><ele>15.0</ele><time>2026-04-29T16:35:17Z</time></trkpt><trkpt lat="43.63068734931251" lon="7.13023604475799"><ele>14.0</ele><time>2026-04-29T16:35:18Z</time></trkpt><trkpt lat="43.63062201019607" lon="7.130365274746244"><ele>13.0</ele><time>2026-04-29T16:35:19Z</time></trkpt><trkpt lat="43.63057112064054" lon="7.130505139567615"><ele>13.0</ele><time>2026-04-29T16:35:20Z</time></trkpt><trkpt lat="43.63052115844569" lon="7.130646466612342"><ele>13.0</ele><time>2026-04-29T16:35:21Z</time></trkpt><trkpt lat="43.63047075483454" lon="7.130788052771747"><ele>13.0</ele><time>2026-04-29T16:35:22Z</time></trkpt><trkpt lat="43.6304351755063" lon="7.1309369150499355"><ele>13.0</ele><time>2026-04-29T16:35:23Z</time></trkpt><trkpt lat="43.63038675608016" lon="7.131071089302347"><ele>12.600000000000001</ele><time>2026-04-29T16:35:24Z</time></trkpt><trkpt lat="43.630337844449734" lon="7.131202603976322"><ele>12.200000000000001</ele><time>2026-04-29T16:35:25Z</time></trkpt><trkpt lat="43.63028707020906" lon="7.1313341624457705"><ele>11.8</ele><time>2026-04-29T16:35:26Z</time></trkpt><trkpt lat="43.63024022799507" lon="7.1314657183137315"><ele>11.4</ele><time>2026-04-29T16:35:27Z</time></trkpt><trkpt lat="43.630197102100865" lon="7.131593651728726"><ele>11.0</ele><time>2026-04-29T16:35:28Z</time></trkpt><trkpt lat="43.63015125532155" lon="7.131715992270386"><ele>10.0</ele><time>2026-04-29T16:35:29Z</time></trkpt><trkpt lat="43.630100186373056" lon="7.131838720285611"><ele>9.0</ele><time>2026-04-29T16:35:30Z</time></trkpt><trkpt lat="43.630055052477566" lon="7.131969108375819"><ele>8.0</ele><time>2026-04-29T16:35:31Z</time></trkpt><trkpt lat="43.630010836955265" lon="7.132096909110639"><ele>7.0</ele><time>2026-04-29T16:35:32Z</time></trkpt><trkpt lat="43.629965946227394" lon="7.1322148499567195"><ele>6.0</ele><time>2026-04-29T16:35:33Z</time></trkpt><trkpt lat="43.62992555110517" lon="7.132330282816984"><ele>6.0</ele><time>2026-04-29T16:35:34Z</time></trkpt><trkpt lat="43.62988654072842" lon="7.132441117051507"><ele>6.0</ele><time>2026-04-29T16:35:35Z</time></trkpt><trkpt lat="43.62984689457527" lon="7.132558407374252"><ele>6.0</ele><time>2026-04-29T16:35:36Z</time></trkpt><trkpt lat="43.62980371504874" lon="7.132671631090046"><ele>6.0</ele><time>2026-04-29T16:35:37Z</time></trkpt><trkpt lat="43.62976119882673" lon="7.13278523143284"><ele>6.0</ele><time>2026-04-29T16:35:38Z</time></trkpt><trkpt lat="43.62972434750948" lon="7.132887134912213"><ele>6.0</ele><time>2026-04-29T16:35:39Z</time></trkpt><trkpt lat="43.629688751106585" lon="7.132993573831004"><ele>6.0</ele><time>2026-04-29T16:35:40Z</time></trkpt><trkpt lat="43.62964345489406" lon="7.133108441447079"><ele>6.0</ele><time>2026-04-29T16:35:41Z</time></trkpt><trkpt lat="43.62958388964097" lon="7.1332133973553695"><ele>6.0</ele><time>2026-04-29T16:35:42Z</time></trkpt><trkpt lat="43.62953163033719" lon="7.133306240272554"><ele>6.0</ele><time>2026-04-29T16:35:43Z</time></trkpt><trkpt lat="43.629499930968734" lon="7.1334007751496324"><ele>6.0</ele><time>2026-04-29T16:35:44Z</time></trkpt><trkpt lat="43.62947255650563" lon="7.133498878313633"><ele>6.0</ele><time>2026-04-29T16:35:46Z</time></trkpt><trkpt lat="43.6294568557402" lon="7.133605425430693"><ele>6.0</ele><time>2026-04-29T16:36:49Z</time></trkpt><trkpt lat="43.62954899799902" lon="7.133749740759135"><ele>6.0</ele><time>2026-04-29T16:36:52Z</time></trkpt><trkpt lat="43.62962607586165" lon="7.133809703953137"><ele>6.0</ele><time>2026-04-29T16:36:53Z</time></trkpt><trkpt lat="43.629705275892135" lon="7.1338468136415"><ele>6.0</ele><time>2026-04-29T16:36:54Z</time></trkpt><trkpt lat="43.6297918119655" lon="7.133887360688153"><ele>6.0</ele><time>2026-04-29T16:36:55Z</time></trkpt><trkpt lat="43.629877034436895" lon="7.1339272922382"><ele>6.0</ele><time>2026-04-29T16:36:56Z</time></trkpt><trkpt lat="43.629963770067455" lon="7.1339676955796705"><ele>6.0</ele><time>2026-04-29T16:36:57Z</time></trkpt><trkpt lat="43.63004527879379" lon="7.1340048458265946"><ele>6.0</ele><time>2026-04-29T16:36:58Z</time></trkpt><trkpt lat="43.630140843874955" lon="7.134008363112405"><ele>6.0</ele><time>2026-04-29T16:36:59Z</time></trkpt><trkpt lat="43.63022069898196" lon="7.134041806379625"><ele>6.0</ele><time>2026-04-29T16:37:00Z</time></trkpt><trkpt lat="43.630295153406976" lon="7.134075101798232"><ele>5.833333333333333</ele><time>2026-04-29T16:37:01Z</time></trkpt><trkpt lat="43.630356985984" lon="7.134102416072553"><ele>5.666666666666667</ele><time>2026-04-29T16:37:02Z</time></trkpt><trkpt lat="43.63043081277686" lon="7.1341334976785795"><ele>5.5</ele><time>2026-04-29T16:37:04Z</time></trkpt><trkpt lat="43.63049740561808" lon="7.134163942567156"><ele>5.333333333333334</ele><time>2026-04-29T16:37:07Z</time></trkpt><trkpt lat="43.63057589748401" lon="7.134197831743869"><ele>5.166666666666667</ele><time>2026-04-29T16:37:09Z</time></trkpt><trkpt lat="43.63068003935419" lon="7.134287050513486"><ele>5.0</ele><time>2026-04-29T16:37:11Z</time></trkpt><trkpt lat="43.630757494565124" lon="7.134278846962997"><ele>5.0</ele><time>2026-04-29T16:37:12Z</time></trkpt><trkpt lat="43.63082700811129" lon="7.134312573699496"><ele>5.0</ele><time>2026-04-29T16:37:13Z</time></trkpt><trkpt lat="43.63089892707893" lon="7.13434516380567"><ele>5.0</ele><time>2026-04-29T16:37:14Z</time></trkpt><trkpt lat="43.63097787439003" lon="7.134379328888985"><ele>5.0</ele><time>2026-04-29T16:37:15Z</time></trkpt><trkpt lat="43.63105413006461" lon="7.134472589379624"><ele>5.0</ele><time>2026-04-29T16:37:16Z</time></trkpt><trkpt lat="43.63113012193367" lon="7.1344738692391765"><ele>5.0</ele><time>2026-04-29T16:37:17Z</time></trkpt><trkpt lat="43.6312034326086" lon="7.134506183667635"><ele>5.166666666666667</ele><time>2026-04-29T16:37:18Z</time></trkpt><trkpt lat="43.63127562385303" lon="7.134533867517291"><ele>5.333333333333334</ele><time>2026-04-29T16:37:19Z</time></trkpt><trkpt lat="43.63134914011202" lon="7.134562750177474"><ele>5.5</ele><time>2026-04-29T16:37:20Z</time></trkpt><trkpt lat="43.63141998492782" lon="7.1345893870727695"><ele>5.666666666666667</ele><time>2026-04-29T16:37:21Z</time></trkpt><trkpt lat="43.6314928599078" lon="7.134611998346454"><ele>5.833333333333333</ele><time>2026-04-29T16:37:22Z</time></trkpt><trkpt lat="43.631566630338156" lon="7.134637002765787"><ele>6.0</ele><time>2026-04-29T16:37:23Z</time></trkpt><trkpt lat="43.63164491603633" lon="7.134624661493837"><ele>6.0</ele><time>2026-04-29T16:37:24Z</time></trkpt><trkpt lat="43.63171465340149" lon="7.134636735390808"><ele>6.0</ele><time>2026-04-29T16:37:25Z</time></trkpt><trkpt lat="43.6317814733221" lon="7.134646328172564"><ele>6.0</ele><time>2026-04-29T16:37:26Z</time></trkpt><trkpt lat="43.63189790957712" lon="7.134658457078987"><ele>6.0</ele><time>2026-04-29T16:37:28Z</time></trkpt><trkpt lat="43.631992301881326" lon="7.134661155928551"><ele>6.0</ele><time>2026-04-29T16:37:30Z</time></trkpt><trkpt lat="43.63205569656315" lon="7.134657475229668"><ele>6.0</ele><time>2026-04-29T16:37:32Z</time></trkpt><trkpt lat="43.63211846493769" lon="7.1346463546134355"><ele>6.166666666666667</ele><time>2026-04-29T16:37:39Z</time></trkpt><trkpt lat="43.6321886834014" lon="7.13463180183974"><ele>6.333333333333334</ele><time>2026-04-29T16:37:41Z</time></trkpt><trkpt lat="43.63226698266573" lon="7.134613776956429"><ele>6.5</ele><time>2026-04-29T16:37:43Z</time></trkpt><trkpt lat="43.63237170691378" lon="7.13461466586066"><ele>6.666666666666667</ele><time>2026-04-29T16:37:45Z</time></trkpt><trkpt lat="43.63248633717407" lon="7.134574243063706"><ele>6.833333333333334</ele><time>2026-04-29T16:37:47Z</time></trkpt><trkpt lat="43.632553574780616" lon="7.134550120418474"><ele>7.0</ele><time>2026-04-29T16:37:48Z</time></trkpt><trkpt lat="43.632618359070875" lon="7.134523451844318"><ele>7.0</ele><time>2026-04-29T16:37:49Z</time></trkpt><trkpt lat="43.63268144235963" lon="7.134497483496459"><ele>7.0</ele><time>2026-04-29T16:37:50Z</time></trkpt><trkpt lat="43.632746343798644" lon="7.13447027612623"><ele>7.0</ele><time>2026-04-29T16:37:51Z</time></trkpt><trkpt lat="43.63281095354014" lon="7.134442919509939"><ele>7.0</ele><time>2026-04-29T16:37:52Z</time></trkpt><trkpt lat="43.63287462437826" lon="7.134415960437882"><ele>7.0</ele><time>2026-04-29T16:37:53Z</time></trkpt><trkpt lat="43.632940912649694" lon="7.13438789311196"><ele>7.0</ele><time>2026-04-29T16:37:54Z</time></trkpt><trkpt lat="43.63301015159848" lon="7.134358576615988"><ele>7.0</ele><time>2026-04-29T16:37:55Z</time></trkpt><trkpt lat="43.633070338636195" lon="7.134310986935233"><ele>7.142857142857142</ele><time>2026-04-29T16:37:56Z</time></trkpt><trkpt lat="43.63313972903011" lon="7.134286426004747"><ele>7.285714285714286</ele><time>2026-04-29T16:37:57Z</time></trkpt><trkpt lat="43.63320578195739" lon="7.134259590368392"><ele>7.428571428571429</ele><time>2026-04-29T16:37:58Z</time></trkpt><trkpt lat="43.63327193304099" lon="7.134228638228318"><ele>7.571428571428571</ele><time>2026-04-29T16:37:59Z</time></trkpt><trkpt lat="43.633339370319746" lon="7.134199954637334"><ele>7.7142857142857135</ele><time>2026-04-29T16:38:00Z</time></trkpt><trkpt lat="43.63341067520012" lon="7.134170647879128"><ele>7.857142857142857</ele><time>2026-04-29T16:38:01Z</time></trkpt><trkpt lat="43.633485414922525" lon="7.13413921680555"><ele>8.0</ele><time>2026-04-29T16:38:02Z</time></trkpt><trkpt lat="43.63355020113445" lon="7.1341111606474"><ele>7.999999999999999</ele><time>2026-04-29T16:38:03Z</time></trkpt><trkpt lat="43.63361327578183" lon="7.13408341480025"><ele>8.0</ele><time>2026-04-29T16:38:04Z</time></trkpt><trkpt lat="43.63368028932403" lon="7.1340545588804245"><ele>8.0</ele><time>2026-04-29T16:38:05Z</time></trkpt><trkpt lat="43.63375216415833" lon="7.134023185214255"><ele>8.0</ele><time>2026-04-29T16:38:06Z</time></trkpt><trkpt lat="43.63384440571907" lon="7.134007646419052"><ele>7.999999999999999</ele><time>2026-04-29T16:38:07Z</time></trkpt><trkpt lat="43.63393059901808" lon="7.133974199528982"><ele>8.0</ele><time>2026-04-29T16:38:08Z</time></trkpt><trkpt lat="43.634020401562466" lon="7.133938665879429"><ele>7.999999999999999</ele><time>2026-04-29T16:38:09Z</time></trkpt><trkpt lat="43.634092024607185" lon="7.1339121226044915"><ele>8.0</ele><time>2026-04-29T16:38:10Z</time></trkpt><trkpt lat="43.63421048192212" lon="7.133873165798945"><ele>8.0</ele><time>2026-04-29T16:38:12Z</time></trkpt><trkpt lat="43.634276496190346" lon="7.133854084397548"><ele>8.0</ele><time>2026-04-29T16:38:13Z</time></trkpt><trkpt lat="43.634353689130755" lon="7.133833201278254"><ele>7.999999999999999</ele><time>2026-04-29T16:38:14Z</time></trkpt><trkpt lat="43.63442955156403" lon="7.1337938139591115"><ele>8.0</ele><time>2026-04-29T16:38:15Z</time></trkpt><trkpt lat="43.63451389432815" lon="7.133785521346679"><ele>8.333333333333332</ele><time>2026-04-29T16:38:16Z</time></trkpt><trkpt lat="43.634594657293164" lon="7.133777368238291"><ele>8.666666666666666</ele><time>2026-04-29T16:38:17Z</time></trkpt><trkpt lat="43.63467016228465" lon="7.133771787802255"><ele>9.0</ele><time>2026-04-29T16:38:18Z</time></trkpt><trkpt lat="43.63474591867662" lon="7.133763814428224"><ele>9.333333333333334</ele><time>2026-04-29T16:38:19Z</time></trkpt><trkpt lat="43.6348293253778" lon="7.133755338778978"><ele>9.666666666666668</ele><time>2026-04-29T16:38:20Z</time></trkpt><trkpt lat="43.63491020480284" lon="7.133744933877944"><ele>10.0</ele><time>2026-04-29T16:38:21Z</time></trkpt><trkpt lat="43.6349965677425" lon="7.133731394584243"><ele>10.0</ele><time>2026-04-29T16:38:22Z</time></trkpt><trkpt lat="43.635074682240926" lon="7.133722623888053"><ele>10.0</ele><time>2026-04-29T16:38:23Z</time></trkpt><trkpt lat="43.63515013854514" lon="7.133714983362556"><ele>10.0</ele><time>2026-04-29T16:38:24Z</time></trkpt><trkpt lat="43.63522205312281" lon="7.133705277214967"><ele>10.0</ele><time>2026-04-29T16:38:25Z</time></trkpt><trkpt lat="43.635294370202466" lon="7.133694405390419"><ele>10.0</ele><time>2026-04-29T16:38:26Z</time></trkpt><trkpt lat="43.63536653896854" lon="7.1336849585739746"><ele>10.0</ele><time>2026-04-29T16:38:27Z</time></trkpt><trkpt lat="43.63543650321285" lon="7.133677375357927"><ele>10.0</ele><time>2026-04-29T16:38:28Z</time></trkpt><trkpt lat="43.6355120452322" lon="7.13366986072629"><ele>10.4</ele><time>2026-04-29T16:38:29Z</time></trkpt><trkpt lat="43.63559614191566" lon="7.133666108483188"><ele>10.8</ele><time>2026-04-29T16:38:30Z</time></trkpt><trkpt lat="43.635686547185585" lon="7.133657229423443"><ele>11.2</ele><time>2026-04-29T16:38:31Z</time></trkpt><trkpt lat="43.635780183657324" lon="7.133648559971949"><ele>11.6</ele><time>2026-04-29T16:38:32Z</time></trkpt><trkpt lat="43.63587418544809" lon="7.1336415597676375"><ele>12.0</ele><time>2026-04-29T16:38:33Z</time></trkpt><trkpt lat="43.63597045834945" lon="7.133633327228665"><ele>12.0</ele><time>2026-04-29T16:38:34Z</time></trkpt><trkpt lat="43.63607415952989" lon="7.133626933883125"><ele>12.0</ele><time>2026-04-29T16:38:35Z</time></trkpt><trkpt lat="43.636175389343784" lon="7.133620932186791"><ele>12.0</ele><time>2026-04-29T16:38:36Z</time></trkpt><trkpt lat="43.63628372463493" lon="7.133615623617052"><ele>12.0</ele><time>2026-04-29T16:38:37Z</time></trkpt><trkpt lat="43.636397871796284" lon="7.133604743148958"><ele>12.0</ele><time>2026-04-29T16:38:38Z</time></trkpt><trkpt lat="43.63651126610052" lon="7.133587349011626"><ele>12.0</ele><time>2026-04-29T16:38:39Z</time></trkpt><trkpt lat="43.63662374298005" lon="7.133570922197517"><ele>12.0</ele><time>2026-04-29T16:38:40Z</time></trkpt><trkpt lat="43.63673660685501" lon="7.133557158249046"><ele>12.0</ele><time>2026-04-29T16:38:41Z</time></trkpt><trkpt lat="43.63683507934562" lon="7.133514918071587"><ele>12.0</ele><time>2026-04-29T16:38:42Z</time></trkpt><trkpt lat="43.63693124826523" lon="7.133605692469823"><ele>12.0</ele><time>2026-04-29T16:38:43Z</time></trkpt><trkpt lat="43.63702230874986" lon="7.133665993385711"><ele>12.333333333333334</ele><time>2026-04-29T16:38:44Z</time></trkpt><trkpt lat="43.63709483954038" lon="7.13374231596164"><ele>12.666666666666668</ele><time>2026-04-29T16:38:45Z</time></trkpt><trkpt lat="43.637162563788955" lon="7.133817642065551"><ele>13.0</ele><time>2026-04-29T16:38:46Z</time></trkpt><trkpt lat="43.63721316406567" lon="7.133883665462283"><ele>13.333333333333334</ele><time>2026-04-29T16:38:47Z</time></trkpt><trkpt lat="43.63726135228395" lon="7.133949957233933"><ele>13.666666666666668</ele><time>2026-04-29T16:38:48Z</time></trkpt><trkpt lat="43.63733426868761" lon="7.1340495710066225"><ele>14.0</ele><time>2026-04-29T16:38:50Z</time></trkpt><trkpt lat="43.637396874160494" lon="7.134137537380341"><ele>14.0</ele><time>2026-04-29T16:38:53Z</time></trkpt><trkpt lat="43.63744992110183" lon="7.134211301376447"><ele>13.999999999999998</ele><time>2026-04-29T16:38:55Z</time></trkpt><trkpt lat="43.637548501787485" lon="7.134329928624075"><ele>13.999999999999998</ele><time>2026-04-29T16:38:57Z</time></trkpt><trkpt lat="43.63757622922169" lon="7.134448804070519"><ele>14.0</ele><time>2026-04-29T16:38:58Z</time></trkpt><trkpt lat="43.637625380343714" lon="7.1345514871274185"><ele>14.0</ele><time>2026-04-29T16:38:59Z</time></trkpt><trkpt lat="43.637678763433286" lon="7.134660939703456"><ele>14.0</ele><time>2026-04-29T16:39:00Z</time></trkpt><trkpt lat="43.63773537420285" lon="7.1347771864240555"><ele>13.999999999999998</ele><time>2026-04-29T16:39:01Z</time></trkpt><trkpt lat="43.63779603470972" lon="7.134901846842654"><ele>13.999999999999998</ele><time>2026-04-29T16:39:02Z</time></trkpt><trkpt lat="43.637855898054106" lon="7.135030363293037"><ele>14.0</ele><time>2026-04-29T16:39:03Z</time></trkpt><trkpt lat="43.6379128962848" lon="7.135153445812905"><ele>14.0</ele><time>2026-04-29T16:39:04Z</time></trkpt><trkpt lat="43.637971122596355" lon="7.135280667147276"><ele>13.799999999999999</ele><time>2026-04-29T16:39:05Z</time></trkpt><trkpt lat="43.6380348118433" lon="7.1354110704102895"><ele>13.599999999999998</ele><time>2026-04-29T16:39:06Z</time></trkpt><trkpt lat="43.63809944277876" lon="7.135537048162355"><ele>13.4</ele><time>2026-04-29T16:39:07Z</time></trkpt><trkpt lat="43.63816127144064" lon="7.135666314522119"><ele>13.2</ele><time>2026-04-29T16:39:08Z</time></trkpt><trkpt lat="43.63822195452729" lon="7.135793298231715"><ele>13.0</ele><time>2026-04-29T16:39:09Z</time></trkpt><trkpt lat="43.6382816891683" lon="7.135922561536332"><ele>12.4</ele><time>2026-04-29T16:39:10Z</time></trkpt><trkpt lat="43.6383382078981" lon="7.136046508873767"><ele>11.8</ele><time>2026-04-29T16:39:11Z</time></trkpt><trkpt lat="43.63839271635849" lon="7.1361691627110115"><ele>11.2</ele><time>2026-04-29T16:39:12Z</time></trkpt><trkpt lat="43.638447973871344" lon="7.136300137732127"><ele>10.6</ele><time>2026-04-29T16:39:13Z</time></trkpt><trkpt lat="43.63850163833674" lon="7.136422992983435"><ele>10.0</ele><time>2026-04-29T16:39:14Z</time></trkpt><trkpt lat="43.6385516489384" lon="7.136547774513707"><ele>9.8</ele><time>2026-04-29T16:39:15Z</time></trkpt><trkpt lat="43.6386036356138" lon="7.136670346281469"><ele>9.6</ele><time>2026-04-29T16:39:16Z</time></trkpt><trkpt lat="43.6386579453288" lon="7.13678674080505"><ele>9.4</ele><time>2026-04-29T16:39:17Z</time></trkpt><trkpt lat="43.63870893844814" lon="7.1369039869596955"><ele>9.2</ele><time>2026-04-29T16:39:18Z</time></trkpt><trkpt lat="43.638756200485474" lon="7.137020236529437"><ele>9.0</ele><time>2026-04-29T16:39:19Z</time></trkpt><trkpt lat="43.63880444446407" lon="7.137135427300875"><ele>9.0</ele><time>2026-04-29T16:39:20Z</time></trkpt><trkpt lat="43.63885231384837" lon="7.137247932708268"><ele>9.0</ele><time>2026-04-29T16:39:21Z</time></trkpt><trkpt lat="43.638895024541974" lon="7.13735358345315"><ele>9.0</ele><time>2026-04-29T16:39:22Z</time></trkpt><trkpt lat="43.638933147590464" lon="7.137440335170231"><ele>9.0</ele><time>2026-04-29T16:39:23Z</time></trkpt><trkpt lat="43.6389922493704" lon="7.137565907141508"><ele>9.0</ele><time>2026-04-29T16:39:25Z</time></trkpt><trkpt lat="43.63904260892877" lon="7.137661702296054"><ele>8.714285714285715</ele><time>2026-04-29T16:39:27Z</time></trkpt><trkpt lat="43.63907779328751" lon="7.137738083218838"><ele>8.428571428571429</ele><time>2026-04-29T16:39:30Z</time></trkpt><trkpt lat="43.63912438767187" lon="7.1378492350621014"><ele>8.142857142857142</ele><time>2026-04-29T16:40:01Z</time></trkpt><trkpt lat="43.63915791078102" lon="7.137932924039808"><ele>7.857142857142858</ele><time>2026-04-29T16:40:02Z</time></trkpt><trkpt lat="43.63919146493834" lon="7.138017138306202"><ele>7.571428571428571</ele><time>2026-04-29T16:40:03Z</time></trkpt><trkpt lat="43.63922543669561" lon="7.13809738939704"><ele>7.285714285714286</ele><time>2026-04-29T16:40:04Z</time></trkpt><trkpt lat="43.63925925678567" lon="7.13817140356321"><ele>7.0</ele><time>2026-04-29T16:40:05Z</time></trkpt><trkpt lat="43.63931140071798" lon="7.138285266832357"><ele>7.0</ele><time>2026-04-29T16:40:07Z</time></trkpt><trkpt lat="43.63934460850206" lon="7.138361399164069"><ele>6.999999999999999</ele><time>2026-04-29T16:40:09Z</time></trkpt><trkpt lat="43.63938897632369" lon="7.138431007914394"><ele>6.999999999999999</ele><time>2026-04-29T16:40:35Z</time></trkpt><trkpt lat="43.63947003038325" lon="7.138570203886515"><ele>7.0</ele><time>2026-04-29T16:40:37Z</time></trkpt><trkpt lat="43.6395236416661" lon="7.138667868000142"><ele>7.0</ele><time>2026-04-29T16:40:38Z</time></trkpt><trkpt lat="43.6395821127054" lon="7.138783302857997"><ele>7.0</ele><time>2026-04-29T16:40:39Z</time></trkpt><trkpt lat="43.63964132155973" lon="7.138904072367823"><ele>6.999999999999999</ele><time>2026-04-29T16:40:40Z</time></trkpt><trkpt lat="43.63970112145652" lon="7.139028144707955"><ele>6.999999999999999</ele><time>2026-04-29T16:40:41Z</time></trkpt><trkpt lat="43.639765638567035" lon="7.139158255837826"><ele>7.0</ele><time>2026-04-29T16:40:42Z</time></trkpt><trkpt lat="43.639831764725045" lon="7.139276411149456"><ele>7.0</ele><time>2026-04-29T16:40:43Z</time></trkpt><trkpt lat="43.639889478485436" lon="7.139392939735696"><ele>7.000000000000001</ele><time>2026-04-29T16:40:44Z</time></trkpt><trkpt lat="43.63993641969351" lon="7.139502440142358"><ele>7.0</ele><time>2026-04-29T16:40:45Z</time></trkpt><trkpt lat="43.63997695576628" lon="7.139602452987483"><ele>7.0</ele><time>2026-04-29T16:40:46Z</time></trkpt><trkpt lat="43.640037785042736" lon="7.139671236832643"><ele>7.0</ele><time>2026-04-29T16:40:47Z</time></trkpt><trkpt lat="43.64009572655079" lon="7.1397800116647465"><ele>7.000000000000001</ele><time>2026-04-29T16:40:49Z</time></trkpt><trkpt lat="43.64014957738538" lon="7.139886555962258"><ele>7.0</ele><time>2026-04-29T16:40:50Z</time></trkpt><trkpt lat="43.64021172806313" lon="7.140022070653112"><ele>7.0</ele><time>2026-04-29T16:40:51Z</time></trkpt><trkpt lat="43.64027066351663" lon="7.140174346240561"><ele>7.0</ele><time>2026-04-29T16:40:52Z</time></trkpt><trkpt lat="43.64033768063343" lon="7.140336053379694"><ele>7.0</ele><time>2026-04-29T16:40:53Z</time></trkpt><trkpt lat="43.640413439100996" lon="7.1404847687213575"><ele>7.0</ele><time>2026-04-29T16:40:54Z</time></trkpt><trkpt lat="43.64048255259854" lon="7.140639614121257"><ele>7.0</ele><time>2026-04-29T16:40:55Z</time></trkpt><trkpt lat="43.64055451277304" lon="7.1407805914277045"><ele>7.0</ele><time>2026-04-29T16:40:56Z</time></trkpt><trkpt lat="43.640629188493456" lon="7.140917755021571"><ele>7.0</ele><time>2026-04-29T16:40:57Z</time></trkpt><trkpt lat="43.64070456509377" lon="7.141052177565806"><ele>7.0</ele><time>2026-04-29T16:40:58Z</time></trkpt><trkpt lat="43.64077945799412" lon="7.141182919955412"><ele>7.0</ele><time>2026-04-29T16:40:59Z</time></trkpt><trkpt lat="43.64085414715848" lon="7.141313316662186"><ele>7.0</ele><time>2026-04-29T16:41:00Z</time></trkpt><trkpt lat="43.640932104425204" lon="7.141445414272124"><ele>7.0</ele><time>2026-04-29T16:41:01Z</time></trkpt><trkpt lat="43.64100015133242" lon="7.141567688504966"><ele>7.0</ele><time>2026-04-29T16:41:02Z</time></trkpt><trkpt lat="43.64105990885436" lon="7.141678069802286"><ele>7.000000000000001</ele><time>2026-04-29T16:41:03Z</time></trkpt><trkpt lat="43.64111873958735" lon="7.141769596238378"><ele>7.0</ele><time>2026-04-29T16:41:04Z</time></trkpt><trkpt lat="43.641172943620624" lon="7.141856406120829"><ele>7.0</ele><time>2026-04-29T16:41:05Z</time></trkpt><trkpt lat="43.6412205452844" lon="7.141927365971963"><ele>7.0</ele><time>2026-04-29T16:41:06Z</time></trkpt><trkpt lat="43.64129121254147" lon="7.142010210744903"><ele>7.000000000000001</ele><time>2026-04-29T16:41:08Z</time></trkpt><trkpt lat="43.641352538148396" lon="7.142092427657871"><ele>7.0</ele><time>2026-04-29T16:41:11Z</time></trkpt><trkpt lat="43.641434590400024" lon="7.1421859226527085"><ele>6.3999999999999995</ele><time>2026-04-29T16:41:47Z</time></trkpt><trkpt lat="43.641501807974244" lon="7.1422634543981385"><ele>5.799999999999999</ele><time>2026-04-29T16:41:48Z</time></trkpt><trkpt lat="43.64156432201452" lon="7.142340279060247"><ele>5.2</ele><time>2026-04-29T16:41:49Z</time></trkpt><trkpt lat="43.641638759600944" lon="7.142428017759334"><ele>4.6</ele><time>2026-04-29T16:41:50Z</time></trkpt><trkpt lat="43.64172434607227" lon="7.142520989746979"><ele>4.0</ele><time>2026-04-29T16:41:51Z</time></trkpt><trkpt lat="43.641816888427904" lon="7.142624876685316"><ele>4.0</ele><time>2026-04-29T16:41:52Z</time></trkpt><trkpt lat="43.64190814780831" lon="7.142730400755597"><ele>4.0</ele><time>2026-04-29T16:41:53Z</time></trkpt><trkpt lat="43.64200121654239" lon="7.142830571089187"><ele>4.0</ele><time>2026-04-29T16:41:54Z</time></trkpt><trkpt lat="43.64209789624551" lon="7.142938054579005"><ele>4.0</ele><time>2026-04-29T16:41:55Z</time></trkpt><trkpt lat="43.64219385195039" lon="7.1430498098756265"><ele>4.0</ele><time>2026-04-29T16:41:56Z</time></trkpt><trkpt lat="43.6422891431669" lon="7.143163294948445"><ele>4.0</ele><time>2026-04-29T16:41:57Z</time></trkpt><trkpt lat="43.642384667046635" lon="7.143275517568578"><ele>4.0</ele><time>2026-04-29T16:41:58Z</time></trkpt><trkpt lat="43.64248171616773" lon="7.143387492126346"><ele>4.0</ele><time>2026-04-29T16:41:59Z</time></trkpt><trkpt lat="43.64257238244847" lon="7.143491646613628"><ele>4.0</ele><time>2026-04-29T16:42:00Z</time></trkpt><trkpt lat="43.64265669902394" lon="7.143588140448484"><ele>4.0</ele><time>2026-04-29T16:42:01Z</time></trkpt><trkpt lat="43.64273773529072" lon="7.143679488987139"><ele>4.0</ele><time>2026-04-29T16:42:02Z</time></trkpt><trkpt lat="43.64282162844075" lon="7.1437839731049495"><ele>4.0</ele><time>2026-04-29T16:42:03Z</time></trkpt><trkpt lat="43.642913030791796" lon="7.1438838404311955"><ele>4.0</ele><time>2026-04-29T16:42:04Z</time></trkpt><trkpt lat="43.64300040249697" lon="7.14398306566304"><ele>4.0</ele><time>2026-04-29T16:42:05Z</time></trkpt><trkpt lat="43.64308296258652" lon="7.144077863757361"><ele>4.0</ele><time>2026-04-29T16:42:06Z</time></trkpt><trkpt lat="43.643159174062795" lon="7.144172479134573"><ele>4.0</ele><time>2026-04-29T16:42:07Z</time></trkpt><trkpt lat="43.64323592690108" lon="7.144267928158193"><ele>4.0</ele><time>2026-04-29T16:42:08Z</time></trkpt><trkpt lat="43.643311869063616" lon="7.144361556410191"><ele>4.0</ele><time>2026-04-29T16:42:09Z</time></trkpt><trkpt lat="43.643392320702425" lon="7.144460255562204"><ele>4.0</ele><time>2026-04-29T16:42:10Z</time></trkpt><trkpt lat="43.64347083971831" lon="7.14455265638811"><ele>4.0</ele><time>2026-04-29T16:42:11Z</time></trkpt><trkpt lat="43.6435483822511" lon="7.144632655534306"><ele>4.0</ele><time>2026-04-29T16:42:12Z</time></trkpt><trkpt lat="43.64362889093253" lon="7.1446932191771095"><ele>4.0</ele><time>2026-04-29T16:42:13Z</time></trkpt><trkpt lat="43.64371352962838" lon="7.144719781635961"><ele>4.0</ele><time>2026-04-29T16:42:14Z</time></trkpt><trkpt lat="43.64380897592048" lon="7.144725453156827"><ele>4.2</ele><time>2026-04-29T16:42:15Z</time></trkpt><trkpt lat="43.64391493589772" lon="7.144725857886269"><ele>4.4</ele><time>2026-04-29T16:42:16Z</time></trkpt><trkpt lat="43.64402440556995" lon="7.144729191963097"><ele>4.6</ele><time>2026-04-29T16:42:17Z</time></trkpt><trkpt lat="43.64413338758117" lon="7.1447425079711655"><ele>4.8</ele><time>2026-04-29T16:42:18Z</time></trkpt><trkpt lat="43.64423801132816" lon="7.144780161423158"><ele>5.0</ele><time>2026-04-29T16:42:19Z</time></trkpt><trkpt lat="43.64433858507138" lon="7.144841080801018"><ele>5.0</ele><time>2026-04-29T16:42:20Z</time></trkpt><trkpt lat="43.644429254972344" lon="7.144938398413331"><ele>5.0</ele><time>2026-04-29T16:42:21Z</time></trkpt><trkpt lat="43.6445075569038" lon="7.1450572356562105"><ele>5.0</ele><time>2026-04-29T16:42:22Z</time></trkpt><trkpt lat="43.644574142945785" lon="7.14520363898592"><ele>5.0</ele><time>2026-04-29T16:42:23Z</time></trkpt><trkpt lat="43.644636008783515" lon="7.145363112059263"><ele>5.25</ele><time>2026-04-29T16:42:24Z</time></trkpt><trkpt lat="43.644696477252985" lon="7.145522806867292"><ele>5.5</ele><time>2026-04-29T16:42:25Z</time></trkpt><trkpt lat="43.64475964172387" lon="7.145673638519885"><ele>5.75</ele><time>2026-04-29T16:42:26Z</time></trkpt><trkpt lat="43.64482729903375" lon="7.1458116909630425"><ele>6.0</ele><time>2026-04-29T16:42:27Z</time></trkpt><trkpt lat="43.64490472533128" lon="7.145941808684199"><ele>6.0</ele><time>2026-04-29T16:42:28Z</time></trkpt><trkpt lat="43.64499265730822" lon="7.146054955808853"><ele>6.0</ele><time>2026-04-29T16:42:29Z</time></trkpt><trkpt lat="43.645090306452346" lon="7.146155775654373"><ele>6.0</ele><time>2026-04-29T16:42:30Z</time></trkpt><trkpt lat="43.645191867782515" lon="7.146248605123066"><ele>6.0</ele><time>2026-04-29T16:42:31Z</time></trkpt><trkpt lat="43.64529302783481" lon="7.146340998132595"><ele>5.5</ele><time>2026-04-29T16:42:32Z</time></trkpt><trkpt lat="43.645394011263654" lon="7.146435244619801"><ele>5.0</ele><time>2026-04-29T16:42:33Z</time></trkpt><trkpt lat="43.64549208423888" lon="7.146523656829419"><ele>4.5</ele><time>2026-04-29T16:42:34Z</time></trkpt><trkpt lat="43.64558730175335" lon="7.146614705921058"><ele>4.0</ele><time>2026-04-29T16:42:35Z</time></trkpt><trkpt lat="43.645678055182465" lon="7.146702630679838"><ele>4.0</ele><time>2026-04-29T16:42:36Z</time></trkpt><trkpt lat="43.64576645370396" lon="7.146790548720749"><ele>4.0</ele><time>2026-04-29T16:42:37Z</time></trkpt><trkpt lat="43.64585529850058" lon="7.146876874760977"><ele>4.0</ele><time>2026-04-29T16:42:38Z</time></trkpt><trkpt lat="43.64594017166588" lon="7.146961288484829"><ele>4.0</ele><time>2026-04-29T16:42:39Z</time></trkpt><trkpt lat="43.64603053196579" lon="7.14704235517938"><ele>4.0</ele><time>2026-04-29T16:42:40Z</time></trkpt><trkpt lat="43.646131444923874" lon="7.1471252658795885"><ele>4.0</ele><time>2026-04-29T16:42:41Z</time></trkpt><trkpt lat="43.64623408622723" lon="7.147217312586417"><ele>4.0</ele><time>2026-04-29T16:42:42Z</time></trkpt><trkpt lat="43.64633470102268" lon="7.147314944939168"><ele>4.0</ele><time>2026-04-29T16:42:43Z</time></trkpt><trkpt lat="43.64643241628369" lon="7.14740794415943"><ele>4.0</ele><time>2026-04-29T16:42:44Z</time></trkpt><trkpt lat="43.64652554673545" lon="7.147498465087268"><ele>4.2</ele><time>2026-04-29T16:42:45Z</time></trkpt><trkpt lat="43.64661425707454" lon="7.147586826654384"><ele>4.4</ele><time>2026-04-29T16:42:46Z</time></trkpt><trkpt lat="43.64670466753404" lon="7.147675302189406"><ele>4.6</ele><time>2026-04-29T16:42:47Z</time></trkpt><trkpt lat="43.64679373156399" lon="7.14776190806092"><ele>4.8</ele><time>2026-04-29T16:42:48Z</time></trkpt><trkpt lat="43.64688221802177" lon="7.147846756398899"><ele>5.0</ele><time>2026-04-29T16:42:49Z</time></trkpt><trkpt lat="43.646967813724736" lon="7.1479280765094035"><ele>5.0</ele><time>2026-04-29T16:42:50Z</time></trkpt><trkpt lat="43.6470505150666" lon="7.148005371053816"><ele>5.0</ele><time>2026-04-29T16:42:51Z</time></trkpt><trkpt lat="43.647134682662006" lon="7.148080281592731"><ele>5.0</ele><time>2026-04-29T16:42:52Z</time></trkpt><trkpt lat="43.64722640682454" lon="7.148164781713392"><ele>5.0</ele><time>2026-04-29T16:42:53Z</time></trkpt><trkpt lat="43.64732017739043" lon="7.148256427260892"><ele>5.0</ele><time>2026-04-29T16:42:54Z</time></trkpt><trkpt lat="43.64741569675677" lon="7.148351698407996"><ele>5.0</ele><time>2026-04-29T16:42:55Z</time></trkpt><trkpt lat="43.647508551468185" lon="7.148446252326044"><ele>5.0</ele><time>2026-04-29T16:42:56Z</time></trkpt><trkpt lat="43.64759941312598" lon="7.148541482775208"><ele>5.0</ele><time>2026-04-29T16:42:57Z</time></trkpt><trkpt lat="43.64768779357013" lon="7.148633764084921"><ele>5.0</ele><time>2026-04-29T16:42:58Z</time></trkpt><trkpt lat="43.64776528759619" lon="7.148714392779096"><ele>5.0</ele><time>2026-04-29T16:42:59Z</time></trkpt><trkpt lat="43.64783530307235" lon="7.14878553433003"><ele>5.0</ele><time>2026-04-29T16:43:00Z</time></trkpt><trkpt lat="43.64790139349918" lon="7.148849448252051"><ele>5.0</ele><time>2026-04-29T16:43:01Z</time></trkpt><trkpt lat="43.64796763300125" lon="7.148915464091365"><ele>5.0</ele><time>2026-04-29T16:43:02Z</time></trkpt><trkpt lat="43.64803311819951" lon="7.1489823841428795"><ele>5.0</ele><time>2026-04-29T16:43:03Z</time></trkpt><trkpt lat="43.64808500123931" lon="7.1490382626677595"><ele>5.0</ele><time>2026-04-29T16:43:04Z</time></trkpt><trkpt lat="43.6481840765725" lon="7.149135352549332"><ele>5.0</ele><time>2026-04-29T16:43:06Z</time></trkpt><trkpt lat="43.648243282020765" lon="7.149189386838185"><ele>4.6</ele><time>2026-04-29T16:43:07Z</time></trkpt><trkpt lat="43.648304080838024" lon="7.149245162403149"><ele>4.2</ele><time>2026-04-29T16:43:08Z</time></trkpt><trkpt lat="43.64835957645786" lon="7.149299219291925"><ele>3.8</ele><time>2026-04-29T16:43:09Z</time></trkpt><trkpt lat="43.64845326335064" lon="7.149402381546634"><ele>3.4</ele><time>2026-04-29T16:43:11Z</time></trkpt><trkpt lat="43.64854425005631" lon="7.149499554663901"><ele>3.0</ele><time>2026-04-29T16:43:13Z</time></trkpt><trkpt lat="43.64864817527189" lon="7.14961148773736"><ele>2.9999999999999996</ele><time>2026-04-29T16:43:15Z</time></trkpt><trkpt lat="43.64870124824628" lon="7.1496681901071995"><ele>3.0</ele><time>2026-04-29T16:43:16Z</time></trkpt><trkpt lat="43.64874944470456" lon="7.14972613401646"><ele>3.0</ele><time>2026-04-29T16:43:17Z</time></trkpt><trkpt lat="43.6487980629598" lon="7.149784784661449"><ele>3.0</ele><time>2026-04-29T16:43:18Z</time></trkpt><trkpt lat="43.64884981062952" lon="7.149840986551105"><ele>3.0</ele><time>2026-04-29T16:43:19Z</time></trkpt><trkpt lat="43.648903790560794" lon="7.1499046266761885"><ele>2.9999999999999996</ele><time>2026-04-29T16:43:20Z</time></trkpt><trkpt lat="43.64895529595294" lon="7.14996472188433"><ele>3.0</ele><time>2026-04-29T16:43:21Z</time></trkpt><trkpt lat="43.649006465037594" lon="7.150027499332968"><ele>2.9999999999999996</ele><time>2026-04-29T16:43:22Z</time></trkpt><trkpt lat="43.64905972492324" lon="7.150095674437422"><ele>3.0</ele><time>2026-04-29T16:43:23Z</time></trkpt><trkpt lat="43.64911120009067" lon="7.1501592428882015"><ele>3.0</ele><time>2026-04-29T16:43:24Z</time></trkpt><trkpt lat="43.64916471368718" lon="7.150223392975711"><ele>3.0</ele><time>2026-04-29T16:43:25Z</time></trkpt><trkpt lat="43.649216950843574" lon="7.150283697645415"><ele>3.0</ele><time>2026-04-29T16:43:26Z</time></trkpt><trkpt lat="43.64927136607322" lon="7.150345115919187"><ele>2.9999999999999996</ele><time>2026-04-29T16:43:27Z</time></trkpt><trkpt lat="43.649327368291594" lon="7.15040606660651"><ele>3.0</ele><time>2026-04-29T16:43:28Z</time></trkpt><trkpt lat="43.6493874691961" lon="7.150475510902161"><ele>3.0</ele><time>2026-04-29T16:43:29Z</time></trkpt><trkpt lat="43.64944947691718" lon="7.150543668727881"><ele>3.0</ele><time>2026-04-29T16:43:30Z</time></trkpt><trkpt lat="43.64951008344743" lon="7.150613374950851"><ele>3.0</ele><time>2026-04-29T16:43:31Z</time></trkpt><trkpt lat="43.64957094781132" lon="7.150690206327383"><ele>3.0</ele><time>2026-04-29T16:43:32Z</time></trkpt><trkpt lat="43.64963044745889" lon="7.150763258725285"><ele>3.0</ele><time>2026-04-29T16:43:33Z</time></trkpt><trkpt lat="43.64969128099217" lon="7.150833930268173"><ele>3.0</ele><time>2026-04-29T16:43:34Z</time></trkpt><trkpt lat="43.64975277211409" lon="7.1509023282025845"><ele>2.8333333333333335</ele><time>2026-04-29T16:43:35Z</time></trkpt><trkpt lat="43.64981719617859" lon="7.15097151253635"><ele>2.6666666666666665</ele><time>2026-04-29T16:43:36Z</time></trkpt><trkpt lat="43.64988653639702" lon="7.151036362109721"><ele>2.5</ele><time>2026-04-29T16:43:37Z</time></trkpt><trkpt lat="43.649960326333236" lon="7.151098176685934"><ele>2.333333333333333</ele><time>2026-04-29T16:43:38Z</time></trkpt><trkpt lat="43.6500337053759" lon="7.151150016221384"><ele>2.1666666666666665</ele><time>2026-04-29T16:43:39Z</time></trkpt><trkpt lat="43.650105627933215" lon="7.15119699430421"><ele>2.0</ele><time>2026-04-29T16:43:40Z</time></trkpt><trkpt lat="43.650164230286045" lon="7.151243480888361"><ele>1.9999999999999998</ele><time>2026-04-29T16:43:41Z</time></trkpt><trkpt lat="43.65021596481454" lon="7.151295286914267"><ele>2.0</ele><time>2026-04-29T16:43:42Z</time></trkpt><trkpt lat="43.65030499703772" lon="7.151393589775145"><ele>2.0</ele><time>2026-04-29T16:43:44Z</time></trkpt><trkpt lat="43.65037775120992" lon="7.151485678020972"><ele>2.0</ele><time>2026-04-29T16:43:46Z</time></trkpt><trkpt lat="43.650435990183716" lon="7.151576623040617"><ele>1.9999999999999998</ele><time>2026-04-29T16:43:48Z</time></trkpt><trkpt lat="43.65047748747421" lon="7.151642941312474"><ele>2.0</ele><time>2026-04-29T16:43:50Z</time></trkpt><trkpt lat="43.65052166176708" lon="7.1517158073887375"><ele>2.6</ele><time>2026-04-29T16:43:56Z</time></trkpt><trkpt lat="43.65056378512744" lon="7.151812881578662"><ele>3.2</ele><time>2026-04-29T16:44:06Z</time></trkpt><trkpt lat="43.65059884680265" lon="7.151898018324782"><ele>3.8</ele><time>2026-04-29T16:44:08Z</time></trkpt><trkpt lat="43.65065100850242" lon="7.152026568722908"><ele>4.4</ele><time>2026-04-29T16:44:10Z</time></trkpt><trkpt lat="43.650710095700106" lon="7.152175591893103"><ele>5.0</ele><time>2026-04-29T16:44:12Z</time></trkpt><trkpt lat="43.650745139589816" lon="7.1522585467140996"><ele>5.0</ele><time>2026-04-29T16:44:13Z</time></trkpt><trkpt lat="43.65078876365892" lon="7.152350880009057"><ele>5.0</ele><time>2026-04-29T16:44:14Z</time></trkpt><trkpt lat="43.65083978644607" lon="7.152436222432559"><ele>5.0</ele><time>2026-04-29T16:44:15Z</time></trkpt><trkpt lat="43.65090108397528" lon="7.152523640003287"><ele>5.0</ele><time>2026-04-29T16:44:16Z</time></trkpt><trkpt lat="43.65096516077496" lon="7.152612852642632"><ele>5.0</ele><time>2026-04-29T16:44:17Z</time></trkpt><trkpt lat="43.65103140057199" lon="7.1526980476143995"><ele>5.0</ele><time>2026-04-29T16:44:18Z</time></trkpt><trkpt lat="43.65109147897282" lon="7.152768619346766"><ele>6.0</ele><time>2026-04-29T16:44:19Z</time></trkpt><trkpt lat="43.65114689204845" lon="7.15283084524387"><ele>7.0</ele><time>2026-04-29T16:44:20Z</time></trkpt><trkpt lat="43.65119653550648" lon="7.1528884537490836"><ele>8.0</ele><time>2026-04-29T16:44:21Z</time></trkpt><trkpt lat="43.65128320364588" lon="7.153006650621731"><ele>9.0</ele><time>2026-04-29T16:44:23Z</time></trkpt><trkpt lat="43.65137619952027" lon="7.153130782014834"><ele>10.0</ele><time>2026-04-29T16:44:25Z</time></trkpt><trkpt lat="43.65142981097348" lon="7.153179253104542"><ele>10.285714285714285</ele><time>2026-04-29T16:44:26Z</time></trkpt><trkpt lat="43.651472467414834" lon="7.153248050336742"><ele>10.571428571428571</ele><time>2026-04-29T16:44:27Z</time></trkpt><trkpt lat="43.65151807683668" lon="7.153309508819985"><ele>10.857142857142858</ele><time>2026-04-29T16:44:28Z</time></trkpt><trkpt lat="43.651567435038785" lon="7.153373285652346"><ele>11.142857142857142</ele><time>2026-04-29T16:44:29Z</time></trkpt><trkpt lat="43.651623959514495" lon="7.153448181394016"><ele>11.428571428571429</ele><time>2026-04-29T16:44:30Z</time></trkpt><trkpt lat="43.65167322251457" lon="7.153514521862435"><ele>11.714285714285714</ele><time>2026-04-29T16:44:31Z</time></trkpt><trkpt lat="43.65172191141323" lon="7.153576984739286"><ele>12.0</ele><time>2026-04-29T16:44:32Z</time></trkpt><trkpt lat="43.651774139891714" lon="7.153640764986111"><ele>11.999999999999998</ele><time>2026-04-29T16:44:33Z</time></trkpt><trkpt lat="43.65181986180282" lon="7.153707259178612"><ele>12.0</ele><time>2026-04-29T16:44:34Z</time></trkpt><trkpt lat="43.6518694627171" lon="7.153774292563868"><ele>12.0</ele><time>2026-04-29T16:44:35Z</time></trkpt><trkpt lat="43.65192197365843" lon="7.153836028584316"><ele>12.0</ele><time>2026-04-29T16:44:36Z</time></trkpt><trkpt lat="43.6519712081467" lon="7.153900642267046"><ele>12.0</ele><time>2026-04-29T16:44:37Z</time></trkpt><trkpt lat="43.65202157993364" lon="7.153971931109265"><ele>11.999999999999998</ele><time>2026-04-29T16:44:38Z</time></trkpt><trkpt lat="43.652071498748896" lon="7.1540410651378075"><ele>12.0</ele><time>2026-04-29T16:44:39Z</time></trkpt><trkpt lat="43.65211473783924" lon="7.154130698282826"><ele>12.399999999999999</ele><time>2026-04-29T16:44:40Z</time></trkpt><trkpt lat="43.65220818835733" lon="7.15423494748447"><ele>12.799999999999999</ele><time>2026-04-29T16:44:42Z</time></trkpt><trkpt lat="43.65228426801579" lon="7.154343499141007"><ele>13.2</ele><time>2026-04-29T16:44:44Z</time></trkpt><trkpt lat="43.65235639932321" lon="7.154445496308692"><ele>13.6</ele><time>2026-04-29T16:44:46Z</time></trkpt><trkpt lat="43.65241728575963" lon="7.154524874570381"><ele>14.0</ele><time>2026-04-29T16:44:49Z</time></trkpt><trkpt lat="43.652475754610286" lon="7.154594327728612"><ele>14.000000000000002</ele><time>2026-04-29T16:45:16Z</time></trkpt><trkpt lat="43.65253831037531" lon="7.15469095150241"><ele>14.0</ele><time>2026-04-29T16:45:18Z</time></trkpt><trkpt lat="43.65258144582675" lon="7.154754521462794"><ele>14.0</ele><time>2026-04-29T16:45:19Z</time></trkpt><trkpt lat="43.652627766068676" lon="7.154820700493624"><ele>14.0</ele><time>2026-04-29T16:45:20Z</time></trkpt><trkpt lat="43.65267110979177" lon="7.1548839806360025"><ele>14.000000000000002</ele><time>2026-04-29T16:45:21Z</time></trkpt><trkpt lat="43.65276011615877" lon="7.155020111169832"><ele>14.0</ele><time>2026-04-29T16:45:23Z</time></trkpt><trkpt lat="43.65280862396656" lon="7.155097606188639"><ele>12.333333333333334</ele><time>2026-04-29T16:45:24Z</time></trkpt><trkpt lat="43.65286314165963" lon="7.155185301724113"><ele>10.666666666666668</ele><time>2026-04-29T16:45:25Z</time></trkpt><trkpt lat="43.652918706898994" lon="7.155270580514056"><ele>9.0</ele><time>2026-04-29T16:45:26Z</time></trkpt><trkpt lat="43.65297093234997" lon="7.1553518038419375"><ele>7.333333333333334</ele><time>2026-04-29T16:45:27Z</time></trkpt><trkpt lat="43.653024554611555" lon="7.1554342811811145"><ele>5.666666666666666</ele><time>2026-04-29T16:45:28Z</time></trkpt><trkpt lat="43.65308282905092" lon="7.155521969029821"><ele>4.0</ele><time>2026-04-29T16:45:29Z</time></trkpt><trkpt lat="43.653135405912934" lon="7.155611656838936"><ele>3.9999999999999996</ele><time>2026-04-29T16:45:30Z</time></trkpt><trkpt lat="43.6531857363414" lon="7.15569669999619"><ele>4.0</ele><time>2026-04-29T16:45:31Z</time></trkpt><trkpt lat="43.6532348746859" lon="7.155775006740622"><ele>4.0</ele><time>2026-04-29T16:45:32Z</time></trkpt><trkpt lat="43.653275638061885" lon="7.15584701113718"><ele>4.0</ele><time>2026-04-29T16:45:33Z</time></trkpt><trkpt lat="43.6533478436083" lon="7.155975248598286"><ele>3.9999999999999996</ele><time>2026-04-29T16:45:35Z</time></trkpt><trkpt lat="43.65338838974884" lon="7.156049232313041"><ele>4.0</ele><time>2026-04-29T16:45:36Z</time></trkpt><trkpt lat="43.65343087887065" lon="7.156128007636658"><ele>3.9999999999999996</ele><time>2026-04-29T16:45:37Z</time></trkpt><trkpt lat="43.65347480628142" lon="7.156212649859398"><ele>4.0</ele><time>2026-04-29T16:45:38Z</time></trkpt><trkpt lat="43.65352940509412" lon="7.156302515149935"><ele>4.0</ele><time>2026-04-29T16:45:39Z</time></trkpt><trkpt lat="43.65358192942149" lon="7.156394809987663"><ele>4.0</ele><time>2026-04-29T16:45:40Z</time></trkpt><trkpt lat="43.6536331292633" lon="7.156492007291638"><ele>3.9999999999999996</ele><time>2026-04-29T16:45:41Z</time></trkpt><trkpt lat="43.65368298382308" lon="7.156584980138345"><ele>4.0</ele><time>2026-04-29T16:45:42Z</time></trkpt><trkpt lat="43.65372863032936" lon="7.156671618302199"><ele>4.666666666666666</ele><time>2026-04-29T16:45:43Z</time></trkpt><trkpt lat="43.65377338608479" lon="7.156756990971293"><ele>5.333333333333333</ele><time>2026-04-29T16:45:44Z</time></trkpt><trkpt lat="43.65381834202761" lon="7.156845876835554"><ele>6.0</ele><time>2026-04-29T16:45:45Z</time></trkpt><trkpt lat="43.65386402716927" lon="7.15693969224128"><ele>6.666666666666666</ele><time>2026-04-29T16:45:46Z</time></trkpt><trkpt lat="43.65390708459122" lon="7.157035420971758"><ele>7.333333333333333</ele><time>2026-04-29T16:45:47Z</time></trkpt><trkpt lat="43.65394991565829" lon="7.1571245692057"><ele>8.0</ele><time>2026-04-29T16:45:48Z</time></trkpt><trkpt lat="43.65399203298928" lon="7.1572158285281136"><ele>7.999999999999999</ele><time>2026-04-29T16:45:49Z</time></trkpt><trkpt lat="43.65403311735832" lon="7.157302049178744"><ele>8.0</ele><time>2026-04-29T16:45:50Z</time></trkpt><trkpt lat="43.65407555462038" lon="7.157388470010994"><ele>8.0</ele><time>2026-04-29T16:45:51Z</time></trkpt><trkpt lat="43.654117971049665" lon="7.157478527847329"><ele>8.0</ele><time>2026-04-29T16:45:52Z</time></trkpt><trkpt lat="43.65415999930059" lon="7.157571484329527"><ele>7.999999999999999</ele><time>2026-04-29T16:45:53Z</time></trkpt><trkpt lat="43.6542037968392" lon="7.157669768788691"><ele>8.0</ele><time>2026-04-29T16:45:54Z</time></trkpt><trkpt lat="43.65424694254161" lon="7.157765307567393"><ele>7.999999999999999</ele><time>2026-04-29T16:45:55Z</time></trkpt><trkpt lat="43.65429103827046" lon="7.157864934897374"><ele>8.0</ele><time>2026-04-29T16:45:56Z</time></trkpt><trkpt lat="43.65433386087554" lon="7.157969177690271"><ele>8.0</ele><time>2026-04-29T16:45:57Z</time></trkpt><trkpt lat="43.65438011402583" lon="7.158075375140862"><ele>8.0</ele><time>2026-04-29T16:45:58Z</time></trkpt><trkpt lat="43.65442203070292" lon="7.158177467170337"><ele>7.999999999999999</ele><time>2026-04-29T16:45:59Z</time></trkpt><trkpt lat="43.65446199402511" lon="7.158277585912377"><ele>8.0</ele><time>2026-04-29T16:46:00Z</time></trkpt><trkpt lat="43.65450170746726" lon="7.1583745052051775"><ele>7.999999999999999</ele><time>2026-04-29T16:46:01Z</time></trkpt><trkpt lat="43.65454190359888" lon="7.158470702283192"><ele>8.0</ele><time>2026-04-29T16:46:02Z</time></trkpt><trkpt lat="43.65458112569507" lon="7.158565440618448"><ele>8.0</ele><time>2026-04-29T16:46:03Z</time></trkpt><trkpt lat="43.65462204365694" lon="7.1586705192282425"><ele>8.0</ele><time>2026-04-29T16:46:04Z</time></trkpt><trkpt lat="43.65466607075355" lon="7.158782416838715"><ele>7.999999999999999</ele><time>2026-04-29T16:46:05Z</time></trkpt><trkpt lat="43.6547120136882" lon="7.158897644385731"><ele>8.0</ele><time>2026-04-29T16:46:06Z</time></trkpt><trkpt lat="43.65475726642471" lon="7.159009873771594"><ele>7.666666666666666</ele><time>2026-04-29T16:46:07Z</time></trkpt><trkpt lat="43.654802620997124" lon="7.159119007084899"><ele>7.333333333333333</ele><time>2026-04-29T16:46:08Z</time></trkpt><trkpt lat="43.654846257375716" lon="7.159228660913754"><ele>7.0</ele><time>2026-04-29T16:46:09Z</time></trkpt><trkpt lat="43.65488512586602" lon="7.159324650878594"><ele>6.666666666666666</ele><time>2026-04-29T16:46:10Z</time></trkpt><trkpt lat="43.6549369888176" lon="7.159459849724311"><ele>6.333333333333333</ele><time>2026-04-29T16:46:12Z</time></trkpt><trkpt lat="43.654970926886435" lon="7.159546371691783"><ele>6.0</ele><time>2026-04-29T16:46:14Z</time></trkpt><trkpt lat="43.655012820224655" lon="7.15967310248353"><ele>5.999999999999999</ele><time>2026-04-29T16:46:41Z</time></trkpt><trkpt lat="43.65506180993366" lon="7.159807051021591"><ele>6.0</ele><time>2026-04-29T16:46:43Z</time></trkpt><trkpt lat="43.65509387162099" lon="7.159892068074893"><ele>6.0</ele><time>2026-04-29T16:46:44Z</time></trkpt><trkpt lat="43.65512548094037" lon="7.159973534681565"><ele>6.0</ele><time>2026-04-29T16:46:45Z</time></trkpt><trkpt lat="43.65515789394658" lon="7.1600610421576025"><ele>6.0</ele><time>2026-04-29T16:46:46Z</time></trkpt><trkpt lat="43.65518673232128" lon="7.160143079289211"><ele>5.999999999999999</ele><time>2026-04-29T16:46:47Z</time></trkpt><trkpt lat="43.65521449267023" lon="7.160224996591431"><ele>6.0</ele><time>2026-04-29T16:46:48Z</time></trkpt><trkpt lat="43.655242719998846" lon="7.160308097392107"><ele>5.999999999999999</ele><time>2026-04-29T16:46:49Z</time></trkpt><trkpt lat="43.65527943355865" lon="7.160395399470773"><ele>6.0</ele><time>2026-04-29T16:46:50Z</time></trkpt><trkpt lat="43.655317426744084" lon="7.160489481537712"><ele>6.0</ele><time>2026-04-29T16:46:51Z</time></trkpt><trkpt lat="43.655353364838234" lon="7.160583612845189"><ele>6.0</ele><time>2026-04-29T16:46:52Z</time></trkpt><trkpt lat="43.655386919882794" lon="7.16067629965103"><ele>6.0</ele><time>2026-04-29T16:46:53Z</time></trkpt><trkpt lat="43.65542054908722" lon="7.160761936982448"><ele>5.999999999999999</ele><time>2026-04-29T16:46:54Z</time></trkpt><trkpt lat="43.65545515480373" lon="7.160850439641671"><ele>6.0</ele><time>2026-04-29T16:46:55Z</time></trkpt><trkpt lat="43.655492458393496" lon="7.16094081011672"><ele>5.833333333333333</ele><time>2026-04-29T16:46:56Z</time></trkpt><trkpt lat="43.65552549071878" lon="7.161026789074734"><ele>5.666666666666667</ele><time>2026-04-29T16:46:57Z</time></trkpt><trkpt lat="43.65555730956871" lon="7.161111878310052"><ele>5.5</ele><time>2026-04-29T16:46:58Z</time></trkpt><trkpt lat="43.65559208965372" lon="7.161204209281411"><ele>5.333333333333334</ele><time>2026-04-29T16:46:59Z</time></trkpt><trkpt lat="43.65562920103962" lon="7.161302087993393"><ele>5.166666666666667</ele><time>2026-04-29T16:47:00Z</time></trkpt><trkpt lat="43.65566748548928" lon="7.161398304078024"><ele>5.0</ele><time>2026-04-29T16:47:01Z</time></trkpt><trkpt lat="43.65570646700114" lon="7.161499987506774"><ele>4.833333333333334</ele><time>2026-04-29T16:47:02Z</time></trkpt><trkpt lat="43.65574908140678" lon="7.16160546483514"><ele>4.666666666666667</ele><time>2026-04-29T16:47:03Z</time></trkpt><trkpt lat="43.65578824752647" lon="7.161712561671038"><ele>4.5</ele><time>2026-04-29T16:47:04Z</time></trkpt><trkpt lat="43.6558269477962" lon="7.161814565418748"><ele>4.333333333333333</ele><time>2026-04-29T16:47:05Z</time></trkpt><trkpt lat="43.655864956713636" lon="7.161907936429498"><ele>4.166666666666666</ele><time>2026-04-29T16:47:06Z</time></trkpt><trkpt lat="43.65590170212002" lon="7.162001558974319"><ele>4.0</ele><time>2026-04-29T16:47:07Z</time></trkpt><trkpt lat="43.65594025202851" lon="7.162103115407395"><ele>3.9999999999999996</ele><time>2026-04-29T16:47:08Z</time></trkpt><trkpt lat="43.65597899531707" lon="7.162206809707831"><ele>4.0</ele><time>2026-04-29T16:47:09Z</time></trkpt><trkpt lat="43.65601569399243" lon="7.1623089003378055"><ele>4.0</ele><time>2026-04-29T16:47:10Z</time></trkpt><trkpt lat="43.65605057407086" lon="7.16240788996573"><ele>4.0</ele><time>2026-04-29T16:47:11Z</time></trkpt><trkpt lat="43.65608545318565" lon="7.162507571747676"><ele>3.9999999999999996</ele><time>2026-04-29T16:47:12Z</time></trkpt><trkpt lat="43.65612172975517" lon="7.162606685517942"><ele>4.0</ele><time>2026-04-29T16:47:13Z</time></trkpt><trkpt lat="43.65616002973808" lon="7.16271117523477"><ele>4.666666666666666</ele><time>2026-04-29T16:47:14Z</time></trkpt><trkpt lat="43.65619505496508" lon="7.162809947994783"><ele>5.333333333333333</ele><time>2026-04-29T16:47:15Z</time></trkpt><trkpt lat="43.6562288456299" lon="7.162914507534267"><ele>6.0</ele><time>2026-04-29T16:47:16Z</time></trkpt><trkpt lat="43.656263867097046" lon="7.163021920536436"><ele>6.666666666666666</ele><time>2026-04-29T16:47:17Z</time></trkpt><trkpt lat="43.65630342252247" lon="7.16312816082002"><ele>7.333333333333333</ele><time>2026-04-29T16:47:18Z</time></trkpt><trkpt lat="43.656342248947425" lon="7.1632417473753875"><ele>8.0</ele><time>2026-04-29T16:47:19Z</time></trkpt><trkpt lat="43.65638107089722" lon="7.1633576972301904"><ele>8.166666666666666</ele><time>2026-04-29T16:47:20Z</time></trkpt><trkpt lat="43.65641867390057" lon="7.163467887520255"><ele>8.333333333333332</ele><time>2026-04-29T16:47:21Z</time></trkpt><trkpt lat="43.65645770128944" lon="7.163574289212494"><ele>8.5</ele><time>2026-04-29T16:47:22Z</time></trkpt><trkpt lat="43.65649419998482" lon="7.163679344472482"><ele>8.666666666666666</ele><time>2026-04-29T16:47:23Z</time></trkpt><trkpt lat="43.65653182688899" lon="7.163788609963913"><ele>8.833333333333334</ele><time>2026-04-29T16:47:24Z</time></trkpt><trkpt lat="43.65656911917809" lon="7.163899124403585"><ele>9.0</ele><time>2026-04-29T16:47:25Z</time></trkpt><trkpt lat="43.656606179548405" lon="7.164015663728892"><ele>8.5</ele><time>2026-04-29T16:47:26Z</time></trkpt><trkpt lat="43.65664438052706" lon="7.164129620604607"><ele>8.0</ele><time>2026-04-29T16:47:27Z</time></trkpt><trkpt lat="43.65668435916503" lon="7.16423699877513"><ele>7.5</ele><time>2026-04-29T16:47:28Z</time></trkpt><trkpt lat="43.65671920570095" lon="7.164338135267723"><ele>7.0</ele><time>2026-04-29T16:47:29Z</time></trkpt><trkpt lat="43.656752432862795" lon="7.1644281971302615"><ele>6.5</ele><time>2026-04-29T16:47:30Z</time></trkpt><trkpt lat="43.656781723651356" lon="7.164508259057"><ele>6.0</ele><time>2026-04-29T16:47:31Z</time></trkpt><trkpt lat="43.656819710444644" lon="7.164620293039564"><ele>6.0</ele><time>2026-04-29T16:47:33Z</time></trkpt><trkpt lat="43.65685757163472" lon="7.164726352468568"><ele>6.0</ele><time>2026-04-29T16:48:08Z</time></trkpt><trkpt lat="43.65691442865154" lon="7.164895163519952"><ele>6.0</ele><time>2026-04-29T16:48:10Z</time></trkpt><trkpt lat="43.65694961480248" lon="7.164997382885292"><ele>6.0</ele><time>2026-04-29T16:48:11Z</time></trkpt><trkpt lat="43.65699271506223" lon="7.165120835526868"><ele>6.0</ele><time>2026-04-29T16:48:12Z</time></trkpt><trkpt lat="43.65704076711018" lon="7.165251546394975"><ele>6.0</ele><time>2026-04-29T16:48:13Z</time></trkpt><trkpt lat="43.65708607457915" lon="7.165387209324384"><ele>6.0</ele><time>2026-04-29T16:48:14Z</time></trkpt><trkpt lat="43.657131156851804" lon="7.165529748014657"><ele>6.0</ele><time>2026-04-29T16:48:15Z</time></trkpt><trkpt lat="43.65717724950017" lon="7.165665792701036"><ele>6.0</ele><time>2026-04-29T16:48:16Z</time></trkpt><trkpt lat="43.657218667228626" lon="7.165796937898851"><ele>6.0</ele><time>2026-04-29T16:48:17Z</time></trkpt><trkpt lat="43.65725268359058" lon="7.165934824768538"><ele>6.0</ele><time>2026-04-29T16:48:18Z</time></trkpt><trkpt lat="43.657318855657124" lon="7.166063156510633"><ele>6.0</ele><time>2026-04-29T16:48:19Z</time></trkpt><trkpt lat="43.657363164799776" lon="7.166199162385183"><ele>6.0</ele><time>2026-04-29T16:48:20Z</time></trkpt><trkpt lat="43.65739465889031" lon="7.166318429894597"><ele>6.0</ele><time>2026-04-29T16:48:21Z</time></trkpt><trkpt lat="43.65742253034903" lon="7.1664304260814085"><ele>6.0</ele><time>2026-04-29T16:48:22Z</time></trkpt><trkpt lat="43.657452080577755" lon="7.16654175076215"><ele>5.833333333333333</ele><time>2026-04-29T16:48:23Z</time></trkpt><trkpt lat="43.65747490038727" lon="7.166650422143831"><ele>5.666666666666667</ele><time>2026-04-29T16:48:24Z</time></trkpt><trkpt lat="43.65749701818657" lon="7.166751411004849"><ele>5.5</ele><time>2026-04-29T16:48:25Z</time></trkpt><trkpt lat="43.65751768018492" lon="7.166863679685952"><ele>5.333333333333334</ele><time>2026-04-29T16:48:26Z</time></trkpt><trkpt lat="43.65754085203646" lon="7.16697044201671"><ele>5.166666666666667</ele><time>2026-04-29T16:48:27Z</time></trkpt><trkpt lat="43.6575629573661" lon="7.1670639714641045"><ele>5.0</ele><time>2026-04-29T16:48:28Z</time></trkpt><trkpt lat="43.657581109289374" lon="7.167160975723338"><ele>5.0</ele><time>2026-04-29T16:48:29Z</time></trkpt><trkpt lat="43.65759553620957" lon="7.167253966204227"><ele>5.0</ele><time>2026-04-29T16:48:30Z</time></trkpt><trkpt lat="43.65760722748999" lon="7.1673410897038305"><ele>5.0</ele><time>2026-04-29T16:48:31Z</time></trkpt><trkpt lat="43.65762259498814" lon="7.16743246647896"><ele>5.0</ele><time>2026-04-29T16:48:32Z</time></trkpt><trkpt lat="43.6576514283371" lon="7.1675886719656905"><ele>5.0</ele><time>2026-04-29T16:48:34Z</time></trkpt><trkpt lat="43.65767310311716" lon="7.167721383598178"><ele>5.0</ele><time>2026-04-29T16:48:36Z</time></trkpt><trkpt lat="43.65768917457834" lon="7.167848608020226"><ele>5.0</ele><time>2026-04-29T16:48:38Z</time></trkpt><trkpt lat="43.65770866493911" lon="7.1679902257495"><ele>5.0</ele><time>2026-04-29T16:48:40Z</time></trkpt><trkpt lat="43.65772066009028" lon="7.168076657493454"><ele>5.0</ele><time>2026-04-29T16:48:41Z</time></trkpt><trkpt lat="43.65773280400749" lon="7.168164086365242"><ele>5.0</ele><time>2026-04-29T16:48:42Z</time></trkpt><trkpt lat="43.65774421601609" lon="7.168255955139676"><ele>5.0</ele><time>2026-04-29T16:48:43Z</time></trkpt><trkpt lat="43.657756932012845" lon="7.168357651746325"><ele>5.0</ele><time>2026-04-29T16:48:44Z</time></trkpt><trkpt lat="43.657766684315405" lon="7.168473011247237"><ele>5.0</ele><time>2026-04-29T16:48:45Z</time></trkpt><trkpt lat="43.65777559927029" lon="7.16860569197115"><ele>5.0</ele><time>2026-04-29T16:48:46Z</time></trkpt><trkpt lat="43.6577841254083" lon="7.168741813888515"><ele>5.0</ele><time>2026-04-29T16:48:47Z</time></trkpt><trkpt lat="43.65778694836948" lon="7.168868657328154"><ele>5.0</ele><time>2026-04-29T16:48:48Z</time></trkpt><trkpt lat="43.657786270051695" lon="7.168973005397656"><ele>5.0</ele><time>2026-04-29T16:48:49Z</time></trkpt><trkpt lat="43.65778781836713" lon="7.1690604309916885"><ele>5.0</ele><time>2026-04-29T16:48:50Z</time></trkpt><trkpt lat="43.657792291974395" lon="7.169170266703948"><ele>5.333333333333334</ele><time>2026-04-29T16:48:52Z</time></trkpt><trkpt lat="43.657793847364246" lon="7.169261071621229"><ele>5.666666666666667</ele><time>2026-04-29T16:48:56Z</time></trkpt><trkpt lat="43.65779838098455" lon="7.169419966221093"><ele>6.0</ele><time>2026-04-29T16:49:41Z</time></trkpt><trkpt lat="43.65779666934411" lon="7.169524981852007"><ele>6.333333333333334</ele><time>2026-04-29T16:49:42Z</time></trkpt><trkpt lat="43.65779492075981" lon="7.1696348422859035"><ele>6.666666666666667</ele><time>2026-04-29T16:49:43Z</time></trkpt><trkpt lat="43.657791669290546" lon="7.169753264785866"><ele>7.0</ele><time>2026-04-29T16:49:44Z</time></trkpt><trkpt lat="43.6577894249614" lon="7.169876258718802"><ele>7.0</ele><time>2026-04-29T16:49:45Z</time></trkpt><trkpt lat="43.65778577582576" lon="7.1700052569311215"><ele>6.999999999999999</ele><time>2026-04-29T16:49:46Z</time></trkpt><trkpt lat="43.657780488332826" lon="7.170144559718834"><ele>6.999999999999999</ele><time>2026-04-29T16:49:47Z</time></trkpt><trkpt lat="43.65777166624845" lon="7.17028822462248"><ele>7.0</ele><time>2026-04-29T16:49:48Z</time></trkpt><trkpt lat="43.65775772717807" lon="7.170433718350079"><ele>7.0</ele><time>2026-04-29T16:49:49Z</time></trkpt><trkpt lat="43.65773946539513" lon="7.170574744177488"><ele>6.199999999999999</ele><time>2026-04-29T16:49:50Z</time></trkpt><trkpt lat="43.65772015046315" lon="7.1707208484536"><ele>5.3999999999999995</ele><time>2026-04-29T16:49:51Z</time></trkpt><trkpt lat="43.65770100492792" lon="7.170876544861166"><ele>4.6</ele><time>2026-04-29T16:49:52Z</time></trkpt><trkpt lat="43.65768403168785" lon="7.171031187641556"><ele>3.8</ele><time>2026-04-29T16:49:53Z</time></trkpt><trkpt lat="43.657665693325114" lon="7.171178807661957"><ele>3.0</ele><time>2026-04-29T16:49:54Z</time></trkpt><trkpt lat="43.65764611764191" lon="7.1713211051379915"><ele>3.0</ele><time>2026-04-29T16:49:55Z</time></trkpt><trkpt lat="43.65761708408336" lon="7.171457948528761"><ele>3.0</ele><time>2026-04-29T16:49:56Z</time></trkpt><trkpt lat="43.65757996113894" lon="7.171596555434263"><ele>3.0</ele><time>2026-04-29T16:49:57Z</time></trkpt><trkpt lat="43.65753779213199" lon="7.171735757522095"><ele>3.0</ele><time>2026-04-29T16:49:58Z</time></trkpt><trkpt lat="43.65749071285334" lon="7.1718799515895615"><ele>3.0</ele><time>2026-04-29T16:49:59Z</time></trkpt><trkpt lat="43.657442234288105" lon="7.172019333804133"><ele>3.75</ele><time>2026-04-29T16:50:00Z</time></trkpt><trkpt lat="43.657394680296846" lon="7.172158196800463"><ele>4.5</ele><time>2026-04-29T16:50:01Z</time></trkpt><trkpt lat="43.65734341768807" lon="7.1722938530734694"><ele>5.25</ele><time>2026-04-29T16:50:02Z</time></trkpt><trkpt lat="43.657293759400396" lon="7.172433979631051"><ele>6.0</ele><time>2026-04-29T16:50:03Z</time></trkpt><trkpt lat="43.65724305790039" lon="7.172576599646011"><ele>6.25</ele><time>2026-04-29T16:50:04Z</time></trkpt><trkpt lat="43.65719467416866" lon="7.17271770080614"><ele>6.5</ele><time>2026-04-29T16:50:05Z</time></trkpt><trkpt lat="43.65714362214521" lon="7.172860920858184"><ele>6.75</ele><time>2026-04-29T16:50:06Z</time></trkpt><trkpt lat="43.65709256859008" lon="7.173005943199696"><ele>7.0</ele><time>2026-04-29T16:50:07Z</time></trkpt><trkpt lat="43.65704170950331" lon="7.173152990979319"><ele>6.5</ele><time>2026-04-29T16:50:08Z</time></trkpt><trkpt lat="43.65699053384345" lon="7.173296173912608"><ele>6.0</ele><time>2026-04-29T16:50:09Z</time></trkpt><trkpt lat="43.65693777579374" lon="7.173439828338261"><ele>5.5</ele><time>2026-04-29T16:50:10Z</time></trkpt><trkpt lat="43.65688613323594" lon="7.173587886543775"><ele>5.0</ele><time>2026-04-29T16:50:11Z</time></trkpt><trkpt lat="43.656836156449955" lon="7.17373572065418"><ele>5.0</ele><time>2026-04-29T16:50:12Z</time></trkpt><trkpt lat="43.65679404509397" lon="7.173883463612551"><ele>5.0</ele><time>2026-04-29T16:50:13Z</time></trkpt><trkpt lat="43.65675146699148" lon="7.174036644097185"><ele>5.0</ele><time>2026-04-29T16:50:14Z</time></trkpt><trkpt lat="43.65671024054754" lon="7.17419107881908"><ele>5.0</ele><time>2026-04-29T16:50:15Z</time></trkpt><trkpt lat="43.65667238905482" lon="7.174345595633936"><ele>5.0</ele><time>2026-04-29T16:50:16Z</time></trkpt><trkpt lat="43.65663769167926" lon="7.174497877324518"><ele>5.0</ele><time>2026-04-29T16:50:17Z</time></trkpt><trkpt lat="43.65660629704043" lon="7.174648819117198"><ele>5.0</ele><time>2026-04-29T16:50:18Z</time></trkpt><trkpt lat="43.65657855189465" lon="7.174804057968573"><ele>5.0</ele><time>2026-04-29T16:50:19Z</time></trkpt><trkpt lat="43.65655245786301" lon="7.1749576881899815"><ele>5.0</ele><time>2026-04-29T16:50:20Z</time></trkpt><trkpt lat="43.656530730701" lon="7.175113795040886"><ele>5.0</ele><time>2026-04-29T16:50:21Z</time></trkpt><trkpt lat="43.65651226805432" lon="7.175270329508286"><ele>5.0</ele><time>2026-04-29T16:50:22Z</time></trkpt><trkpt lat="43.656494362874355" lon="7.175423030569138"><ele>5.0</ele><time>2026-04-29T16:50:23Z</time></trkpt><trkpt lat="43.65647867290396" lon="7.175574835873427"><ele>5.0</ele><time>2026-04-29T16:50:24Z</time></trkpt><trkpt lat="43.65646676178891" lon="7.175725720228972"><ele>5.0</ele><time>2026-04-29T16:50:25Z</time></trkpt><trkpt lat="43.65645415194685" lon="7.175876084166682"><ele>5.0</ele><time>2026-04-29T16:50:26Z</time></trkpt><trkpt lat="43.65644484732327" lon="7.176027378812556"><ele>5.0</ele><time>2026-04-29T16:50:27Z</time></trkpt><trkpt lat="43.65643852828924" lon="7.17618299234446"><ele>5.0</ele><time>2026-04-29T16:50:28Z</time></trkpt><trkpt lat="43.656434334387626" lon="7.1763405685779995"><ele>5.0</ele><time>2026-04-29T16:50:29Z</time></trkpt><trkpt lat="43.65643691865556" lon="7.176502646183242"><ele>5.0</ele><time>2026-04-29T16:50:30Z</time></trkpt><trkpt lat="43.65644072315933" lon="7.176669415751296"><ele>5.0</ele><time>2026-04-29T16:50:31Z</time></trkpt><trkpt lat="43.65644593295423" lon="7.176839829943912"><ele>5.0</ele><time>2026-04-29T16:50:32Z</time></trkpt><trkpt lat="43.65645558983353" lon="7.1770129113062255"><ele>5.0</ele><time>2026-04-29T16:50:33Z</time></trkpt><trkpt lat="43.656469512837035" lon="7.177189153148002"><ele>5.0</ele><time>2026-04-29T16:50:34Z</time></trkpt><trkpt lat="43.65648620326946" lon="7.177365085219147"><ele>5.0</ele><time>2026-04-29T16:50:35Z</time></trkpt><trkpt lat="43.6565030509483" lon="7.177542556943024"><ele>5.0</ele><time>2026-04-29T16:50:36Z</time></trkpt><trkpt lat="43.65651675023374" lon="7.1777219364648746"><ele>5.0</ele><time>2026-04-29T16:50:37Z</time></trkpt><trkpt lat="43.65652832131844" lon="7.1779049877579695"><ele>5.0</ele><time>2026-04-29T16:50:38Z</time></trkpt><trkpt lat="43.656543866279826" lon="7.178083234666499"><ele>5.0</ele><time>2026-04-29T16:50:39Z</time></trkpt><trkpt lat="43.65655791675572" lon="7.178261122350768"><ele>5.0</ele><time>2026-04-29T16:50:40Z</time></trkpt><trkpt lat="43.656572660340316" lon="7.178436559781515"><ele>5.0</ele><time>2026-04-29T16:50:41Z</time></trkpt><trkpt lat="43.65658798596418" lon="7.178609280907141"><ele>5.0</ele><time>2026-04-29T16:50:42Z</time></trkpt><trkpt lat="43.65660213138771" lon="7.178782273138161"><ele>5.0</ele><time>2026-04-29T16:50:43Z</time></trkpt><trkpt lat="43.65661631454745" lon="7.178952895090385"><ele>5.0</ele><time>2026-04-29T16:50:44Z</time></trkpt><trkpt lat="43.65663417251955" lon="7.17912007160208"><ele>4.8</ele><time>2026-04-29T16:50:45Z</time></trkpt><trkpt lat="43.65665367989657" lon="7.179284245645752"><ele>4.6</ele><time>2026-04-29T16:50:46Z</time></trkpt><trkpt lat="43.65667056609606" lon="7.17944261343853"><ele>4.4</ele><time>2026-04-29T16:50:47Z</time></trkpt><trkpt lat="43.65668716902846" lon="7.1795789896772755"><ele>4.2</ele><time>2026-04-29T16:50:48Z</time></trkpt><trkpt lat="43.65670531318044" lon="7.179707536538753"><ele>4.0</ele><time>2026-04-29T16:50:49Z</time></trkpt><trkpt lat="43.656721564036324" lon="7.179832037541174"><ele>3.9999999999999996</ele><time>2026-04-29T16:50:50Z</time></trkpt><trkpt lat="43.656737721021976" lon="7.179934647018895"><ele>4.0</ele><time>2026-04-29T16:50:51Z</time></trkpt><trkpt lat="43.6567512472079" lon="7.180023507556304"><ele>4.0</ele><time>2026-04-29T16:50:52Z</time></trkpt><trkpt lat="43.656770494752095" lon="7.180131081441817"><ele>4.0</ele><time>2026-04-29T16:50:54Z</time></trkpt><trkpt lat="43.656792344434194" lon="7.1802366306324865"><ele>3.9999999999999996</ele><time>2026-04-29T16:51:08Z</time></trkpt><trkpt lat="43.65681334832445" lon="7.18037297341126"><ele>4.0</ele><time>2026-04-29T16:51:10Z</time></trkpt><trkpt lat="43.65682949926907" lon="7.180468083169817"><ele>3.9999999999999996</ele><time>2026-04-29T16:51:11Z</time></trkpt><trkpt lat="43.656847500596456" lon="7.180563336607046"><ele>4.0</ele><time>2026-04-29T16:51:12Z</time></trkpt><trkpt lat="43.65687059870081" lon="7.180667665642849"><ele>4.0</ele><time>2026-04-29T16:51:13Z</time></trkpt><trkpt lat="43.65689803159251" lon="7.1807843491023275"><ele>4.0</ele><time>2026-04-29T16:51:14Z</time></trkpt><trkpt lat="43.65692547945994" lon="7.180908792949203"><ele>3.9999999999999996</ele><time>2026-04-29T16:51:15Z</time></trkpt><trkpt lat="43.65695521511689" lon="7.181040959317386"><ele>4.0</ele><time>2026-04-29T16:51:16Z</time></trkpt><trkpt lat="43.656987081858226" lon="7.181179351820961"><ele>4.800000000000001</ele><time>2026-04-29T16:51:17Z</time></trkpt><trkpt lat="43.65701843642064" lon="7.181317558362518"><ele>5.6000000000000005</ele><time>2026-04-29T16:51:18Z</time></trkpt><trkpt lat="43.657054551974205" lon="7.18146382889446"><ele>6.4</ele><time>2026-04-29T16:51:19Z</time></trkpt><trkpt lat="43.65709322356078" lon="7.181612839127084"><ele>7.2</ele><time>2026-04-29T16:51:20Z</time></trkpt><trkpt lat="43.65712965626642" lon="7.181761216739819"><ele>8.0</ele><time>2026-04-29T16:51:21Z</time></trkpt><trkpt lat="43.657163284453326" lon="7.181909004048863"><ele>8.0</ele><time>2026-04-29T16:51:22Z</time></trkpt><trkpt lat="43.657196963396" lon="7.182057088474836"><ele>8.0</ele><time>2026-04-29T16:51:23Z</time></trkpt><trkpt lat="43.65723363128276" lon="7.18220477873234"><ele>8.0</ele><time>2026-04-29T16:51:24Z</time></trkpt><trkpt lat="43.6572696988032" lon="7.182349169069575"><ele>8.0</ele><time>2026-04-29T16:51:25Z</time></trkpt><trkpt lat="43.65730270524417" lon="7.182484051055564"><ele>8.0</ele><time>2026-04-29T16:51:26Z</time></trkpt><trkpt lat="43.65733655246955" lon="7.182621257379287"><ele>7.6000000000000005</ele><time>2026-04-29T16:51:27Z</time></trkpt><trkpt lat="43.657369178491535" lon="7.182750915234579"><ele>7.200000000000001</ele><time>2026-04-29T16:51:28Z</time></trkpt><trkpt lat="43.65740154860575" lon="7.182883225598028"><ele>6.8</ele><time>2026-04-29T16:51:29Z</time></trkpt><trkpt lat="43.657435588476034" lon="7.183016142769448"><ele>6.4</ele><time>2026-04-29T16:51:30Z</time></trkpt><trkpt lat="43.65746691812224" lon="7.183151227939255"><ele>6.0</ele><time>2026-04-29T16:51:31Z</time></trkpt><trkpt lat="43.65749559866232" lon="7.1832815428633765"><ele>5.8</ele><time>2026-04-29T16:51:32Z</time></trkpt><trkpt lat="43.65752730184287" lon="7.183411395118359"><ele>5.6</ele><time>2026-04-29T16:51:33Z</time></trkpt><trkpt lat="43.657569979688205" lon="7.183536685198553"><ele>5.4</ele><time>2026-04-29T16:51:34Z</time></trkpt><trkpt lat="43.65759732474331" lon="7.183677313319263"><ele>5.2</ele><time>2026-04-29T16:51:35Z</time></trkpt><trkpt lat="43.65762952339968" lon="7.183818675188486"><ele>5.0</ele><time>2026-04-29T16:51:36Z</time></trkpt><trkpt lat="43.657663954147814" lon="7.18395999399068"><ele>4.8</ele><time>2026-04-29T16:51:37Z</time></trkpt><trkpt lat="43.657699528466246" lon="7.184100667216352"><ele>4.6</ele><time>2026-04-29T16:51:38Z</time></trkpt><trkpt lat="43.6577350072782" lon="7.184241887573441"><ele>4.4</ele><time>2026-04-29T16:51:39Z</time></trkpt><trkpt lat="43.65777069914772" lon="7.184377508494519"><ele>4.2</ele><time>2026-04-29T16:51:40Z</time></trkpt><trkpt lat="43.65780079307338" lon="7.184515144512249"><ele>4.0</ele><time>2026-04-29T16:51:41Z</time></trkpt><trkpt lat="43.65782928588176" lon="7.184651309887796"><ele>4.6</ele><time>2026-04-29T16:51:42Z</time></trkpt><trkpt lat="43.65786717321258" lon="7.184794709481831"><ele>5.2</ele><time>2026-04-29T16:51:43Z</time></trkpt><trkpt lat="43.65790417411192" lon="7.184937287972507"><ele>5.799999999999999</ele><time>2026-04-29T16:51:44Z</time></trkpt><trkpt lat="43.65793853233335" lon="7.185081151408368"><ele>6.3999999999999995</ele><time>2026-04-29T16:51:45Z</time></trkpt><trkpt lat="43.6579744815313" lon="7.185221886859602"><ele>7.0</ele><time>2026-04-29T16:51:46Z</time></trkpt><trkpt lat="43.65800943787347" lon="7.18536934512345"><ele>7.0</ele><time>2026-04-29T16:51:47Z</time></trkpt><trkpt lat="43.65804615415585" lon="7.185515627822725"><ele>6.999999999999999</ele><time>2026-04-29T16:51:48Z</time></trkpt><trkpt lat="43.658078318383275" lon="7.185661887411728"><ele>6.999999999999999</ele><time>2026-04-29T16:51:49Z</time></trkpt><trkpt lat="43.658117065821735" lon="7.185808505621618"><ele>7.0</ele><time>2026-04-29T16:51:50Z</time></trkpt><trkpt lat="43.65815148282276" lon="7.185950040244682"><ele>7.0</ele><time>2026-04-29T16:51:51Z</time></trkpt><trkpt lat="43.65818691565307" lon="7.186089631077815"><ele>7.0</ele><time>2026-04-29T16:51:52Z</time></trkpt><trkpt lat="43.658219630791095" lon="7.186224799501804"><ele>6.999999999999999</ele><time>2026-04-29T16:51:53Z</time></trkpt><trkpt lat="43.65824946693499" lon="7.18634922552176"><ele>6.999999999999999</ele><time>2026-04-29T16:51:54Z</time></trkpt><trkpt lat="43.65827937307128" lon="7.186467074454861"><ele>7.0</ele><time>2026-04-29T16:51:55Z</time></trkpt><trkpt lat="43.658309037420686" lon="7.186584126204376"><ele>7.0</ele><time>2026-04-29T16:51:56Z</time></trkpt><trkpt lat="43.65833372983634" lon="7.186699845557792"><ele>7.000000000000001</ele><time>2026-04-29T16:51:57Z</time></trkpt><trkpt lat="43.65836678236427" lon="7.186817761679009"><ele>7.0</ele><time>2026-04-29T16:51:58Z</time></trkpt><trkpt lat="43.658399171201786" lon="7.1869384711841455"><ele>7.0</ele><time>2026-04-29T16:51:59Z</time></trkpt><trkpt lat="43.65842847985059" lon="7.187063850255391"><ele>7.0</ele><time>2026-04-29T16:52:00Z</time></trkpt><trkpt lat="43.65845338937989" lon="7.1871752157783995"><ele>7.000000000000001</ele><time>2026-04-29T16:52:01Z</time></trkpt><trkpt lat="43.65848002562147" lon="7.18728136577713"><ele>7.0</ele><time>2026-04-29T16:52:02Z</time></trkpt><trkpt lat="43.65850551750998" lon="7.18737667223295"><ele>6.6</ele><time>2026-04-29T16:52:03Z</time></trkpt><trkpt lat="43.65853316316322" lon="7.187488822760619"><ele>6.199999999999999</ele><time>2026-04-29T16:52:04Z</time></trkpt><trkpt lat="43.6585643947362" lon="7.18761416237465"><ele>5.8</ele><time>2026-04-29T16:52:05Z</time></trkpt><trkpt lat="43.65859374358825" lon="7.187739687560928"><ele>5.4</ele><time>2026-04-29T16:52:06Z</time></trkpt><trkpt lat="43.65862559372872" lon="7.1878654153803145"><ele>5.0</ele><time>2026-04-29T16:52:07Z</time></trkpt><trkpt lat="43.65865590665207" lon="7.1879899854685725"><ele>5.0</ele><time>2026-04-29T16:52:08Z</time></trkpt><trkpt lat="43.658687114460434" lon="7.188118866491677"><ele>5.0</ele><time>2026-04-29T16:52:09Z</time></trkpt><trkpt lat="43.658721767064826" lon="7.188260891264688"><ele>5.0</ele><time>2026-04-29T16:52:10Z</time></trkpt><trkpt lat="43.6587585446087" lon="7.1884117415816045"><ele>5.0</ele><time>2026-04-29T16:52:11Z</time></trkpt><trkpt lat="43.65879367027658" lon="7.188565218455059"><ele>5.0</ele><time>2026-04-29T16:52:12Z</time></trkpt><trkpt lat="43.65883287524959" lon="7.188722202145331"><ele>5.0</ele><time>2026-04-29T16:52:13Z</time></trkpt><trkpt lat="43.658869397621" lon="7.1888764887282575"><ele>5.0</ele><time>2026-04-29T16:52:14Z</time></trkpt><trkpt lat="43.65890907652495" lon="7.189031355749058"><ele>5.0</ele><time>2026-04-29T16:52:15Z</time></trkpt><trkpt lat="43.65894721164549" lon="7.189187571932662"><ele>5.0</ele><time>2026-04-29T16:52:16Z</time></trkpt><trkpt lat="43.6589898584444" lon="7.189346448713694"><ele>5.0</ele><time>2026-04-29T16:52:17Z</time></trkpt><trkpt lat="43.659032803928845" lon="7.1895050495947075"><ele>5.0</ele><time>2026-04-29T16:52:18Z</time></trkpt><trkpt lat="43.65908032825356" lon="7.189667699075758"><ele>5.0</ele><time>2026-04-29T16:52:19Z</time></trkpt><trkpt lat="43.659129938045304" lon="7.189832961149634"><ele>5.0</ele><time>2026-04-29T16:52:20Z</time></trkpt><trkpt lat="43.659182698340395" lon="7.190001330076433"><ele>5.0</ele><time>2026-04-29T16:52:21Z</time></trkpt><trkpt lat="43.65923758640417" lon="7.190160863862451"><ele>5.0</ele><time>2026-04-29T16:52:22Z</time></trkpt><trkpt lat="43.65929322319785" lon="7.190317726221673"><ele>5.0</ele><time>2026-04-29T16:52:23Z</time></trkpt><trkpt lat="43.65935238330526" lon="7.190475452010493"><ele>5.0</ele><time>2026-04-29T16:52:24Z</time></trkpt><trkpt lat="43.659412482729905" lon="7.19062803846258"><ele>5.75</ele><time>2026-04-29T16:52:25Z</time></trkpt><trkpt lat="43.659477196600186" lon="7.190779038602921"><ele>6.5</ele><time>2026-04-29T16:52:26Z</time></trkpt><trkpt lat="43.65952349847847" lon="7.190923903355354"><ele>7.25</ele><time>2026-04-29T16:52:27Z</time></trkpt><trkpt lat="43.65960655109334" lon="7.191076882872489"><ele>8.0</ele><time>2026-04-29T16:52:28Z</time></trkpt><trkpt lat="43.65967974019884" lon="7.191225015771417"><ele>8.0</ele><time>2026-04-29T16:52:29Z</time></trkpt><trkpt lat="43.65974973579165" lon="7.191377598295239"><ele>8.0</ele><time>2026-04-29T16:52:30Z</time></trkpt><trkpt lat="43.659820990568974" lon="7.191528241444001"><ele>8.0</ele><time>2026-04-29T16:52:31Z</time></trkpt><trkpt lat="43.65989768919835" lon="7.191676322749057"><ele>8.0</ele><time>2026-04-29T16:52:32Z</time></trkpt><trkpt lat="43.65997660803549" lon="7.191821858315387"><ele>8.5</ele><time>2026-04-29T16:52:33Z</time></trkpt><trkpt lat="43.66006081393227" lon="7.1919635839084535"><ele>9.0</ele><time>2026-04-29T16:52:34Z</time></trkpt><trkpt lat="43.66014765981379" lon="7.192112156003782"><ele>9.5</ele><time>2026-04-29T16:52:35Z</time></trkpt><trkpt lat="43.66023635627492" lon="7.19225022932677"><ele>10.0</ele><time>2026-04-29T16:52:36Z</time></trkpt><trkpt lat="43.66031968765167" lon="7.192386369396203"><ele>10.25</ele><time>2026-04-29T16:52:37Z</time></trkpt><trkpt lat="43.66040575600878" lon="7.192523023641772"><ele>10.5</ele><time>2026-04-29T16:52:38Z</time></trkpt><trkpt lat="43.66048741248637" lon="7.192661498113063"><ele>10.75</ele><time>2026-04-29T16:52:39Z</time></trkpt><trkpt lat="43.66056948762069" lon="7.19279384495525"><ele>11.0</ele><time>2026-04-29T16:52:40Z</time></trkpt><trkpt lat="43.66064948130864" lon="7.192923090686738"><ele>11.0</ele><time>2026-04-29T16:52:41Z</time></trkpt><trkpt lat="43.660731103303945" lon="7.193049596773866"><ele>11.0</ele><time>2026-04-29T16:52:42Z</time></trkpt><trkpt lat="43.66080834300408" lon="7.193175365848769"><ele>11.0</ele><time>2026-04-29T16:52:43Z</time></trkpt><trkpt lat="43.66088574020907" lon="7.193298137885787"><ele>11.0</ele><time>2026-04-29T16:52:44Z</time></trkpt><trkpt lat="43.660960309277286" lon="7.193419832671128"><ele>10.8</ele><time>2026-04-29T16:52:45Z</time></trkpt><trkpt lat="43.66103359662777" lon="7.193535751614753"><ele>10.600000000000001</ele><time>2026-04-29T16:52:46Z</time></trkpt><trkpt lat="43.66110342630827" lon="7.193648893415153"><ele>10.4</ele><time>2026-04-29T16:52:47Z</time></trkpt><trkpt lat="43.66117230652562" lon="7.193760424925106"><ele>10.2</ele><time>2026-04-29T16:52:48Z</time></trkpt><trkpt lat="43.66124220251825" lon="7.1938702640893935"><ele>10.0</ele><time>2026-04-29T16:52:49Z</time></trkpt><trkpt lat="43.66131140618551" lon="7.193979694835847"><ele>10.6</ele><time>2026-04-29T16:52:50Z</time></trkpt><trkpt lat="43.6613749051433" lon="7.194087444496452"><ele>11.2</ele><time>2026-04-29T16:52:51Z</time></trkpt><trkpt lat="43.66143604086739" lon="7.1941911457763235"><ele>11.8</ele><time>2026-04-29T16:52:52Z</time></trkpt><trkpt lat="43.66149161854034" lon="7.194286545719379"><ele>12.4</ele><time>2026-04-29T16:52:53Z</time></trkpt><trkpt lat="43.6615439902263" lon="7.194380353436329"><ele>13.0</ele><time>2026-04-29T16:52:54Z</time></trkpt><trkpt lat="43.661594404217844" lon="7.194465710070018"><ele>12.999999999999998</ele><time>2026-04-29T16:52:55.001Z</time></trkpt><trkpt lat="43.661647529191974" lon="7.194547045350507"><ele>13.0</ele><time>2026-04-29T16:52:56.001Z</time></trkpt><trkpt lat="43.66169845663062" lon="7.194627204688943"><ele>13.0</ele><time>2026-04-29T16:52:57.001Z</time></trkpt><trkpt lat="43.661757249803614" lon="7.194714665905537"><ele>13.0</ele><time>2026-04-29T16:52:58.001Z</time></trkpt><trkpt lat="43.66181562226983" lon="7.194810673165868"><ele>12.999999999999998</ele><time>2026-04-29T16:52:59.001Z</time></trkpt><trkpt lat="43.661877996246524" lon="7.1949035946965525"><ele>13.0</ele><time>2026-04-29T16:53:00.001Z</time></trkpt><trkpt lat="43.66193933217776" lon="7.195004252950677"><ele>13.600000000000001</ele><time>2026-04-29T16:53:01.001Z</time></trkpt><trkpt lat="43.6620024462989" lon="7.19510821191327"><ele>14.200000000000001</ele><time>2026-04-29T16:53:02.001Z</time></trkpt><trkpt lat="43.66207083224622" lon="7.195212710016625"><ele>14.8</ele><time>2026-04-29T16:53:03.001Z</time></trkpt><trkpt lat="43.662137148824826" lon="7.19532197470257"><ele>15.4</ele><time>2026-04-29T16:53:04.001Z</time></trkpt><trkpt lat="43.66220379471692" lon="7.19542873427167"><ele>16.0</ele><time>2026-04-29T16:53:05.001Z</time></trkpt><trkpt lat="43.66227363501511" lon="7.19554186662788"><ele>16.0</ele><time>2026-04-29T16:53:06.001Z</time></trkpt><trkpt lat="43.662344908110114" lon="7.195656147813112"><ele>16.0</ele><time>2026-04-29T16:53:07.001Z</time></trkpt><trkpt lat="43.66241506571007" lon="7.195775997931751"><ele>16.0</ele><time>2026-04-29T16:53:08.001Z</time></trkpt><trkpt lat="43.66248717486503" lon="7.1958940856283675"><ele>16.0</ele><time>2026-04-29T16:53:09.001Z</time></trkpt><trkpt lat="43.66255952373122" lon="7.196014332182332"><ele>16.0</ele><time>2026-04-29T16:53:10.001Z</time></trkpt><trkpt lat="43.662632370907936" lon="7.196141056757982"><ele>16.0</ele><time>2026-04-29T16:53:11.001Z</time></trkpt><trkpt lat="43.66270331450613" lon="7.196269628564313"><ele>16.0</ele><time>2026-04-29T16:53:12.001Z</time></trkpt><trkpt lat="43.66277037194288" lon="7.19640198338593"><ele>16.0</ele><time>2026-04-29T16:53:13.001Z</time></trkpt><trkpt lat="43.66283139428478" lon="7.196534989706782"><ele>16.0</ele><time>2026-04-29T16:53:14Z</time></trkpt><trkpt lat="43.6628921627852" lon="7.196670573531123"><ele>16.0</ele><time>2026-04-29T16:53:15Z</time></trkpt><trkpt lat="43.66295254555077" lon="7.196802730350159"><ele>16.0</ele><time>2026-04-29T16:53:16Z</time></trkpt><trkpt lat="43.663010964096934" lon="7.196933492057492"><ele>16.0</ele><time>2026-04-29T16:53:17Z</time></trkpt><trkpt lat="43.66306680378053" lon="7.197071554885914"><ele>16.0</ele><time>2026-04-29T16:53:18Z</time></trkpt><trkpt lat="43.66312334110755" lon="7.197212473960005"><ele>15.0</ele><time>2026-04-29T16:53:19Z</time></trkpt><trkpt lat="43.66318115168962" lon="7.197355749657263"><ele>14.0</ele><time>2026-04-29T16:53:20Z</time></trkpt><trkpt lat="43.66323741166866" lon="7.197498052763693"><ele>13.0</ele><time>2026-04-29T16:53:21Z</time></trkpt><trkpt lat="43.66329258749088" lon="7.197645086971724"><ele>12.0</ele><time>2026-04-29T16:53:22Z</time></trkpt><trkpt lat="43.66334705767217" lon="7.197794469145773"><ele>12.0</ele><time>2026-04-29T16:53:23Z</time></trkpt><trkpt lat="43.66340340607047" lon="7.197946619350136"><ele>12.0</ele><time>2026-04-29T16:53:24Z</time></trkpt><trkpt lat="43.6634598897579" lon="7.198097610156712"><ele>12.0</ele><time>2026-04-29T16:53:25Z</time></trkpt><trkpt lat="43.66351561355923" lon="7.198243830502033"><ele>12.0</ele><time>2026-04-29T16:53:26Z</time></trkpt><trkpt lat="43.66357078221748" lon="7.198388100369806"><ele>10.75</ele><time>2026-04-29T16:53:27Z</time></trkpt><trkpt lat="43.663625078767524" lon="7.198527287075919"><ele>9.5</ele><time>2026-04-29T16:53:28Z</time></trkpt><trkpt lat="43.66367760021675" lon="7.198664711083744"><ele>8.25</ele><time>2026-04-29T16:53:29Z</time></trkpt><trkpt lat="43.66372976368599" lon="7.1988044393638235"><ele>7.0</ele><time>2026-04-29T16:53:30Z</time></trkpt><trkpt lat="43.66378274689014" lon="7.198944410997518"><ele>7.0</ele><time>2026-04-29T16:53:31Z</time></trkpt><trkpt lat="43.66383531888008" lon="7.199084581588862"><ele>7.0</ele><time>2026-04-29T16:53:32Z</time></trkpt><trkpt lat="43.66389003699812" lon="7.1992224823835995"><ele>7.0</ele><time>2026-04-29T16:53:33Z</time></trkpt><trkpt lat="43.6639433704179" lon="7.199360343816786"><ele>7.0</ele><time>2026-04-29T16:53:34Z</time></trkpt><trkpt lat="43.66399598494294" lon="7.199493432999714"><ele>7.0</ele><time>2026-04-29T16:53:35Z</time></trkpt><trkpt lat="43.66404809715679" lon="7.199629368176031"><ele>6.999999999999999</ele><time>2026-04-29T16:53:36Z</time></trkpt><trkpt lat="43.66409672275974" lon="7.199758575340861"><ele>6.999999999999999</ele><time>2026-04-29T16:53:37Z</time></trkpt><trkpt lat="43.66414485404333" lon="7.1998857828450324"><ele>7.0</ele><time>2026-04-29T16:53:38Z</time></trkpt><trkpt lat="43.664194271135585" lon="7.200014093322559"><ele>7.0</ele><time>2026-04-29T16:53:39Z</time></trkpt><trkpt lat="43.66424376734044" lon="7.20014423940701"><ele>7.0</ele><time>2026-04-29T16:53:40Z</time></trkpt><trkpt lat="43.664292761631486" lon="7.2002731699072395"><ele>6.999999999999999</ele><time>2026-04-29T16:53:41Z</time></trkpt><trkpt lat="43.66434013439188" lon="7.2003983134179315"><ele>6.999999999999999</ele><time>2026-04-29T16:53:42Z</time></trkpt><trkpt lat="43.66438741178827" lon="7.200528487877395"><ele>7.0</ele><time>2026-04-29T16:53:43Z</time></trkpt><trkpt lat="43.664435224562055" lon="7.200657151043928"><ele>7.0</ele><time>2026-04-29T16:53:44Z</time></trkpt><trkpt lat="43.664486395387605" lon="7.2007893545304364"><ele>7.8</ele><time>2026-04-29T16:53:45Z</time></trkpt><trkpt lat="43.66453877000006" lon="7.2009236738492834"><ele>8.6</ele><time>2026-04-29T16:53:46Z</time></trkpt><trkpt lat="43.6645913889984" lon="7.20105818979604"><ele>9.4</ele><time>2026-04-29T16:53:47Z</time></trkpt><trkpt lat="43.66464210176204" lon="7.20118774164896"><ele>10.200000000000001</ele><time>2026-04-29T16:53:48Z</time></trkpt><trkpt lat="43.66469288148623" lon="7.201316858014037"><ele>11.0</ele><time>2026-04-29T16:53:49Z</time></trkpt><trkpt lat="43.66474333980956" lon="7.201448034310281"><ele>11.4</ele><time>2026-04-29T16:53:50Z</time></trkpt><trkpt lat="43.66479145559117" lon="7.201576294563457"><ele>11.8</ele><time>2026-04-29T16:53:51Z</time></trkpt><trkpt lat="43.664839782956804" lon="7.201707000975234"><ele>12.200000000000001</ele><time>2026-04-29T16:53:52Z</time></trkpt><trkpt lat="43.664889382379585" lon="7.2018388387470305"><ele>12.600000000000001</ele><time>2026-04-29T16:53:53Z</time></trkpt><trkpt lat="43.664936904472945" lon="7.201963481161787"><ele>13.0</ele><time>2026-04-29T16:53:54Z</time></trkpt><trkpt lat="43.66497887578836" lon="7.202081138615161"><ele>12.999999999999998</ele><time>2026-04-29T16:53:55Z</time></trkpt><trkpt lat="43.66501305464447" lon="7.20218313253084"><ele>13.0</ele><time>2026-04-29T16:53:56Z</time></trkpt><trkpt lat="43.6650399300582" lon="7.202265296413688"><ele>13.0</ele><time>2026-04-29T16:53:57Z</time></trkpt><trkpt lat="43.665073182897245" lon="7.202345030669629"><ele>13.0</ele><time>2026-04-29T16:53:58Z</time></trkpt><trkpt lat="43.66510710857796" lon="7.202424190259996"><ele>12.999999999999998</ele><time>2026-04-29T16:53:59Z</time></trkpt><trkpt lat="43.66514191575891" lon="7.2025597088513855"><ele>13.0</ele><time>2026-04-29T16:54:01Z</time></trkpt><trkpt lat="43.66516208950998" lon="7.202655764360739"><ele>13.0</ele><time>2026-04-29T16:54:03Z</time></trkpt><trkpt lat="43.66518240965415" lon="7.202746772114051"><ele>13.0</ele><time>2026-04-29T16:54:05Z</time></trkpt><trkpt lat="43.665215324642446" lon="7.202904847625081"><ele>13.0</ele><time>2026-04-29T16:54:07Z</time></trkpt><trkpt lat="43.665246238027244" lon="7.203025033428165"><ele>13.0</ele><time>2026-04-29T16:54:08Z</time></trkpt><trkpt lat="43.66528085461735" lon="7.203156469618775"><ele>13.0</ele><time>2026-04-29T16:54:09Z</time></trkpt><trkpt lat="43.665309102138345" lon="7.20330825413454"><ele>13.0</ele><time>2026-04-29T16:54:10Z</time></trkpt><trkpt lat="43.66533850166266" lon="7.20346691311065"><ele>13.0</ele><time>2026-04-29T16:54:11Z</time></trkpt><trkpt lat="43.66537050018606" lon="7.203641430082521"><ele>13.0</ele><time>2026-04-29T16:54:12Z</time></trkpt><trkpt lat="43.665401339175" lon="7.2038344683004745"><ele>13.0</ele><time>2026-04-29T16:54:13Z</time></trkpt><trkpt lat="43.66542303065238" lon="7.204038540267074"><ele>13.0</ele><time>2026-04-29T16:54:14Z</time></trkpt><trkpt lat="43.66544129034989" lon="7.204242252502837"><ele>13.0</ele><time>2026-04-29T16:54:15Z</time></trkpt><trkpt lat="43.66546160042163" lon="7.204449883466951"><ele>13.0</ele><time>2026-04-29T16:54:16Z</time></trkpt><trkpt lat="43.66548347496195" lon="7.2046486352443635"><ele>13.0</ele><time>2026-04-29T16:54:17Z</time></trkpt><trkpt lat="43.665504155508934" lon="7.2048403563702355"><ele>12.75</ele><time>2026-04-29T16:54:18Z</time></trkpt><trkpt lat="43.66552813913746" lon="7.205025009857415"><ele>12.5</ele><time>2026-04-29T16:54:19Z</time></trkpt><trkpt lat="43.6655511718603" lon="7.205216685140165"><ele>12.25</ele><time>2026-04-29T16:54:20Z</time></trkpt><trkpt lat="43.66557239900179" lon="7.205402441796147"><ele>12.0</ele><time>2026-04-29T16:54:21Z</time></trkpt><trkpt lat="43.66559050506947" lon="7.205580432420959"><ele>11.25</ele><time>2026-04-29T16:54:22Z</time></trkpt><trkpt lat="43.665610798630816" lon="7.205749381134882"><ele>10.5</ele><time>2026-04-29T16:54:23Z</time></trkpt><trkpt lat="43.66563198084826" lon="7.205918606151256"><ele>9.75</ele><time>2026-04-29T16:54:24Z</time></trkpt><trkpt lat="43.66564962637601" lon="7.206086658482271"><ele>9.0</ele><time>2026-04-29T16:54:25Z</time></trkpt><trkpt lat="43.665675182506774" lon="7.206253104669683"><ele>9.0</ele><time>2026-04-29T16:54:26Z</time></trkpt><trkpt lat="43.665701305809655" lon="7.20640687502585"><ele>9.0</ele><time>2026-04-29T16:54:27Z</time></trkpt><trkpt lat="43.66572657450152" lon="7.2065517795197955"><ele>9.0</ele><time>2026-04-29T16:54:28Z</time></trkpt><trkpt lat="43.665749968798586" lon="7.206696824969634"><ele>9.0</ele><time>2026-04-29T16:54:29Z</time></trkpt><trkpt lat="43.66576706323097" lon="7.206834112555317"><ele>9.0</ele><time>2026-04-29T16:54:30Z</time></trkpt><trkpt lat="43.66578065169675" lon="7.206956726432652"><ele>8.857142857142858</ele><time>2026-04-29T16:54:31Z</time></trkpt><trkpt lat="43.665787527739646" lon="7.207070757128348"><ele>8.714285714285715</ele><time>2026-04-29T16:54:32Z</time></trkpt><trkpt lat="43.665792202665" lon="7.207170583849799"><ele>8.571428571428571</ele><time>2026-04-29T16:54:33Z</time></trkpt><trkpt lat="43.665802283591844" lon="7.207263863249419"><ele>8.428571428571429</ele><time>2026-04-29T16:54:34Z</time></trkpt><trkpt lat="43.66581344377167" lon="7.2073516230878685"><ele>8.285714285714285</ele><time>2026-04-29T16:54:35Z</time></trkpt><trkpt lat="43.66582619441825" lon="7.207443362824914"><ele>8.142857142857142</ele><time>2026-04-29T16:54:36Z</time></trkpt><trkpt lat="43.66583880746955" lon="7.207539761941938"><ele>8.0</ele><time>2026-04-29T16:54:37Z</time></trkpt><trkpt lat="43.66584789218754" lon="7.2076303717893255"><ele>8.0</ele><time>2026-04-29T16:54:38Z</time></trkpt><trkpt lat="43.66586420395132" lon="7.207792789202186"><ele>8.0</ele><time>2026-04-29T16:54:40Z</time></trkpt><trkpt lat="43.665883992685416" lon="7.207944695643535"><ele>8.0</ele><time>2026-04-29T16:54:42Z</time></trkpt><trkpt lat="43.665907775414354" lon="7.208123378885172"><ele>8.0</ele><time>2026-04-29T16:54:44Z</time></trkpt><trkpt lat="43.66591894059146" lon="7.208223549108313"><ele>8.0</ele><time>2026-04-29T16:54:45Z</time></trkpt><trkpt lat="43.66593413580525" lon="7.208323832162907"><ele>7.999999999999999</ele><time>2026-04-29T16:54:46Z</time></trkpt><trkpt lat="43.66594864321995" lon="7.208423493049462"><ele>8.0</ele><time>2026-04-29T16:54:47Z</time></trkpt><trkpt lat="43.66596546398276" lon="7.208530356409712"><ele>8.0</ele><time>2026-04-29T16:54:48Z</time></trkpt><trkpt lat="43.665978682558006" lon="7.208635870718039"><ele>8.0</ele><time>2026-04-29T16:54:49Z</time></trkpt><trkpt lat="43.66599158817115" lon="7.208742707590317"><ele>7.999999999999999</ele><time>2026-04-29T16:54:50Z</time></trkpt><trkpt lat="43.666003570004904" lon="7.208844674261381"><ele>8.0</ele><time>2026-04-29T16:54:51Z</time></trkpt><trkpt lat="43.66601128801267" lon="7.208939531972786"><ele>7.999999999999999</ele><time>2026-04-29T16:54:52Z</time></trkpt><trkpt lat="43.66601636775908" lon="7.209037030420618"><ele>8.0</ele><time>2026-04-29T16:54:53Z</time></trkpt><trkpt lat="43.66602254835039" lon="7.2091371254522"><ele>8.0</ele><time>2026-04-29T16:54:54Z</time></trkpt><trkpt lat="43.66603146975248" lon="7.209233126171236"><ele>8.0</ele><time>2026-04-29T16:54:55Z</time></trkpt><trkpt lat="43.66604259517319" lon="7.209365752693906"><ele>7.999999999999999</ele><time>2026-04-29T16:54:57Z</time></trkpt><trkpt lat="43.666065942091855" lon="7.209460425896873"><ele>8.0</ele><time>2026-04-29T16:54:59Z</time></trkpt><trkpt lat="43.666083803374136" lon="7.2095853649913275"><ele>8.0</ele><time>2026-04-29T16:55:01.001Z</time></trkpt><trkpt lat="43.666093004938034" lon="7.209722751832104"><ele>8.0</ele><time>2026-04-29T16:55:03.001Z</time></trkpt><trkpt lat="43.66611187424062" lon="7.209863975201809"><ele>8.0</ele><time>2026-04-29T16:55:05Z</time></trkpt><trkpt lat="43.66611875259733" lon="7.209951858495404"><ele>8.0</ele><time>2026-04-29T16:55:12Z</time></trkpt><trkpt lat="43.66613431676111" lon="7.210081947531604"><ele>8.0</ele><time>2026-04-29T16:55:18.001Z</time></trkpt><trkpt lat="43.666148808188986" lon="7.210225150196543"><ele>7.800000000000001</ele><time>2026-04-29T16:55:20.001Z</time></trkpt><trkpt lat="43.66617225859217" lon="7.21038951875982"><ele>7.6000000000000005</ele><time>2026-04-29T16:55:22Z</time></trkpt><trkpt lat="43.66619115585453" lon="7.210501259566377"><ele>7.3999999999999995</ele><time>2026-04-29T16:55:23Z</time></trkpt><trkpt lat="43.66621219290987" lon="7.210622614543078"><ele>7.199999999999999</ele><time>2026-04-29T16:55:24Z</time></trkpt><trkpt lat="43.66622809578677" lon="7.210744404081767"><ele>7.0</ele><time>2026-04-29T16:55:25Z</time></trkpt><trkpt lat="43.66624388446339" lon="7.210866339757513"><ele>7.0</ele><time>2026-04-29T16:55:26Z</time></trkpt><trkpt lat="43.66625929433989" lon="7.210991464803656"><ele>6.999999999999999</ele><time>2026-04-29T16:55:27Z</time></trkpt><trkpt lat="43.66627536196724" lon="7.211129842643559"><ele>6.999999999999999</ele><time>2026-04-29T16:55:28Z</time></trkpt><trkpt lat="43.666292397265366" lon="7.2112680201285535"><ele>7.0</ele><time>2026-04-29T16:55:29Z</time></trkpt><trkpt lat="43.66630803503989" lon="7.2114137865913195"><ele>7.0</ele><time>2026-04-29T16:55:30Z</time></trkpt><trkpt lat="43.6663243983249" lon="7.211563313393221"><ele>6.833333333333334</ele><time>2026-04-29T16:55:31Z</time></trkpt><trkpt lat="43.66634058478428" lon="7.211711475004836"><ele>6.666666666666667</ele><time>2026-04-29T16:55:32Z</time></trkpt><trkpt lat="43.66635477692689" lon="7.211853361948206"><ele>6.5</ele><time>2026-04-29T16:55:33Z</time></trkpt><trkpt lat="43.66636922705185" lon="7.2119761074335775"><ele>6.333333333333334</ele><time>2026-04-29T16:55:34Z</time></trkpt><trkpt lat="43.666384226381986" lon="7.212079658294537"><ele>6.166666666666667</ele><time>2026-04-29T16:55:35Z</time></trkpt><trkpt lat="43.6663942875687" lon="7.21216801670539"><ele>6.0</ele><time>2026-04-29T16:55:36Z</time></trkpt><trkpt lat="43.6664049868945" lon="7.212257254540759"><ele>6.333333333333333</ele><time>2026-04-29T16:55:37Z</time></trkpt><trkpt lat="43.666416460848325" lon="7.212347849714811"><ele>6.666666666666666</ele><time>2026-04-29T16:55:38Z</time></trkpt><trkpt lat="43.66642631163687" lon="7.212438459093059"><ele>7.0</ele><time>2026-04-29T16:55:39Z</time></trkpt><trkpt lat="43.666437324115066" lon="7.2125245275592915"><ele>7.333333333333333</ele><time>2026-04-29T16:55:40Z</time></trkpt><trkpt lat="43.66644939856621" lon="7.212612901339594"><ele>7.666666666666666</ele><time>2026-04-29T16:55:41Z</time></trkpt><trkpt lat="43.66645344149185" lon="7.212760441079021"><ele>8.0</ele><time>2026-04-29T16:55:43Z</time></trkpt><trkpt lat="43.66648253521822" lon="7.2129129647236505"><ele>7.999999999999999</ele><time>2026-04-29T16:55:45Z</time></trkpt><trkpt lat="43.66649615738066" lon="7.213075509645603"><ele>8.0</ele><time>2026-04-29T16:55:47Z</time></trkpt><trkpt lat="43.666505987742674" lon="7.213166670888258"><ele>8.0</ele><time>2026-04-29T16:55:48Z</time></trkpt><trkpt lat="43.666515983263494" lon="7.213256373481602"><ele>8.0</ele><time>2026-04-29T16:55:49Z</time></trkpt><trkpt lat="43.666528723354" lon="7.21334929342568"><ele>7.999999999999999</ele><time>2026-04-29T16:55:50Z</time></trkpt><trkpt lat="43.66654375866162" lon="7.213454434148365"><ele>8.0</ele><time>2026-04-29T16:55:51Z</time></trkpt><trkpt lat="43.666557609042236" lon="7.213561637107291"><ele>8.166666666666666</ele><time>2026-04-29T16:55:52Z</time></trkpt><trkpt lat="43.666571007348836" lon="7.213668340162064"><ele>8.333333333333332</ele><time>2026-04-29T16:55:53Z</time></trkpt><trkpt lat="43.66658401390931" lon="7.21377508327674"><ele>8.5</ele><time>2026-04-29T16:55:54Z</time></trkpt><trkpt lat="43.66659609587638" lon="7.213881672325034"><ele>8.666666666666666</ele><time>2026-04-29T16:55:55Z</time></trkpt><trkpt lat="43.666606509733064" lon="7.213986071632115"><ele>8.833333333333334</ele><time>2026-04-29T16:55:56Z</time></trkpt><trkpt lat="43.66661761085405" lon="7.214089022216305"><ele>9.0</ele><time>2026-04-29T16:55:57Z</time></trkpt><trkpt lat="43.66663051252943" lon="7.214197180994892"><ele>9.166666666666666</ele><time>2026-04-29T16:55:58Z</time></trkpt><trkpt lat="43.66664327167139" lon="7.214308434621473"><ele>9.333333333333334</ele><time>2026-04-29T16:55:59Z</time></trkpt><trkpt lat="43.666655278281894" lon="7.214419636414028"><ele>9.5</ele><time>2026-04-29T16:56:00Z</time></trkpt><trkpt lat="43.666666689848626" lon="7.214537116814896"><ele>9.666666666666668</ele><time>2026-04-29T16:56:01Z</time></trkpt><trkpt lat="43.666678858773075" lon="7.214645280661504"><ele>9.833333333333334</ele><time>2026-04-29T16:56:02Z</time></trkpt><trkpt lat="43.66668799959037" lon="7.21474882596228"><ele>10.0</ele><time>2026-04-29T16:56:03Z</time></trkpt><trkpt lat="43.66669810223936" lon="7.214841383104992"><ele>10.0</ele><time>2026-04-29T16:56:04Z</time></trkpt><trkpt lat="43.66670843115428" lon="7.214929917819821"><ele>10.0</ele><time>2026-04-29T16:56:05Z</time></trkpt><trkpt lat="43.66673088633445" lon="7.215094673056807"><ele>10.0</ele><time>2026-04-29T16:56:07Z</time></trkpt><trkpt lat="43.66675302991323" lon="7.215252091745696"><ele>10.0</ele><time>2026-04-29T16:56:09Z</time></trkpt><trkpt lat="43.66677654161412" lon="7.2154016352650245"><ele>10.0</ele><time>2026-04-29T16:56:11Z</time></trkpt><trkpt lat="43.66679608651119" lon="7.215541713909597"><ele>9.666666666666668</ele><time>2026-04-29T16:56:13Z</time></trkpt><trkpt lat="43.66681389335213" lon="7.215677239681428"><ele>9.333333333333334</ele><time>2026-04-29T16:56:15Z</time></trkpt><trkpt lat="43.66681669898539" lon="7.215835889134948"><ele>9.0</ele><time>2026-04-29T16:56:17Z</time></trkpt><trkpt lat="43.66682720786272" lon="7.215923685753854"><ele>8.666666666666666</ele><time>2026-04-29T16:56:18Z</time></trkpt><trkpt lat="43.666839471850516" lon="7.216025438914644"><ele>8.333333333333332</ele><time>2026-04-29T16:56:19Z</time></trkpt><trkpt lat="43.666852281118594" lon="7.216131716227754"><ele>8.0</ele><time>2026-04-29T16:56:20Z</time></trkpt><trkpt lat="43.66686548932335" lon="7.216241303508807"><ele>8.0</ele><time>2026-04-29T16:56:21Z</time></trkpt><trkpt lat="43.66687881349519" lon="7.216347296183354"><ele>7.999999999999999</ele><time>2026-04-29T16:56:22Z</time></trkpt><trkpt lat="43.66689181045722" lon="7.2164492631871555"><ele>8.0</ele><time>2026-04-29T16:56:23Z</time></trkpt><trkpt lat="43.66690463050142" lon="7.216549328988371"><ele>8.0</ele><time>2026-04-29T16:56:24Z</time></trkpt><trkpt lat="43.66691697982573" lon="7.216644058015166"><ele>7.999999999999999</ele><time>2026-04-29T16:56:25Z</time></trkpt><trkpt lat="43.666930333177056" lon="7.216742113799953"><ele>8.0</ele><time>2026-04-29T16:56:26Z</time></trkpt><trkpt lat="43.666945129315124" lon="7.216840924026805"><ele>8.0</ele><time>2026-04-29T16:56:27Z</time></trkpt><trkpt lat="43.666960603318365" lon="7.216939514524823"><ele>8.0</ele><time>2026-04-29T16:56:28Z</time></trkpt><trkpt lat="43.66697590200816" lon="7.217033360311642"><ele>7.999999999999999</ele><time>2026-04-29T16:56:29Z</time></trkpt><trkpt lat="43.66699361429424" lon="7.21713116842247"><ele>8.0</ele><time>2026-04-29T16:56:30Z</time></trkpt><trkpt lat="43.66701263713824" lon="7.217235203264289"><ele>8.0</ele><time>2026-04-29T16:56:31Z</time></trkpt><trkpt lat="43.66703229797798" lon="7.217325568786684"><ele>7.999999999999999</ele><time>2026-04-29T16:56:31.999Z</time></trkpt><trkpt lat="43.66705183672215" lon="7.217418305725187"><ele>8.0</ele><time>2026-04-29T16:56:32.999Z</time></trkpt><trkpt lat="43.66707214602646" lon="7.217511174811172"><ele>8.0</ele><time>2026-04-29T16:56:33.999Z</time></trkpt><trkpt lat="43.66709504220291" lon="7.217604645633893"><ele>7.7142857142857135</ele><time>2026-04-29T16:56:34.999Z</time></trkpt><trkpt lat="43.6671186728255" lon="7.217697810057827"><ele>7.428571428571428</ele><time>2026-04-29T16:56:35.999Z</time></trkpt><trkpt lat="43.66714289913749" lon="7.2177872182556975"><ele>7.142857142857142</ele><time>2026-04-29T16:56:36.999Z</time></trkpt><trkpt lat="43.66716795289972" lon="7.217872774287795"><ele>6.857142857142857</ele><time>2026-04-29T16:56:37.999Z</time></trkpt><trkpt lat="43.667192177086314" lon="7.21795492576426"><ele>6.571428571428571</ele><time>2026-04-29T16:56:38.999Z</time></trkpt><trkpt lat="43.66721855858295" lon="7.218042333325806"><ele>6.285714285714285</ele><time>2026-04-29T16:56:39.999Z</time></trkpt><trkpt lat="43.66724941928654" lon="7.218141606055932"><ele>6.0</ele><time>2026-04-29T16:56:40.999Z</time></trkpt><trkpt lat="43.667280111670316" lon="7.218240369932409"><ele>5.833333333333333</ele><time>2026-04-29T16:56:41.999Z</time></trkpt><trkpt lat="43.667310770260826" lon="7.218335459467946"><ele>5.666666666666667</ele><time>2026-04-29T16:56:42.999Z</time></trkpt><trkpt lat="43.66734275405543" lon="7.218434877113833"><ele>5.5</ele><time>2026-04-29T16:56:43.999Z</time></trkpt><trkpt lat="43.667377417268504" lon="7.2185372847781375"><ele>5.333333333333334</ele><time>2026-04-29T16:56:44.999Z</time></trkpt><trkpt lat="43.66741356475138" lon="7.21863965335762"><ele>5.166666666666667</ele><time>2026-04-29T16:56:45.999Z</time></trkpt><trkpt lat="43.667448883797285" lon="7.218735858321892"><ele>5.0</ele><time>2026-04-29T16:56:46.999Z</time></trkpt><trkpt lat="43.66748529170334" lon="7.2188320866454285"><ele>5.0</ele><time>2026-04-29T16:56:47.999Z</time></trkpt><trkpt lat="43.66752288171853" lon="7.2189283716822485"><ele>5.0</ele><time>2026-04-29T16:56:48.999Z</time></trkpt><trkpt lat="43.66756169573283" lon="7.219023476710611"><ele>5.0</ele><time>2026-04-29T16:56:49.999Z</time></trkpt><trkpt lat="43.6676007915826" lon="7.21911513269568"><ele>5.0</ele><time>2026-04-29T16:56:50.999Z</time></trkpt><trkpt lat="43.667638150701606" lon="7.219200840229777"><ele>5.0</ele><time>2026-04-29T16:56:51.999Z</time></trkpt><trkpt lat="43.66768939834614" lon="7.219313190784131"><ele>5.0</ele><time>2026-04-29T16:56:53.999Z</time></trkpt><trkpt lat="43.6677405940174" lon="7.2194224174766894"><ele>5.166666666666667</ele><time>2026-04-29T16:56:55.999Z</time></trkpt><trkpt lat="43.66777724402704" lon="7.219499628552892"><ele>5.333333333333334</ele><time>2026-04-29T16:56:56.999Z</time></trkpt><trkpt lat="43.66782154412951" lon="7.219589945170134"><ele>5.5</ele><time>2026-04-29T16:56:57.999Z</time></trkpt><trkpt lat="43.66786486580519" lon="7.21967725627263"><ele>5.666666666666667</ele><time>2026-04-29T16:56:58.999Z</time></trkpt><trkpt lat="43.667905819369686" lon="7.219758764252246"><ele>5.833333333333333</ele><time>2026-04-29T16:56:59.999Z</time></trkpt><trkpt lat="43.66797017180642" lon="7.219883959511118"><ele>6.0</ele><time>2026-04-29T16:57:01.999Z</time></trkpt><trkpt lat="43.66803879799504" lon="7.220014488228175"><ele>6.0</ele><time>2026-04-29T16:57:03.999Z</time></trkpt><trkpt lat="43.66809087347111" lon="7.220108972822052"><ele>6.0</ele><time>2026-04-29T16:57:05.999Z</time></trkpt><trkpt lat="43.66814661360691" lon="7.220203520912642"><ele>6.0</ele><time>2026-04-29T16:57:08Z</time></trkpt><trkpt lat="43.66818949377488" lon="7.220273739751038"><ele>6.0</ele><time>2026-04-29T16:57:11Z</time></trkpt><trkpt lat="43.66823849844124" lon="7.220351921364512"><ele>6.0</ele><time>2026-04-29T16:57:37Z</time></trkpt><trkpt lat="43.668287150069816" lon="7.220427252743173"><ele>6.0</ele><time>2026-04-29T16:57:39Z</time></trkpt><trkpt lat="43.668347270623364" lon="7.220517717412844"><ele>5.999999999999999</ele><time>2026-04-29T16:57:41Z</time></trkpt><trkpt lat="43.66840754719082" lon="7.220607796394723"><ele>6.0</ele><time>2026-04-29T16:57:42.999Z</time></trkpt><trkpt lat="43.668452280286566" lon="7.2206746473683205"><ele>6.0</ele><time>2026-04-29T16:57:44.999Z</time></trkpt><trkpt lat="43.668508613413465" lon="7.220722819459833"><ele>6.0</ele><time>2026-04-29T16:57:46.999Z</time></trkpt><trkpt lat="43.6685710454829" lon="7.220758431251882"><ele>6.0</ele><time>2026-04-29T16:57:48.999Z</time></trkpt><trkpt lat="43.66861512767034" lon="7.220823713724799"><ele>5.999999999999999</ele><time>2026-04-29T16:57:51.999Z</time></trkpt><trkpt lat="43.668662116325905" lon="7.220905112403135"><ele>6.0</ele><time>2026-04-29T16:58:05.999Z</time></trkpt><trkpt lat="43.66875491466291" lon="7.2210311258602164"><ele>6.199999999999999</ele><time>2026-04-29T16:58:07.999Z</time></trkpt><trkpt lat="43.66880824538647" lon="7.221101025364639"><ele>6.3999999999999995</ele><time>2026-04-29T16:58:08.999Z</time></trkpt><trkpt lat="43.668868832718324" lon="7.221182457154595"><ele>6.6</ele><time>2026-04-29T16:58:09.999Z</time></trkpt><trkpt lat="43.668933002505725" lon="7.221275688941534"><ele>6.8</ele><time>2026-04-29T16:58:10.999Z</time></trkpt><trkpt lat="43.668999906032745" lon="7.221373068003339"><ele>7.0</ele><time>2026-04-29T16:58:11.999Z</time></trkpt><trkpt lat="43.66907292176232" lon="7.221473678990796"><ele>6.8</ele><time>2026-04-29T16:58:12.999Z</time></trkpt><trkpt lat="43.66914977398782" lon="7.22157364861566"><ele>6.6</ele><time>2026-04-29T16:58:13.999Z</time></trkpt><trkpt lat="43.66921534293099" lon="7.221699754214381"><ele>6.3999999999999995</ele><time>2026-04-29T16:58:14.999Z</time></trkpt><trkpt lat="43.66930805097873" lon="7.221792393122732"><ele>6.199999999999999</ele><time>2026-04-29T16:58:15.999Z</time></trkpt><trkpt lat="43.66938672875226" lon="7.221906863153659"><ele>6.0</ele><time>2026-04-29T16:58:16.999Z</time></trkpt><trkpt lat="43.66944963210169" lon="7.222021198552361"><ele>6.5</ele><time>2026-04-29T16:58:17.999Z</time></trkpt><trkpt lat="43.66954356372731" lon="7.222136850316507"><ele>7.0</ele><time>2026-04-29T16:58:18.999Z</time></trkpt><trkpt lat="43.66962712909927" lon="7.222246342612134"><ele>7.5</ele><time>2026-04-29T16:58:19.999Z</time></trkpt><trkpt lat="43.66970917334217" lon="7.222359873403761"><ele>8.0</ele><time>2026-04-29T16:58:20.999Z</time></trkpt><trkpt lat="43.66979053132524" lon="7.22247370928333"><ele>8.75</ele><time>2026-04-29T16:58:21.999Z</time></trkpt><trkpt lat="43.66987241494863" lon="7.222592859332065"><ele>9.5</ele><time>2026-04-29T16:58:22.999Z</time></trkpt><trkpt lat="43.66995741704185" lon="7.222709533688943"><ele>10.25</ele><time>2026-04-29T16:58:23.999Z</time></trkpt><trkpt lat="43.67003960718192" lon="7.222821645861615"><ele>11.0</ele><time>2026-04-29T16:58:24.999Z</time></trkpt><trkpt lat="43.67012246715293" lon="7.222933038880494"><ele>11.0</ele><time>2026-04-29T16:58:25.999Z</time></trkpt><trkpt lat="43.67020371887049" lon="7.223037105778582"><ele>11.0</ele><time>2026-04-29T16:58:26.999Z</time></trkpt><trkpt lat="43.670278112823006" lon="7.22313728837297"><ele>11.0</ele><time>2026-04-29T16:58:27.999Z</time></trkpt><trkpt lat="43.67034661108659" lon="7.223234586450524"><ele>11.0</ele><time>2026-04-29T16:58:28.999Z</time></trkpt><trkpt lat="43.6704154338059" lon="7.223332471922436"><ele>11.0</ele><time>2026-04-29T16:58:29.999Z</time></trkpt><trkpt lat="43.67048485523162" lon="7.22342269979054"><ele>10.666666666666666</ele><time>2026-04-29T16:58:30.999Z</time></trkpt><trkpt lat="43.67055031476062" lon="7.223513107164549"><ele>10.333333333333332</ele><time>2026-04-29T16:58:31.999Z</time></trkpt><trkpt lat="43.67061107541222" lon="7.2236008115046495"><ele>10.0</ele><time>2026-04-29T16:58:32.999Z</time></trkpt><trkpt lat="43.670670587887365" lon="7.223685857086973"><ele>9.666666666666666</ele><time>2026-04-29T16:58:33.999Z</time></trkpt><trkpt lat="43.67073107065545" lon="7.223768748242316"><ele>9.333333333333334</ele><time>2026-04-29T16:58:34.999Z</time></trkpt><trkpt lat="43.670794322265415" lon="7.223850326693796"><ele>9.0</ele><time>2026-04-29T16:58:35.999Z</time></trkpt><trkpt lat="43.67084911553618" lon="7.223926651889878"><ele>9.0</ele><time>2026-04-29T16:58:36.999Z</time></trkpt><trkpt lat="43.67090711421493" lon="7.2240002821214615"><ele>9.0</ele><time>2026-04-29T16:58:37.999Z</time></trkpt><trkpt lat="43.67095811475117" lon="7.2240651711177435"><ele>9.0</ele><time>2026-04-29T16:58:38.999Z</time></trkpt><trkpt lat="43.671028060729206" lon="7.224164910039759"><ele>9.0</ele><time>2026-04-29T16:58:40.999Z</time></trkpt><trkpt lat="43.67108374697532" lon="7.224238308391944"><ele>9.0</ele><time>2026-04-29T16:58:42.999Z</time></trkpt><trkpt lat="43.67113186824786" lon="7.224308699474843"><ele>9.0</ele><time>2026-04-29T16:58:44.999Z</time></trkpt><trkpt lat="43.67118073789826" lon="7.22438104009553"><ele>8.8</ele><time>2026-04-29T16:58:48.999Z</time></trkpt><trkpt lat="43.67123666197228" lon="7.224450701805433"><ele>8.600000000000001</ele><time>2026-04-29T16:59:08.999Z</time></trkpt><trkpt lat="43.671315480126445" lon="7.2245575910630055"><ele>8.4</ele><time>2026-04-29T16:59:10.999Z</time></trkpt><trkpt lat="43.6714107248345" lon="7.22468746068417"><ele>8.200000000000001</ele><time>2026-04-29T16:59:13Z</time></trkpt><trkpt lat="43.6714732874159" lon="7.22477026157603"><ele>8.0</ele><time>2026-04-29T16:59:14Z</time></trkpt><trkpt lat="43.67154271643919" lon="7.2248627456791406"><ele>7.800000000000001</ele><time>2026-04-29T16:59:15Z</time></trkpt><trkpt lat="43.671611646322155" lon="7.224957723311426"><ele>7.6000000000000005</ele><time>2026-04-29T16:59:16Z</time></trkpt><trkpt lat="43.671694978070526" lon="7.225057398900748"><ele>7.3999999999999995</ele><time>2026-04-29T16:59:17Z</time></trkpt><trkpt lat="43.671776412602995" lon="7.2251632108839265"><ele>7.199999999999999</ele><time>2026-04-29T16:59:18Z</time></trkpt><trkpt lat="43.67185369371524" lon="7.225276044179799"><ele>7.0</ele><time>2026-04-29T16:59:19Z</time></trkpt><trkpt lat="43.671938984996814" lon="7.225375232010198"><ele>7.0</ele><time>2026-04-29T16:59:20Z</time></trkpt><trkpt lat="43.67202489525595" lon="7.225449005227561"><ele>6.999999999999999</ele><time>2026-04-29T16:59:21Z</time></trkpt><trkpt lat="43.67210796977475" lon="7.2255497260052675"><ele>6.999999999999999</ele><time>2026-04-29T16:59:22Z</time></trkpt><trkpt lat="43.67220197129913" lon="7.2256455488583535"><ele>7.0</ele><time>2026-04-29T16:59:23Z</time></trkpt><trkpt lat="43.67229479208341" lon="7.2257445730031264"><ele>7.0</ele><time>2026-04-29T16:59:24Z</time></trkpt><trkpt lat="43.67239226475172" lon="7.225836562855449"><ele>7.0</ele><time>2026-04-29T16:59:25Z</time></trkpt><trkpt lat="43.67248777543777" lon="7.225934638829948"><ele>7.0</ele><time>2026-04-29T16:59:26Z</time></trkpt><trkpt lat="43.672581673176715" lon="7.226025612696925"><ele>7.0</ele><time>2026-04-29T16:59:27Z</time></trkpt><trkpt lat="43.67267804459313" lon="7.22610987017025"><ele>7.0</ele><time>2026-04-29T16:59:28Z</time></trkpt><trkpt lat="43.672774115323506" lon="7.226198081864288"><ele>7.0</ele><time>2026-04-29T16:59:29Z</time></trkpt><trkpt lat="43.67287183628166" lon="7.2262820367720355"><ele>7.0</ele><time>2026-04-29T16:59:30Z</time></trkpt><trkpt lat="43.67297307252953" lon="7.226369888533741"><ele>7.0</ele><time>2026-04-29T16:59:31Z</time></trkpt><trkpt lat="43.67307419245098" lon="7.2264551973145466"><ele>7.0</ele><time>2026-04-29T16:59:32Z</time></trkpt><trkpt lat="43.67317793762128" lon="7.2265404342833275"><ele>7.5</ele><time>2026-04-29T16:59:33Z</time></trkpt><trkpt lat="43.67328216733569" lon="7.226626432280882"><ele>8.0</ele><time>2026-04-29T16:59:34Z</time></trkpt><trkpt lat="43.673387456576634" lon="7.226706046702925"><ele>8.5</ele><time>2026-04-29T16:59:35Z</time></trkpt><trkpt lat="43.673494265456355" lon="7.226782475728785"><ele>9.0</ele><time>2026-04-29T16:59:36Z</time></trkpt><trkpt lat="43.67359797939587" lon="7.2268521891036"><ele>8.8</ele><time>2026-04-29T16:59:37Z</time></trkpt><trkpt lat="43.673706222865206" lon="7.226919831033055"><ele>8.600000000000001</ele><time>2026-04-29T16:59:38Z</time></trkpt><trkpt lat="43.67380746211524" lon="7.226981965295701"><ele>8.4</ele><time>2026-04-29T16:59:39Z</time></trkpt><trkpt lat="43.67390487894263" lon="7.227039620205035"><ele>8.200000000000001</ele><time>2026-04-29T16:59:40Z</time></trkpt><trkpt lat="43.67400199928302" lon="7.2270957399189735"><ele>8.0</ele><time>2026-04-29T16:59:41Z</time></trkpt><trkpt lat="43.674095899326005" lon="7.227150178844829"><ele>8.0</ele><time>2026-04-29T16:59:42Z</time></trkpt><trkpt lat="43.674195111751466" lon="7.227207740003578"><ele>8.0</ele><time>2026-04-29T16:59:43Z</time></trkpt><trkpt lat="43.674294003802004" lon="7.227272177718262"><ele>8.0</ele><time>2026-04-29T16:59:44Z</time></trkpt><trkpt lat="43.67439411875708" lon="7.227325164149364"><ele>8.0</ele><time>2026-04-29T16:59:45Z</time></trkpt><trkpt lat="43.67449085336735" lon="7.227380115736061"><ele>8.0</ele><time>2026-04-29T16:59:46Z</time></trkpt><trkpt lat="43.67458666255254" lon="7.227433295406878"><ele>7.800000000000001</ele><time>2026-04-29T16:59:47Z</time></trkpt><trkpt lat="43.674679728499214" lon="7.2274858784495155"><ele>7.6000000000000005</ele><time>2026-04-29T16:59:48Z</time></trkpt><trkpt lat="43.674768732946106" lon="7.22753741948417"><ele>7.3999999999999995</ele><time>2026-04-29T16:59:49Z</time></trkpt><trkpt lat="43.67486328528513" lon="7.227588550255276"><ele>7.199999999999999</ele><time>2026-04-29T16:59:50Z</time></trkpt><trkpt lat="43.67496119439298" lon="7.2276442199519195"><ele>7.0</ele><time>2026-04-29T16:59:51Z</time></trkpt><trkpt lat="43.675058631385305" lon="7.2277003073214425"><ele>7.0</ele><time>2026-04-29T16:59:52Z</time></trkpt><trkpt lat="43.67515673548017" lon="7.227749358355991"><ele>6.999999999999999</ele><time>2026-04-29T16:59:53Z</time></trkpt><trkpt lat="43.67524954616472" lon="7.22779288438223"><ele>6.999999999999999</ele><time>2026-04-29T16:59:54Z</time></trkpt><trkpt lat="43.675341522905946" lon="7.227841714243681"><ele>7.0</ele><time>2026-04-29T16:59:55Z</time></trkpt><trkpt lat="43.67543439279951" lon="7.22789597337721"><ele>7.0</ele><time>2026-04-29T16:59:56Z</time></trkpt><trkpt lat="43.67552669856262" lon="7.227951095710994"><ele>7.3999999999999995</ele><time>2026-04-29T16:59:57Z</time></trkpt><trkpt lat="43.67561876667623" lon="7.228005922673921"><ele>7.799999999999999</ele><time>2026-04-29T16:59:58Z</time></trkpt><trkpt lat="43.675711279297545" lon="7.228059851943385"><ele>8.2</ele><time>2026-04-29T16:59:59Z</time></trkpt><trkpt lat="43.67580655163073" lon="7.228115114331972"><ele>8.6</ele><time>2026-04-29T17:00:00Z</time></trkpt><trkpt lat="43.67590270042095" lon="7.228169893997715"><ele>9.0</ele><time>2026-04-29T17:00:01Z</time></trkpt><trkpt lat="43.67599906252196" lon="7.228227399060694"><ele>8.666666666666666</ele><time>2026-04-29T17:00:01.999Z</time></trkpt><trkpt lat="43.6760877825544" lon="7.228279612495079"><ele>8.333333333333334</ele><time>2026-04-29T17:00:02.999Z</time></trkpt><trkpt lat="43.676173699947505" lon="7.228326416636968"><ele>8.0</ele><time>2026-04-29T17:00:03.999Z</time></trkpt><trkpt lat="43.67626034608064" lon="7.228373114445232"><ele>7.666666666666667</ele><time>2026-04-29T17:00:04.999Z</time></trkpt><trkpt lat="43.67633957647303" lon="7.228419331215482"><ele>7.333333333333334</ele><time>2026-04-29T17:00:05.999Z</time></trkpt><trkpt lat="43.676405402244214" lon="7.228458993507842"><ele>7.0</ele><time>2026-04-29T17:00:06.999Z</time></trkpt><trkpt lat="43.67651917191116" lon="7.2285342061574065"><ele>7.0</ele><time>2026-04-29T17:00:08.999Z</time></trkpt><trkpt lat="43.67659064161136" lon="7.228585411056757"><ele>6.999999999999999</ele><time>2026-04-29T17:00:09.999Z</time></trkpt><trkpt lat="43.676679290504886" lon="7.228644236459613"><ele>6.999999999999999</ele><time>2026-04-29T17:00:10.999Z</time></trkpt><trkpt lat="43.67677282025032" lon="7.228700989693733"><ele>7.0</ele><time>2026-04-29T17:00:11.999Z</time></trkpt><trkpt lat="43.67686779572215" lon="7.228754755845619"><ele>7.0</ele><time>2026-04-29T17:00:12.999Z</time></trkpt><trkpt lat="43.67696150640998" lon="7.228807368820271"><ele>7.166666666666667</ele><time>2026-04-29T17:00:13.999Z</time></trkpt><trkpt lat="43.67705150708389" lon="7.228857557767419"><ele>7.333333333333334</ele><time>2026-04-29T17:00:14.999Z</time></trkpt><trkpt lat="43.677137711854094" lon="7.228901388409852"><ele>7.5</ele><time>2026-04-29T17:00:15.999Z</time></trkpt><trkpt lat="43.67722052301339" lon="7.228948364209924"><ele>7.666666666666666</ele><time>2026-04-29T17:00:16.999Z</time></trkpt><trkpt lat="43.677300286257676" lon="7.22899688154448"><ele>7.833333333333333</ele><time>2026-04-29T17:00:17.999Z</time></trkpt><trkpt lat="43.67737269220439" lon="7.229041278132397"><ele>8.0</ele><time>2026-04-29T17:00:18.999Z</time></trkpt><trkpt lat="43.67744212415499" lon="7.229082084657625"><ele>7.999999999999999</ele><time>2026-04-29T17:00:19.999Z</time></trkpt><trkpt lat="43.67751621410575" lon="7.229126539761173"><ele>8.0</ele><time>2026-04-29T17:00:20.999Z</time></trkpt><trkpt lat="43.67758832647128" lon="7.22917086284251"><ele>8.0</ele><time>2026-04-29T17:00:21.999Z</time></trkpt><trkpt lat="43.6776587355341" lon="7.2292139283012995"><ele>8.0</ele><time>2026-04-29T17:00:22.999Z</time></trkpt><trkpt lat="43.6777329820523" lon="7.229258145644272"><ele>7.999999999999999</ele><time>2026-04-29T17:00:23.999Z</time></trkpt><trkpt lat="43.6778050823094" lon="7.229301537873264"><ele>8.0</ele><time>2026-04-29T17:00:24.999Z</time></trkpt><trkpt lat="43.677877707178105" lon="7.229346682635615"><ele>8.666666666666666</ele><time>2026-04-29T17:00:25.999Z</time></trkpt><trkpt lat="43.677952326733646" lon="7.2293935763808115"><ele>9.333333333333332</ele><time>2026-04-29T17:00:26.999Z</time></trkpt><trkpt lat="43.6780254251955" lon="7.229440394708773"><ele>10.0</ele><time>2026-04-29T17:00:27.999Z</time></trkpt><trkpt lat="43.67809873116391" lon="7.2294903658333105"><ele>10.666666666666666</ele><time>2026-04-29T17:00:28.999Z</time></trkpt><trkpt lat="43.678171810883725" lon="7.229540664689895"><ele>11.333333333333334</ele><time>2026-04-29T17:00:29.999Z</time></trkpt><trkpt lat="43.67824250685141" lon="7.229589115718207"><ele>12.0</ele><time>2026-04-29T17:00:30.999Z</time></trkpt><trkpt lat="43.67831286314346" lon="7.229637114461457"><ele>12.0</ele><time>2026-04-29T17:00:31.999Z</time></trkpt><trkpt lat="43.678380503869924" lon="7.229684649090474"><ele>12.0</ele><time>2026-04-29T17:00:32.999Z</time></trkpt><trkpt lat="43.67844660997338" lon="7.229733925545406"><ele>12.0</ele><time>2026-04-29T17:00:33.999Z</time></trkpt><trkpt lat="43.67851127662371" lon="7.229779811469748"><ele>12.0</ele><time>2026-04-29T17:00:34.999Z</time></trkpt><trkpt lat="43.67857840985616" lon="7.2298274532479345"><ele>12.0</ele><time>2026-04-29T17:00:35.999Z</time></trkpt><trkpt lat="43.678648997670514" lon="7.229874243471619"><ele>12.0</ele><time>2026-04-29T17:00:36.999Z</time></trkpt><trkpt lat="43.67871711522023" lon="7.229922201757774"><ele>12.0</ele><time>2026-04-29T17:00:37.999Z</time></trkpt><trkpt lat="43.678784612025616" lon="7.229972340101657"><ele>12.0</ele><time>2026-04-29T17:00:38.999Z</time></trkpt><trkpt lat="43.678851610022555" lon="7.230021879414022"><ele>12.0</ele><time>2026-04-29T17:00:39.999Z</time></trkpt><trkpt lat="43.67891644657159" lon="7.230070434246072"><ele>12.0</ele><time>2026-04-29T17:00:40.999Z</time></trkpt><trkpt lat="43.67897075851023" lon="7.2301160586278845"><ele>12.0</ele><time>2026-04-29T17:00:41.999Z</time></trkpt><trkpt lat="43.67908252776222" lon="7.23019954889551"><ele>12.0</ele><time>2026-04-29T17:00:43.999Z</time></trkpt><trkpt lat="43.67914268161275" lon="7.2302447819728375"><ele>11.999999999999998</ele><time>2026-04-29T17:00:44.999Z</time></trkpt><trkpt lat="43.679205911809056" lon="7.230291264646081"><ele>12.0</ele><time>2026-04-29T17:00:45.999Z</time></trkpt><trkpt lat="43.67926664137167" lon="7.23033367279891"><ele>12.0</ele><time>2026-04-29T17:00:46.999Z</time></trkpt><trkpt lat="43.679329345079346" lon="7.230376538633941"><ele>12.0</ele><time>2026-04-29T17:00:47.999Z</time></trkpt><trkpt lat="43.6793940297026" lon="7.230422691493497"><ele>12.0</ele><time>2026-04-29T17:00:48.999Z</time></trkpt><trkpt lat="43.67945984627562" lon="7.2304743208946745"><ele>11.999999999999998</ele><time>2026-04-29T17:00:49.999Z</time></trkpt><trkpt lat="43.67952591658408" lon="7.230524835722582"><ele>12.0</ele><time>2026-04-29T17:00:50.999Z</time></trkpt><trkpt lat="43.679594418534485" lon="7.230576595496944"><ele>12.285714285714285</ele><time>2026-04-29T17:00:51.999Z</time></trkpt><trkpt lat="43.67966479496881" lon="7.230631468162851"><ele>12.571428571428571</ele><time>2026-04-29T17:00:52.999Z</time></trkpt><trkpt lat="43.67972957380925" lon="7.230681212098893"><ele>12.857142857142858</ele><time>2026-04-29T17:00:53.999Z</time></trkpt><trkpt lat="43.67979053756339" lon="7.230729801716542"><ele>13.142857142857142</ele><time>2026-04-29T17:00:54.999Z</time></trkpt><trkpt lat="43.67985169947275" lon="7.230776089165695"><ele>13.428571428571429</ele><time>2026-04-29T17:00:55.999Z</time></trkpt><trkpt lat="43.67991059774695" lon="7.230822241707575"><ele>13.714285714285714</ele><time>2026-04-29T17:00:56.999Z</time></trkpt><trkpt lat="43.679971002597924" lon="7.230868568906177"><ele>14.0</ele><time>2026-04-29T17:00:57.999Z</time></trkpt><trkpt lat="43.68003249738319" lon="7.230916302138854"><ele>14.166666666666668</ele><time>2026-04-29T17:00:58.999Z</time></trkpt><trkpt lat="43.68009360048896" lon="7.230962531694242"><ele>14.333333333333334</ele><time>2026-04-29T17:00:59.999Z</time></trkpt><trkpt lat="43.68015664129024" lon="7.231009348571041"><ele>14.5</ele><time>2026-04-29T17:01:00.999Z</time></trkpt><trkpt lat="43.68021388375196" lon="7.231053740591511"><ele>14.666666666666668</ele><time>2026-04-29T17:01:01.999Z</time></trkpt><trkpt lat="43.680309024510365" lon="7.231127869972406"><ele>14.833333333333334</ele><time>2026-04-29T17:01:03.999Z</time></trkpt><trkpt lat="43.68038027242292" lon="7.231186699383803"><ele>15.0</ele><time>2026-04-29T17:01:05.999Z</time></trkpt><trkpt lat="43.68044289284449" lon="7.231238607992504"><ele>15.0</ele><time>2026-04-29T17:01:07.999Z</time></trkpt><trkpt lat="43.68051620997386" lon="7.231305017104973"><ele>15.0</ele><time>2026-04-29T17:01:10.999Z</time></trkpt><trkpt lat="43.680576901191344" lon="7.231364396836067"><ele>15.0</ele><time>2026-04-29T17:01:32Z</time></trkpt><trkpt lat="43.68065998102293" lon="7.2314330789076635"><ele>15.0</ele><time>2026-04-29T17:01:35Z</time></trkpt><trkpt lat="43.68074280679088" lon="7.231506583406513"><ele>15.0</ele><time>2026-04-29T17:01:37Z</time></trkpt><trkpt lat="43.68083853746685" lon="7.231588107209476"><ele>13.8</ele><time>2026-04-29T17:01:39Z</time></trkpt><trkpt lat="43.6809282148789" lon="7.231673437698847"><ele>12.6</ele><time>2026-04-29T17:01:41Z</time></trkpt><trkpt lat="43.68101392089803" lon="7.23175455026951"><ele>11.4</ele><time>2026-04-29T17:01:43Z</time></trkpt><trkpt lat="43.681081726034996" lon="7.231824508156117"><ele>10.2</ele><time>2026-04-29T17:01:45Z</time></trkpt><trkpt lat="43.68115107465155" lon="7.23189299757778"><ele>9.0</ele><time>2026-04-29T17:01:47Z</time></trkpt><trkpt lat="43.68121082103852" lon="7.231957312340285"><ele>9.0</ele><time>2026-04-29T17:01:49Z</time></trkpt><trkpt lat="43.68126087276008" lon="7.232015738921165"><ele>9.0</ele><time>2026-04-29T17:01:51Z</time></trkpt><trkpt lat="43.681316330020984" lon="7.232072677249962"><ele>9.0</ele><time>2026-04-29T17:01:53Z</time></trkpt><trkpt lat="43.68137866084745" lon="7.232140373243343"><ele>9.0</ele><time>2026-04-29T17:01:56Z</time></trkpt><trkpt lat="43.68144464275099" lon="7.232211212777243"><ele>9.0</ele><time>2026-04-29T17:01:59Z</time></trkpt><trkpt lat="43.68151296199595" lon="7.232283493917136"><ele>9.0</ele><time>2026-04-29T17:02:01Z</time></trkpt><trkpt lat="43.681601784380014" lon="7.232376399994716"><ele>8.6</ele><time>2026-04-29T17:02:03Z</time></trkpt><trkpt lat="43.68169106871056" lon="7.232477355783827"><ele>8.2</ele><time>2026-04-29T17:02:05Z</time></trkpt><trkpt lat="43.681779292734" lon="7.232572567214583"><ele>7.799999999999999</ele><time>2026-04-29T17:02:07Z</time></trkpt><trkpt lat="43.68185394181973" lon="7.2326549457806495"><ele>7.3999999999999995</ele><time>2026-04-29T17:02:09Z</time></trkpt><trkpt lat="43.68194045066071" lon="7.2327536091652975"><ele>7.0</ele><time>2026-04-29T17:02:11Z</time></trkpt><trkpt lat="43.681994056570225" lon="7.232808687777314"><ele>7.666666666666667</ele><time>2026-04-29T17:02:12Z</time></trkpt><trkpt lat="43.68205103343405" lon="7.232868084799364"><ele>8.333333333333334</ele><time>2026-04-29T17:02:13Z</time></trkpt><trkpt lat="43.68210866415647" lon="7.232930774881982"><ele>9.0</ele><time>2026-04-29T17:02:14Z</time></trkpt><trkpt lat="43.68216553143685" lon="7.2329928897131355"><ele>9.666666666666666</ele><time>2026-04-29T17:02:15Z</time></trkpt><trkpt lat="43.682226255869125" lon="7.23306442070298"><ele>10.333333333333332</ele><time>2026-04-29T17:02:16Z</time></trkpt><trkpt lat="43.682289353124666" lon="7.233134122970591"><ele>11.0</ele><time>2026-04-29T17:02:17Z</time></trkpt><trkpt lat="43.682351588939554" lon="7.233202854239042"><ele>11.0</ele><time>2026-04-29T17:02:18Z</time></trkpt><trkpt lat="43.68241407026935" lon="7.233271779742423"><ele>11.0</ele><time>2026-04-29T17:02:19Z</time></trkpt><trkpt lat="43.68247463278419" lon="7.233338475501296"><ele>11.0</ele><time>2026-04-29T17:02:20Z</time></trkpt><trkpt lat="43.68253500802014" lon="7.233403763027486"><ele>11.0</ele><time>2026-04-29T17:02:21Z</time></trkpt><trkpt lat="43.682592910439425" lon="7.233468007668338"><ele>11.0</ele><time>2026-04-29T17:02:22Z</time></trkpt><trkpt lat="43.6826554686605" lon="7.233536600256984"><ele>11.0</ele><time>2026-04-29T17:02:23Z</time></trkpt><trkpt lat="43.68272173373934" lon="7.2336079415559515"><ele>10.833333333333332</ele><time>2026-04-29T17:02:24Z</time></trkpt><trkpt lat="43.6827867327764" lon="7.233680635003371"><ele>10.666666666666666</ele><time>2026-04-29T17:02:25Z</time></trkpt><trkpt lat="43.68285415322736" lon="7.2337532200727805"><ele>10.5</ele><time>2026-04-29T17:02:26Z</time></trkpt><trkpt lat="43.68292057213366" lon="7.2338288534619934"><ele>10.333333333333334</ele><time>2026-04-29T17:02:27Z</time></trkpt><trkpt lat="43.68298411171414" lon="7.233903194356309"><ele>10.166666666666668</ele><time>2026-04-29T17:02:28Z</time></trkpt><trkpt lat="43.68304397383652" lon="7.23398173264718"><ele>10.0</ele><time>2026-04-29T17:02:29Z</time></trkpt><trkpt lat="43.68312250793893" lon="7.234037419608856"><ele>9.833333333333334</ele><time>2026-04-29T17:02:30Z</time></trkpt><trkpt lat="43.68318626409178" lon="7.234110922808642"><ele>9.666666666666668</ele><time>2026-04-29T17:02:31Z</time></trkpt><trkpt lat="43.68325245423912" lon="7.234187127433381"><ele>9.5</ele><time>2026-04-29T17:02:32Z</time></trkpt><trkpt lat="43.68331868008779" lon="7.234261059939655"><ele>9.333333333333334</ele><time>2026-04-29T17:02:33Z</time></trkpt><trkpt lat="43.683384339762775" lon="7.234329445050131"><ele>9.166666666666666</ele><time>2026-04-29T17:02:34Z</time></trkpt><trkpt lat="43.68344954226725" lon="7.234400065422085"><ele>9.0</ele><time>2026-04-29T17:02:35Z</time></trkpt><trkpt lat="43.68352051927719" lon="7.234478798899212"><ele>9.0</ele><time>2026-04-29T17:02:36Z</time></trkpt><trkpt lat="43.683588131327106" lon="7.2345548685229835"><ele>9.0</ele><time>2026-04-29T17:02:37Z</time></trkpt><trkpt lat="43.683651534947145" lon="7.234624995962295"><ele>9.0</ele><time>2026-04-29T17:02:38Z</time></trkpt><trkpt lat="43.683715623029755" lon="7.234696942801179"><ele>9.0</ele><time>2026-04-29T17:02:39Z</time></trkpt><trkpt lat="43.68378074263892" lon="7.234769614858382"><ele>9.0</ele><time>2026-04-29T17:02:40Z</time></trkpt><trkpt lat="43.683843709344686" lon="7.234845907418918"><ele>9.0</ele><time>2026-04-29T17:02:41Z</time></trkpt><trkpt lat="43.68390889270034" lon="7.234917502201802"><ele>9.5</ele><time>2026-04-29T17:02:42Z</time></trkpt><trkpt lat="43.68397786626981" lon="7.234991097712361"><ele>10.0</ele><time>2026-04-29T17:02:43Z</time></trkpt><trkpt lat="43.68404768623832" lon="7.235071840075114"><ele>10.5</ele><time>2026-04-29T17:02:44Z</time></trkpt><trkpt lat="43.68411741874799" lon="7.235149541559137"><ele>11.0</ele><time>2026-04-29T17:02:45Z</time></trkpt><trkpt lat="43.68418699314206" lon="7.235223302655229"><ele>11.5</ele><time>2026-04-29T17:02:45.999Z</time></trkpt><trkpt lat="43.68425765984503" lon="7.235294982589789"><ele>12.0</ele><time>2026-04-29T17:02:46.999Z</time></trkpt><trkpt lat="43.6843244853635" lon="7.235374145350859"><ele>12.0</ele><time>2026-04-29T17:02:47.999Z</time></trkpt><trkpt lat="43.68439451097341" lon="7.235454672032482"><ele>12.0</ele><time>2026-04-29T17:02:48.999Z</time></trkpt><trkpt lat="43.684465490591336" lon="7.235532468718135"><ele>12.0</ele><time>2026-04-29T17:02:49.999Z</time></trkpt><trkpt lat="43.684535270284734" lon="7.235606868200645"><ele>12.0</ele><time>2026-04-29T17:02:50.999Z</time></trkpt><trkpt lat="43.68460526655229" lon="7.235677773247367"><ele>12.0</ele><time>2026-04-29T17:02:51.999Z</time></trkpt><trkpt lat="43.68467563638928" lon="7.235754464529555"><ele>12.0</ele><time>2026-04-29T17:02:52.999Z</time></trkpt><trkpt lat="43.6847451479279" lon="7.235832153303034"><ele>11.0</ele><time>2026-04-29T17:02:53.999Z</time></trkpt><trkpt lat="43.68481468969548" lon="7.235910131579795"><ele>10.0</ele><time>2026-04-29T17:02:54.999Z</time></trkpt><trkpt lat="43.684885327825704" lon="7.235989849963755"><ele>9.0</ele><time>2026-04-29T17:02:55.999Z</time></trkpt><trkpt lat="43.68495637050273" lon="7.236066235630181"><ele>8.0</ele><time>2026-04-29T17:02:56.999Z</time></trkpt><trkpt lat="43.68503018345526" lon="7.236147819601283"><ele>7.0</ele><time>2026-04-29T17:02:57.999Z</time></trkpt><trkpt lat="43.6851021386124" lon="7.2362312851922495"><ele>7.0</ele><time>2026-04-29T17:02:58.999Z</time></trkpt><trkpt lat="43.685173028206385" lon="7.236311405277911"><ele>6.999999999999999</ele><time>2026-04-29T17:02:59.999Z</time></trkpt><trkpt lat="43.6852445956841" lon="7.236389867755733"><ele>6.999999999999999</ele><time>2026-04-29T17:03:00.999Z</time></trkpt><trkpt lat="43.68531484790256" lon="7.236467422875284"><ele>7.0</ele><time>2026-04-29T17:03:01.999Z</time></trkpt><trkpt lat="43.685386304800716" lon="7.236544017210635"><ele>7.0</ele><time>2026-04-29T17:03:02.999Z</time></trkpt><trkpt lat="43.68545843563601" lon="7.236622854856722"><ele>7.199999999999999</ele><time>2026-04-29T17:03:03.999Z</time></trkpt><trkpt lat="43.685529581860116" lon="7.236705937450556"><ele>7.3999999999999995</ele><time>2026-04-29T17:03:04.999Z</time></trkpt><trkpt lat="43.685603872528475" lon="7.236791702426171"><ele>7.6000000000000005</ele><time>2026-04-29T17:03:05.999Z</time></trkpt><trkpt lat="43.68567812441489" lon="7.236877487186886"><ele>7.800000000000001</ele><time>2026-04-29T17:03:06.999Z</time></trkpt><trkpt lat="43.685753318217785" lon="7.236965658441234"><ele>8.0</ele><time>2026-04-29T17:03:07.999Z</time></trkpt><trkpt lat="43.6858278064879" lon="7.23705673419222"><ele>8.0</ele><time>2026-04-29T17:03:08.999Z</time></trkpt><trkpt lat="43.68590703927019" lon="7.237152973000714"><ele>8.0</ele><time>2026-04-29T17:03:09.999Z</time></trkpt><trkpt lat="43.68598854946969" lon="7.237253436154949"><ele>8.0</ele><time>2026-04-29T17:03:10.999Z</time></trkpt><trkpt lat="43.68607061582676" lon="7.237356126214676"><ele>8.0</ele><time>2026-04-29T17:03:11.999Z</time></trkpt><trkpt lat="43.68615206587403" lon="7.237457695286513"><ele>8.0</ele><time>2026-04-29T17:03:12.999Z</time></trkpt><trkpt lat="43.68622612898496" lon="7.2375527048526465"><ele>9.0</ele><time>2026-04-29T17:03:13.999Z</time></trkpt><trkpt lat="43.68629530528344" lon="7.237639482620264"><ele>10.0</ele><time>2026-04-29T17:03:14.999Z</time></trkpt><trkpt lat="43.686356938016495" lon="7.237716274690397"><ele>11.0</ele><time>2026-04-29T17:03:15.999Z</time></trkpt><trkpt lat="43.686407947343824" lon="7.237782514042994"><ele>12.0</ele><time>2026-04-29T17:03:16.999Z</time></trkpt><trkpt lat="43.68648227137159" lon="7.237887962835905"><ele>13.000000000000002</ele><time>2026-04-29T17:03:18.999Z</time></trkpt><trkpt lat="43.686537316996315" lon="7.237962445768882"><ele>14.0</ele><time>2026-04-29T17:03:20.999Z</time></trkpt><trkpt lat="43.68658674226497" lon="7.23801740817384"><ele>14.000000000000002</ele><time>2026-04-29T17:03:23.999Z</time></trkpt><trkpt lat="43.68664800454656" lon="7.238083760845392"><ele>14.0</ele><time>2026-04-29T17:03:51Z</time></trkpt><trkpt lat="43.6866982568256" lon="7.2381445808020874"><ele>14.0</ele><time>2026-04-29T17:03:52Z</time></trkpt><trkpt lat="43.686752769348715" lon="7.23822041663592"><ele>14.0</ele><time>2026-04-29T17:03:53Z</time></trkpt><trkpt lat="43.68680839959469" lon="7.238300952316045"><ele>14.000000000000002</ele><time>2026-04-29T17:03:54Z</time></trkpt><trkpt lat="43.686866886203426" lon="7.2383900848072145"><ele>14.0</ele><time>2026-04-29T17:03:55Z</time></trkpt><trkpt lat="43.68693027577202" lon="7.238484219457269"><ele>13.833333333333334</ele><time>2026-04-29T17:03:56Z</time></trkpt><trkpt lat="43.6869953850782" lon="7.238563140962986"><ele>13.666666666666668</ele><time>2026-04-29T17:03:57Z</time></trkpt><trkpt lat="43.687052184729325" lon="7.238655756454127"><ele>13.5</ele><time>2026-04-29T17:03:58Z</time></trkpt><trkpt lat="43.68710204960797" lon="7.23874316612707"><ele>13.333333333333332</ele><time>2026-04-29T17:03:59Z</time></trkpt><trkpt lat="43.68715924780522" lon="7.238825105417483"><ele>13.166666666666666</ele><time>2026-04-29T17:04:00Z</time></trkpt><trkpt lat="43.68721418997618" lon="7.238908545887976"><ele>13.0</ele><time>2026-04-29T17:04:01Z</time></trkpt><trkpt lat="43.68726192968088" lon="7.238990646320993"><ele>13.0</ele><time>2026-04-29T17:04:02Z</time></trkpt><trkpt lat="43.68731934384786" lon="7.239075814431377"><ele>13.0</ele><time>2026-04-29T17:04:03Z</time></trkpt><trkpt lat="43.68737338764731" lon="7.239167426460229"><ele>13.0</ele><time>2026-04-29T17:04:04Z</time></trkpt><trkpt lat="43.6874305510467" lon="7.239264157679154"><ele>13.0</ele><time>2026-04-29T17:04:05Z</time></trkpt><trkpt lat="43.68748998887156" lon="7.239359237257382"><ele>13.0</ele><time>2026-04-29T17:04:06Z</time></trkpt><trkpt lat="43.68755593761717" lon="7.239461261064935"><ele>13.0</ele><time>2026-04-29T17:04:07Z</time></trkpt><trkpt lat="43.68762022650325" lon="7.239569403013347"><ele>13.0</ele><time>2026-04-29T17:04:08Z</time></trkpt><trkpt lat="43.687683900952806" lon="7.2396739795633955"><ele>13.0</ele><time>2026-04-29T17:04:09Z</time></trkpt><trkpt lat="43.68775184148377" lon="7.239786565662675"><ele>13.0</ele><time>2026-04-29T17:04:10Z</time></trkpt><trkpt lat="43.68781840786086" lon="7.239898535356427"><ele>13.0</ele><time>2026-04-29T17:04:11Z</time></trkpt><trkpt lat="43.68788472488144" lon="7.240012459649536"><ele>13.600000000000001</ele><time>2026-04-29T17:04:12Z</time></trkpt><trkpt lat="43.687951277087315" lon="7.240127159438138"><ele>14.200000000000001</ele><time>2026-04-29T17:04:13Z</time></trkpt><trkpt lat="43.6880170036475" lon="7.240241245796405"><ele>14.8</ele><time>2026-04-29T17:04:14Z</time></trkpt><trkpt lat="43.688080390233196" lon="7.240358121748538"><ele>15.4</ele><time>2026-04-29T17:04:15Z</time></trkpt><trkpt lat="43.688146210623884" lon="7.24047301456073"><ele>16.0</ele><time>2026-04-29T17:04:16Z</time></trkpt><trkpt lat="43.688216283803726" lon="7.240591837788888"><ele>15.200000000000001</ele><time>2026-04-29T17:04:17Z</time></trkpt><trkpt lat="43.68828304776178" lon="7.24071358733441"><ele>14.400000000000002</ele><time>2026-04-29T17:04:18Z</time></trkpt><trkpt lat="43.688346570183185" lon="7.240837856420807"><ele>13.6</ele><time>2026-04-29T17:04:19Z</time></trkpt><trkpt lat="43.68840917647676" lon="7.240955478951209"><ele>12.8</ele><time>2026-04-29T17:04:20Z</time></trkpt><trkpt lat="43.68846978872641" lon="7.241074556875228"><ele>12.0</ele><time>2026-04-29T17:04:21Z</time></trkpt><trkpt lat="43.68853198063995" lon="7.2411891858092865"><ele>12.0</ele><time>2026-04-29T17:04:22Z</time></trkpt><trkpt lat="43.68859496688338" lon="7.241305651659858"><ele>12.0</ele><time>2026-04-29T17:04:23Z</time></trkpt><trkpt lat="43.68865711691601" lon="7.241424904516668"><ele>12.0</ele><time>2026-04-29T17:04:24Z</time></trkpt><trkpt lat="43.688720536858355" lon="7.241541654328291"><ele>12.0</ele><time>2026-04-29T17:04:25Z</time></trkpt><trkpt lat="43.68878394245448" lon="7.2416578439148696"><ele>12.0</ele><time>2026-04-29T17:04:26Z</time></trkpt><trkpt lat="43.68885048803704" lon="7.241778392320089"><ele>12.0</ele><time>2026-04-29T17:04:27Z</time></trkpt><trkpt lat="43.68891584153694" lon="7.2418984265157"><ele>12.0</ele><time>2026-04-29T17:04:28Z</time></trkpt><trkpt lat="43.6889849818521" lon="7.242023510308932"><ele>12.0</ele><time>2026-04-29T17:04:29Z</time></trkpt><trkpt lat="43.689051498008226" lon="7.242147695446577"><ele>12.0</ele><time>2026-04-29T17:04:30Z</time></trkpt><trkpt lat="43.689115710112766" lon="7.242269452370403"><ele>12.0</ele><time>2026-04-29T17:04:31Z</time></trkpt><trkpt lat="43.68917989084947" lon="7.2423875328054255"><ele>12.399999999999999</ele><time>2026-04-29T17:04:32Z</time></trkpt><trkpt lat="43.68924253100493" lon="7.242506092405792"><ele>12.799999999999999</ele><time>2026-04-29T17:04:33Z</time></trkpt><trkpt lat="43.68930636504609" lon="7.242619613432859"><ele>13.2</ele><time>2026-04-29T17:04:34Z</time></trkpt><trkpt lat="43.68936842848815" lon="7.2427386338843425"><ele>13.6</ele><time>2026-04-29T17:04:35Z</time></trkpt><trkpt lat="43.68943172922536" lon="7.242856576253973"><ele>14.0</ele><time>2026-04-29T17:04:36Z</time></trkpt><trkpt lat="43.68949511664975" lon="7.2429727163679924"><ele>14.0</ele><time>2026-04-29T17:04:37Z</time></trkpt><trkpt lat="43.68955964343553" lon="7.243090749978414"><ele>13.999999999999998</ele><time>2026-04-29T17:04:38Z</time></trkpt><trkpt lat="43.68962052438861" lon="7.243214965064243"><ele>13.999999999999998</ele><time>2026-04-29T17:04:39Z</time></trkpt><trkpt lat="43.689680352894484" lon="7.243336139717797"><ele>14.0</ele><time>2026-04-29T17:04:40Z</time></trkpt><trkpt lat="43.68974023551011" lon="7.243459147672295"><ele>14.0</ele><time>2026-04-29T17:04:41Z</time></trkpt><trkpt lat="43.68979529054919" lon="7.243583084345902"><ele>14.0</ele><time>2026-04-29T17:04:42Z</time></trkpt><trkpt lat="43.689849547561174" lon="7.24370154864109"><ele>13.999999999999998</ele><time>2026-04-29T17:04:43Z</time></trkpt><trkpt lat="43.689897009303415" lon="7.243825095080111"><ele>13.999999999999998</ele><time>2026-04-29T17:04:44Z</time></trkpt><trkpt lat="43.689945717858464" lon="7.243937471408046"><ele>14.0</ele><time>2026-04-29T17:04:45Z</time></trkpt><trkpt lat="43.689985488932926" lon="7.244043167916396"><ele>14.0</ele><time>2026-04-29T17:04:46Z</time></trkpt><trkpt lat="43.69002784253392" lon="7.244131149626096"><ele>13.500000000000002</ele><time>2026-04-29T17:04:47Z</time></trkpt><trkpt lat="43.69006931589593" lon="7.244232070143322"><ele>13.0</ele><time>2026-04-29T17:04:48Z</time></trkpt><trkpt lat="43.69011064231494" lon="7.244333509774365"><ele>12.5</ele><time>2026-04-29T17:04:49Z</time></trkpt><trkpt lat="43.69014984676149" lon="7.244427728891105"><ele>12.0</ele><time>2026-04-29T17:04:50Z</time></trkpt><trkpt lat="43.690184997218914" lon="7.244522151993595"><ele>11.5</ele><time>2026-04-29T17:04:50.999Z</time></trkpt><trkpt lat="43.690218433965946" lon="7.244610373202633"><ele>11.0</ele><time>2026-04-29T17:04:51.999Z</time></trkpt><trkpt lat="43.69025208357315" lon="7.244705467304991"><ele>11.428571428571429</ele><time>2026-04-29T17:04:52.999Z</time></trkpt><trkpt lat="43.69028605779954" lon="7.2447916154116125"><ele>11.857142857142858</ele><time>2026-04-29T17:04:53.999Z</time></trkpt><trkpt lat="43.69031989487762" lon="7.244880887497489"><ele>12.285714285714285</ele><time>2026-04-29T17:04:54.999Z</time></trkpt><trkpt lat="43.69035456431147" lon="7.244976390160355"><ele>12.714285714285715</ele><time>2026-04-29T17:04:55.999Z</time></trkpt><trkpt lat="43.690390212759475" lon="7.245069242323318"><ele>13.142857142857142</ele><time>2026-04-29T17:04:56.999Z</time></trkpt><trkpt lat="43.690424103390214" lon="7.245162452712132"><ele>13.571428571428571</ele><time>2026-04-29T17:04:57.999Z</time></trkpt><trkpt lat="43.690458858216964" lon="7.245256078746019"><ele>14.0</ele><time>2026-04-29T17:04:58.999Z</time></trkpt><trkpt lat="43.690494126016745" lon="7.245351063853992"><ele>14.000000000000002</ele><time>2026-04-29T17:04:59.999Z</time></trkpt><trkpt lat="43.690528834292145" lon="7.245448455936659"><ele>14.0</ele><time>2026-04-29T17:05:00.999Z</time></trkpt><trkpt lat="43.69056189600557" lon="7.245544407796013"><ele>14.0</ele><time>2026-04-29T17:05:01.999Z</time></trkpt><trkpt lat="43.69059418232633" lon="7.245634423478986"><ele>14.0</ele><time>2026-04-29T17:05:02.999Z</time></trkpt><trkpt lat="43.69062750684221" lon="7.2457272848659"><ele>14.000000000000002</ele><time>2026-04-29T17:05:03.999Z</time></trkpt><trkpt lat="43.69066314249388" lon="7.245829037389584"><ele>14.0</ele><time>2026-04-29T17:05:04.999Z</time></trkpt><trkpt lat="43.6906967267126" lon="7.245922063710446"><ele>13.333333333333334</ele><time>2026-04-29T17:05:05.999Z</time></trkpt><trkpt lat="43.69072865950436" lon="7.246011718782018"><ele>12.666666666666668</ele><time>2026-04-29T17:05:06.999Z</time></trkpt><trkpt lat="43.690759520742155" lon="7.24609728565545"><ele>12.0</ele><time>2026-04-29T17:05:07.999Z</time></trkpt><trkpt lat="43.69078919361315" lon="7.246188514765454"><ele>11.333333333333334</ele><time>2026-04-29T17:05:08.999Z</time></trkpt><trkpt lat="43.6908186052832" lon="7.246278280049526"><ele>10.666666666666668</ele><time>2026-04-29T17:05:09.999Z</time></trkpt><trkpt lat="43.69084610789908" lon="7.246359875979036"><ele>10.0</ele><time>2026-04-29T17:05:10.999Z</time></trkpt><trkpt lat="43.6908954048898" lon="7.24650632503181"><ele>9.5</ele><time>2026-04-29T17:05:12.999Z</time></trkpt><trkpt lat="43.6909434307387" lon="7.24664058268328"><ele>9.0</ele><time>2026-04-29T17:05:14.999Z</time></trkpt><trkpt lat="43.69096946150862" lon="7.246729988603613"><ele>8.5</ele><time>2026-04-29T17:05:16.999Z</time></trkpt><trkpt lat="43.69099496085374" lon="7.246811559178683"><ele>8.0</ele><time>2026-04-29T17:05:19.999Z</time></trkpt><trkpt lat="43.69103246317882" lon="7.2469061950659945"><ele>7.500000000000001</ele><time>2026-04-29T17:05:46Z</time></trkpt><trkpt lat="43.69108471042004" lon="7.247052549659485"><ele>7.0</ele><time>2026-04-29T17:05:48Z</time></trkpt><trkpt lat="43.691138810399465" lon="7.2472071972794545"><ele>8.0</ele><time>2026-04-29T17:05:50Z</time></trkpt><trkpt lat="43.69116983035384" lon="7.247291679010105"><ele>9.0</ele><time>2026-04-29T17:05:51Z</time></trkpt><trkpt lat="43.69120041176848" lon="7.247374593647139"><ele>10.0</ele><time>2026-04-29T17:05:52Z</time></trkpt><trkpt lat="43.691230880001875" lon="7.247459172471789"><ele>11.0</ele><time>2026-04-29T17:05:53Z</time></trkpt><trkpt lat="43.69126239684181" lon="7.247550946090731"><ele>12.0</ele><time>2026-04-29T17:05:54Z</time></trkpt><trkpt lat="43.69129475918919" lon="7.247648499847792"><ele>13.0</ele><time>2026-04-29T17:05:55Z</time></trkpt><trkpt lat="43.69132866452848" lon="7.247746693483232"><ele>14.0</ele><time>2026-04-29T17:05:56Z</time></trkpt><trkpt lat="43.69136436575948" lon="7.2478502867346934"><ele>14.166666666666668</ele><time>2026-04-29T17:05:57Z</time></trkpt><trkpt lat="43.691399591213326" lon="7.247951422374764"><ele>14.333333333333334</ele><time>2026-04-29T17:05:58Z</time></trkpt><trkpt lat="43.69143614387077" lon="7.248059092097747"><ele>14.5</ele><time>2026-04-29T17:05:59Z</time></trkpt><trkpt lat="43.691470539655725" lon="7.24816996609553"><ele>14.666666666666668</ele><time>2026-04-29T17:06:00Z</time></trkpt><trkpt lat="43.691498836889835" lon="7.2482850693881"><ele>14.833333333333334</ele><time>2026-04-29T17:06:01Z</time></trkpt><trkpt lat="43.69152046868046" lon="7.248402254096128"><ele>15.0</ele><time>2026-04-29T17:06:02Z</time></trkpt><trkpt lat="43.691568305496205" lon="7.248498238162045"><ele>14.0</ele><time>2026-04-29T17:06:03Z</time></trkpt><trkpt lat="43.69160400352257" lon="7.248601584230523"><ele>13.0</ele><time>2026-04-29T17:06:04Z</time></trkpt><trkpt lat="43.69167168009727" lon="7.248740107390303"><ele>12.0</ele><time>2026-04-29T17:06:05Z</time></trkpt><trkpt lat="43.691711347140725" lon="7.2488575924642555"><ele>11.0</ele><time>2026-04-29T17:06:06Z</time></trkpt><trkpt lat="43.69175061631701" lon="7.248967955888129"><ele>10.0</ele><time>2026-04-29T17:06:07Z</time></trkpt><trkpt lat="43.69179040073291" lon="7.24908207236724"><ele>9.4</ele><time>2026-04-29T17:06:08Z</time></trkpt><trkpt lat="43.6918314855142" lon="7.249205300499895"><ele>8.8</ele><time>2026-04-29T17:06:09Z</time></trkpt><trkpt lat="43.691872311577015" lon="7.249325998933303"><ele>8.2</ele><time>2026-04-29T17:06:10Z</time></trkpt><trkpt lat="43.69191246110322" lon="7.249448263616214"><ele>7.6</ele><time>2026-04-29T17:06:11Z</time></trkpt><trkpt lat="43.691951430321495" lon="7.249569829878461"><ele>7.0</ele><time>2026-04-29T17:06:12Z</time></trkpt><trkpt lat="43.69199386209013" lon="7.2496883415151565"><ele>8.6</ele><time>2026-04-29T17:06:13Z</time></trkpt><trkpt lat="43.69203759263273" lon="7.2498098192782034"><ele>10.2</ele><time>2026-04-29T17:06:14Z</time></trkpt><trkpt lat="43.692079850515526" lon="7.2499337840749964"><ele>11.8</ele><time>2026-04-29T17:06:15Z</time></trkpt><trkpt lat="43.69212270208122" lon="7.250053990569754"><ele>13.4</ele><time>2026-04-29T17:06:16Z</time></trkpt><trkpt lat="43.69216986029452" lon="7.25017631159728"><ele>15.0</ele><time>2026-04-29T17:06:17Z</time></trkpt><trkpt lat="43.692212038851956" lon="7.250293796679719"><ele>15.0</ele><time>2026-04-29T17:06:18Z</time></trkpt><trkpt lat="43.692253839934224" lon="7.250418619300529"><ele>15.0</ele><time>2026-04-29T17:06:19Z</time></trkpt><trkpt lat="43.69229154320654" lon="7.250545600751829"><ele>15.0</ele><time>2026-04-29T17:06:20Z</time></trkpt><trkpt lat="43.69233223936038" lon="7.250670967472042"><ele>15.0</ele><time>2026-04-29T17:06:21Z</time></trkpt><trkpt lat="43.69237894386965" lon="7.250794942027756"><ele>15.0</ele><time>2026-04-29T17:06:22Z</time></trkpt><trkpt lat="43.692421520052925" lon="7.2509189757156545"><ele>14.2</ele><time>2026-04-29T17:06:23Z</time></trkpt><trkpt lat="43.69247326475958" lon="7.251052813723034"><ele>13.4</ele><time>2026-04-29T17:06:24Z</time></trkpt><trkpt lat="43.692520705935195" lon="7.251177999883592"><ele>12.600000000000001</ele><time>2026-04-29T17:06:25Z</time></trkpt><trkpt lat="43.69255849194045" lon="7.251298887263559"><ele>11.8</ele><time>2026-04-29T17:06:26Z</time></trkpt><trkpt lat="43.69260141093319" lon="7.25143038340568"><ele>11.0</ele><time>2026-04-29T17:06:27Z</time></trkpt><trkpt lat="43.69264398377768" lon="7.2515576330486535"><ele>11.600000000000001</ele><time>2026-04-29T17:06:28Z</time></trkpt><trkpt lat="43.69268613031313" lon="7.251682565049305"><ele>12.2</ele><time>2026-04-29T17:06:29Z</time></trkpt><trkpt lat="43.69272663475693" lon="7.251807325461389"><ele>12.799999999999999</ele><time>2026-04-29T17:06:30Z</time></trkpt><trkpt lat="43.6927624709866" lon="7.251931745791857"><ele>13.399999999999999</ele><time>2026-04-29T17:06:31Z</time></trkpt><trkpt lat="43.692793508555276" lon="7.252062294375716"><ele>14.0</ele><time>2026-04-29T17:06:32Z</time></trkpt><trkpt lat="43.692823537319185" lon="7.252190824220524"><ele>14.0</ele><time>2026-04-29T17:06:33Z</time></trkpt><trkpt lat="43.69285217531054" lon="7.252321240686057"><ele>13.999999999999998</ele><time>2026-04-29T17:06:34Z</time></trkpt><trkpt lat="43.69287944467129" lon="7.252452541735398"><ele>13.999999999999998</ele><time>2026-04-29T17:06:35Z</time></trkpt><trkpt lat="43.6929078385379" lon="7.252584276625636"><ele>14.0</ele><time>2026-04-29T17:06:36Z</time></trkpt><trkpt lat="43.692936810568675" lon="7.252712936960926"><ele>14.0</ele><time>2026-04-29T17:06:37Z</time></trkpt><trkpt lat="43.69296712298095" lon="7.252843348386436"><ele>14.000000000000002</ele><time>2026-04-29T17:06:38Z</time></trkpt><trkpt lat="43.69299677402205" lon="7.2529754919142215"><ele>14.0</ele><time>2026-04-29T17:06:39Z</time></trkpt><trkpt lat="43.6930251348427" lon="7.2531072540545685"><ele>14.0</ele><time>2026-04-29T17:06:40Z</time></trkpt><trkpt lat="43.693046420097986" lon="7.253213986199164"><ele>14.0</ele><time>2026-04-29T17:06:41Z</time></trkpt><trkpt lat="43.693060126096384" lon="7.253308884152045"><ele>14.000000000000002</ele><time>2026-04-29T17:07:07Z</time></trkpt><trkpt lat="43.693088159950584" lon="7.2534237896022855"><ele>14.0</ele><time>2026-04-29T17:07:09Z</time></trkpt><trkpt lat="43.69310877440551" lon="7.253509069762684"><ele>13.2</ele><time>2026-04-29T17:07:10Z</time></trkpt><trkpt lat="43.69313195999162" lon="7.253610871720814"><ele>12.399999999999999</ele><time>2026-04-29T17:07:11Z</time></trkpt><trkpt lat="43.69315563289612" lon="7.253714047809357"><ele>11.6</ele><time>2026-04-29T17:07:12Z</time></trkpt><trkpt lat="43.693180156499515" lon="7.253834397710956"><ele>10.8</ele><time>2026-04-29T17:07:13Z</time></trkpt><trkpt lat="43.69321076002752" lon="7.253963825990127"><ele>10.0</ele><time>2026-04-29T17:07:14Z</time></trkpt><trkpt lat="43.693242195666194" lon="7.254104962897702"><ele>10.0</ele><time>2026-04-29T17:07:15Z</time></trkpt><trkpt lat="43.69327171552169" lon="7.254237844268263"><ele>10.0</ele><time>2026-04-29T17:07:16Z</time></trkpt><trkpt lat="43.6933040857082" lon="7.254376623778617"><ele>10.0</ele><time>2026-04-29T17:07:17Z</time></trkpt><trkpt lat="43.6933344608087" lon="7.254515316913042"><ele>10.0</ele><time>2026-04-29T17:07:18Z</time></trkpt><trkpt lat="43.69336435856259" lon="7.254646314745711"><ele>10.0</ele><time>2026-04-29T17:07:19Z</time></trkpt><trkpt lat="43.69339348131568" lon="7.254775344185227"><ele>9.8</ele><time>2026-04-29T17:07:20Z</time></trkpt><trkpt lat="43.693421252321556" lon="7.25490347915333"><ele>9.6</ele><time>2026-04-29T17:07:21Z</time></trkpt><trkpt lat="43.693449338246936" lon="7.255029973700421"><ele>9.4</ele><time>2026-04-29T17:07:22Z</time></trkpt><trkpt lat="43.69347776973752" lon="7.255153274843459"><ele>9.2</ele><time>2026-04-29T17:07:23Z</time></trkpt><trkpt lat="43.69350440488884" lon="7.255272331541905"><ele>9.0</ele><time>2026-04-29T17:07:24Z</time></trkpt><trkpt lat="43.693529675209575" lon="7.255385778239166"><ele>9.0</ele><time>2026-04-29T17:07:25Z</time></trkpt><trkpt lat="43.69355335966221" lon="7.255491436869641"><ele>9.0</ele><time>2026-04-29T17:07:26Z</time></trkpt><trkpt lat="43.693574237734154" lon="7.255599084244118"><ele>9.0</ele><time>2026-04-29T17:07:27Z</time></trkpt><trkpt lat="43.69359587574137" lon="7.255705323218334"><ele>9.0</ele><time>2026-04-29T17:07:28Z</time></trkpt><trkpt lat="43.69362173703583" lon="7.25582719882478"><ele>9.0</ele><time>2026-04-29T17:07:28.999Z</time></trkpt><trkpt lat="43.693646601761195" lon="7.255937386506617"><ele>9.0</ele><time>2026-04-29T17:07:29.999Z</time></trkpt><trkpt lat="43.69367144165749" lon="7.256053062930964"><ele>9.833333333333334</ele><time>2026-04-29T17:07:30.999Z</time></trkpt><trkpt lat="43.693696119408756" lon="7.256164234657887"><ele>10.666666666666668</ele><time>2026-04-29T17:07:31.999Z</time></trkpt><trkpt lat="43.69372046854219" lon="7.25627596414899"><ele>11.5</ele><time>2026-04-29T17:07:32.999Z</time></trkpt><trkpt lat="43.69374521004731" lon="7.256390826985288"><ele>12.333333333333334</ele><time>2026-04-29T17:07:33.999Z</time></trkpt><trkpt lat="43.69377292912249" lon="7.25650422684596"><ele>13.166666666666668</ele><time>2026-04-29T17:07:34.999Z</time></trkpt><trkpt lat="43.693800058305925" lon="7.256620370303302"><ele>14.0</ele><time>2026-04-29T17:07:35.999Z</time></trkpt><trkpt lat="43.6938252251772" lon="7.2567438017442765"><ele>14.0</ele><time>2026-04-29T17:07:37Z</time></trkpt><trkpt lat="43.6938541623893" lon="7.256871425835645"><ele>13.999999999999998</ele><time>2026-04-29T17:07:38Z</time></trkpt><trkpt lat="43.693885034779875" lon="7.25700423132081"><ele>13.999999999999998</ele><time>2026-04-29T17:07:39Z</time></trkpt><trkpt lat="43.69391487963927" lon="7.25713488090192"><ele>14.0</ele><time>2026-04-29T17:07:40Z</time></trkpt><trkpt lat="43.693943744144796" lon="7.2572619799508855"><ele>14.0</ele><time>2026-04-29T17:07:41Z</time></trkpt><trkpt lat="43.69397030817867" lon="7.2573893808729135"><ele>14.0</ele><time>2026-04-29T17:07:42Z</time></trkpt><trkpt lat="43.69399820398286" lon="7.257522132032606"><ele>13.999999999999998</ele><time>2026-04-29T17:07:43Z</time></trkpt><trkpt lat="43.694026825094554" lon="7.257655142816559"><ele>13.999999999999998</ele><time>2026-04-29T17:07:44Z</time></trkpt><trkpt lat="43.694057138745784" lon="7.257786592266801"><ele>14.0</ele><time>2026-04-29T17:07:45Z</time></trkpt><trkpt lat="43.69408661935996" lon="7.257919441056551"><ele>14.0</ele><time>2026-04-29T17:07:46Z</time></trkpt><trkpt lat="43.69411818540433" lon="7.258058488631196"><ele>13.0</ele><time>2026-04-29T17:07:47Z</time></trkpt><trkpt lat="43.694149358849415" lon="7.2581954066146785"><ele>11.999999999999998</ele><time>2026-04-29T17:07:48Z</time></trkpt><trkpt lat="43.694178480549176" lon="7.258323693449439"><ele>11.0</ele><time>2026-04-29T17:07:49Z</time></trkpt><trkpt lat="43.69420381872015" lon="7.25844998210221"><ele>10.0</ele><time>2026-04-29T17:07:50Z</time></trkpt><trkpt lat="43.694228307996426" lon="7.258576372453674"><ele>9.0</ele><time>2026-04-29T17:07:51Z</time></trkpt><trkpt lat="43.69425366804752" lon="7.258706493928181"><ele>9.0</ele><time>2026-04-29T17:07:52Z</time></trkpt><trkpt lat="43.69427728167237" lon="7.258841214351998"><ele>9.0</ele><time>2026-04-29T17:07:53Z</time></trkpt><trkpt lat="43.694296602676395" lon="7.258978921863527"><ele>9.0</ele><time>2026-04-29T17:07:54Z</time></trkpt><trkpt lat="43.694316288093766" lon="7.259116458159346"><ele>9.0</ele><time>2026-04-29T17:07:55Z</time></trkpt><trkpt lat="43.69433589600689" lon="7.259246494491298"><ele>9.0</ele><time>2026-04-29T17:07:56Z</time></trkpt><trkpt lat="43.694353942283726" lon="7.259369486043929"><ele>8.166666666666666</ele><time>2026-04-29T17:07:57Z</time></trkpt><trkpt lat="43.694372668881215" lon="7.25949204024816"><ele>7.333333333333333</ele><time>2026-04-29T17:07:58Z</time></trkpt><trkpt lat="43.69439117728853" lon="7.259612331708014"><ele>6.5</ele><time>2026-04-29T17:07:59Z</time></trkpt><trkpt lat="43.694408305960565" lon="7.2597363762641445"><ele>5.666666666666666</ele><time>2026-04-29T17:08:00Z</time></trkpt><trkpt lat="43.69442641313246" lon="7.259857959933754"><ele>4.833333333333333</ele><time>2026-04-29T17:08:01Z</time></trkpt><trkpt lat="43.69444142284845" lon="7.259977050799056"><ele>4.0</ele><time>2026-04-29T17:08:02Z</time></trkpt><trkpt lat="43.6944590225088" lon="7.260096685241914"><ele>5.800000000000001</ele><time>2026-04-29T17:08:03Z</time></trkpt><trkpt lat="43.694477741032856" lon="7.260227197424089"><ele>7.6000000000000005</ele><time>2026-04-29T17:08:04Z</time></trkpt><trkpt lat="43.694496618050316" lon="7.260354445709759"><ele>9.4</ele><time>2026-04-29T17:08:05Z</time></trkpt><trkpt lat="43.694515063065026" lon="7.260478898285389"><ele>11.200000000000001</ele><time>2026-04-29T17:08:06Z</time></trkpt><trkpt lat="43.694533256873484" lon="7.260597861728157"><ele>13.0</ele><time>2026-04-29T17:08:07Z</time></trkpt><trkpt lat="43.694550300013994" lon="7.260716554670121"><ele>12.999999999999998</ele><time>2026-04-29T17:08:08Z</time></trkpt><trkpt lat="43.69456450315657" lon="7.260829602914495"><ele>13.0</ele><time>2026-04-29T17:08:09Z</time></trkpt><trkpt lat="43.69458162974281" lon="7.260943315572"><ele>13.0</ele><time>2026-04-29T17:08:10Z</time></trkpt><trkpt lat="43.69459953615114" lon="7.2610571891940054"><ele>13.0</ele><time>2026-04-29T17:08:11Z</time></trkpt><trkpt lat="43.69461408659813" lon="7.261167923109063"><ele>12.999999999999998</ele><time>2026-04-29T17:08:12Z</time></trkpt><trkpt lat="43.69462370125637" lon="7.2612797885645595"><ele>13.0</ele><time>2026-04-29T17:08:13Z</time></trkpt><trkpt lat="43.694632232698666" lon="7.261397164773494"><ele>12.833333333333332</ele><time>2026-04-29T17:08:14Z</time></trkpt><trkpt lat="43.69464351014644" lon="7.261513252066845"><ele>12.666666666666666</ele><time>2026-04-29T17:08:15Z</time></trkpt><trkpt lat="43.694650451544184" lon="7.261625159637302"><ele>12.5</ele><time>2026-04-29T17:08:16Z</time></trkpt><trkpt lat="43.69465624435851" lon="7.261724212112398"><ele>12.333333333333332</ele><time>2026-04-29T17:08:17Z</time></trkpt><trkpt lat="43.69466168655139" lon="7.261821611744128"><ele>12.166666666666666</ele><time>2026-04-29T17:08:18Z</time></trkpt><trkpt lat="43.694670396626336" lon="7.261927517842992"><ele>12.0</ele><time>2026-04-29T17:08:19Z</time></trkpt><trkpt lat="43.694679750958414" lon="7.262036573169738"><ele>11.999999999999998</ele><time>2026-04-29T17:08:20Z</time></trkpt><trkpt lat="43.69468739192688" lon="7.26214260935468"><ele>12.0</ele><time>2026-04-29T17:08:21Z</time></trkpt><trkpt lat="43.69469535395567" lon="7.262245777858356"><ele>12.0</ele><time>2026-04-29T17:08:22Z</time></trkpt><trkpt lat="43.69470446558166" lon="7.262359224793523"><ele>12.0</ele><time>2026-04-29T17:08:23Z</time></trkpt><trkpt lat="43.69471428624525" lon="7.262461795872246"><ele>12.0</ele><time>2026-04-29T17:08:24Z</time></trkpt><trkpt lat="43.694724624469224" lon="7.262558738936571"><ele>11.999999999999998</ele><time>2026-04-29T17:08:25Z</time></trkpt><trkpt lat="43.69473581588793" lon="7.262647840421319"><ele>12.0</ele><time>2026-04-29T17:08:26Z</time></trkpt><trkpt lat="43.694752245027125" lon="7.2628186533388535"><ele>12.2</ele><time>2026-04-29T17:08:28Z</time></trkpt><trkpt lat="43.69476745723141" lon="7.262965245112674"><ele>12.399999999999999</ele><time>2026-04-29T17:08:30Z</time></trkpt><trkpt lat="43.69477968201766" lon="7.263089195874664"><ele>12.600000000000001</ele><time>2026-04-29T17:08:32Z</time></trkpt><trkpt lat="43.69478716926657" lon="7.263213972797465"><ele>12.8</ele><time>2026-04-29T17:08:34Z</time></trkpt><trkpt lat="43.6948013191004" lon="7.263366602550889"><ele>13.0</ele><time>2026-04-29T17:08:36Z</time></trkpt><trkpt lat="43.69480946274402" lon="7.263456387910337"><ele>13.0</ele><time>2026-04-29T17:08:37Z</time></trkpt><trkpt lat="43.6948157890752" lon="7.26355705557418"><ele>13.0</ele><time>2026-04-29T17:08:38Z</time></trkpt><trkpt lat="43.69481804228121" lon="7.263654838440806"><ele>13.0</ele><time>2026-04-29T17:08:39Z</time></trkpt><trkpt lat="43.69481998536705" lon="7.263751594038546"><ele>13.0</ele><time>2026-04-29T17:08:40Z</time></trkpt><trkpt lat="43.69482303525731" lon="7.2638556193798305"><ele>13.0</ele><time>2026-04-29T17:08:41Z</time></trkpt><trkpt lat="43.69482737046102" lon="7.26395299675844"><ele>13.0</ele><time>2026-04-29T17:08:42Z</time></trkpt><trkpt lat="43.69483336256088" lon="7.264049654693173"><ele>13.0</ele><time>2026-04-29T17:08:43Z</time></trkpt><trkpt lat="43.69483853251421" lon="7.2641433650764995"><ele>12.4</ele><time>2026-04-29T17:08:44Z</time></trkpt><trkpt lat="43.694843610401804" lon="7.264303521310253"><ele>11.8</ele><time>2026-04-29T17:08:46Z</time></trkpt><trkpt lat="43.694846005413034" lon="7.2644401440618385"><ele>11.2</ele><time>2026-04-29T17:08:48Z</time></trkpt><trkpt lat="43.69484996269166" lon="7.264552980609286"><ele>10.6</ele><time>2026-04-29T17:08:50Z</time></trkpt><trkpt lat="43.694852329319936" lon="7.264651105617134"><ele>10.0</ele><time>2026-04-29T17:08:51Z</time></trkpt><trkpt lat="43.69485825947214" lon="7.264842383987873"><ele>10.0</ele><time>2026-04-29T17:08:53Z</time></trkpt><trkpt lat="43.69486137710195" lon="7.26493700661609"><ele>10.0</ele><time>2026-04-29T17:08:54Z</time></trkpt><trkpt lat="43.69486344949776" lon="7.265032986726556"><ele>10.0</ele><time>2026-04-29T17:08:55Z</time></trkpt><trkpt lat="43.69486592823706" lon="7.265124062867919"><ele>10.0</ele><time>2026-04-29T17:08:56Z</time></trkpt><trkpt lat="43.694874306544584" lon="7.2653056008783885"><ele>10.0</ele><time>2026-04-29T17:08:58Z</time></trkpt><trkpt lat="43.694878665402896" lon="7.2654075379129734"><ele>10.0</ele><time>2026-04-29T17:08:59Z</time></trkpt><trkpt lat="43.69487933848305" lon="7.265513956051446"><ele>10.5</ele><time>2026-04-29T17:09:00Z</time></trkpt><trkpt lat="43.69487964677762" lon="7.26563531781011"><ele>11.0</ele><time>2026-04-29T17:09:01Z</time></trkpt><trkpt lat="43.69488121036157" lon="7.265752349666559"><ele>11.5</ele><time>2026-04-29T17:09:02Z</time></trkpt><trkpt lat="43.694885852366" lon="7.265867865884014"><ele>12.0</ele><time>2026-04-29T17:09:03Z</time></trkpt><trkpt lat="43.694890630860996" lon="7.265991890657024"><ele>12.499999999999998</ele><time>2026-04-29T17:09:04Z</time></trkpt><trkpt lat="43.69489736893221" lon="7.266113830894371"><ele>13.0</ele><time>2026-04-29T17:09:05Z</time></trkpt><trkpt lat="43.694903211598046" lon="7.266233544275446"><ele>12.999999999999998</ele><time>2026-04-29T17:09:06Z</time></trkpt><trkpt lat="43.694908524700615" lon="7.266350269902287"><ele>13.0</ele><time>2026-04-29T17:09:07Z</time></trkpt><trkpt lat="43.69491381069282" lon="7.2664704242241"><ele>13.0</ele><time>2026-04-29T17:09:08Z</time></trkpt><trkpt lat="43.694918359829394" lon="7.266594521998861"><ele>13.0</ele><time>2026-04-29T17:09:09Z</time></trkpt><trkpt lat="43.69492222387671" lon="7.266721937544085"><ele>12.999999999999998</ele><time>2026-04-29T17:09:10Z</time></trkpt><trkpt lat="43.694925858934354" lon="7.2668460269402075"><ele>13.0</ele><time>2026-04-29T17:09:11Z</time></trkpt><trkpt lat="43.694930768364955" lon="7.2669743486513685"><ele>12.166666666666666</ele><time>2026-04-29T17:09:12Z</time></trkpt><trkpt lat="43.69493482952974" lon="7.267103281777701"><ele>11.333333333333332</ele><time>2026-04-29T17:09:13Z</time></trkpt><trkpt lat="43.694938995330425" lon="7.267230679559559"><ele>10.5</ele><time>2026-04-29T17:09:14Z</time></trkpt><trkpt lat="43.69494427633969" lon="7.267355277801277"><ele>9.666666666666666</ele><time>2026-04-29T17:09:15Z</time></trkpt><trkpt lat="43.69494982980557" lon="7.267472539097532"><ele>8.833333333333332</ele><time>2026-04-29T17:09:16Z</time></trkpt><trkpt lat="43.69495413391189" lon="7.267586806149079"><ele>8.0</ele><time>2026-04-29T17:09:17Z</time></trkpt><trkpt lat="43.69495793522528" lon="7.26769881934134"><ele>7.499999999999999</ele><time>2026-04-29T17:09:18Z</time></trkpt><trkpt lat="43.69496200753654" lon="7.267808409720179"><ele>7.0</ele><time>2026-04-29T17:09:19Z</time></trkpt><trkpt lat="43.694967399997935" lon="7.267925572824743"><ele>6.5</ele><time>2026-04-29T17:09:20Z</time></trkpt><trkpt lat="43.694971421027674" lon="7.268042003359937"><ele>6.0</ele><time>2026-04-29T17:09:21Z</time></trkpt><trkpt lat="43.69497443205084" lon="7.268156491329932"><ele>5.5</ele><time>2026-04-29T17:09:22Z</time></trkpt><trkpt lat="43.69497854018856" lon="7.268277783600121"><ele>5.0</ele><time>2026-04-29T17:09:23Z</time></trkpt><trkpt lat="43.69498175604004" lon="7.26839614499671"><ele>4.833333333333334</ele><time>2026-04-29T17:09:24Z</time></trkpt><trkpt lat="43.69498669732102" lon="7.2685113342908325"><ele>4.666666666666667</ele><time>2026-04-29T17:09:25Z</time></trkpt><trkpt lat="43.69499037822535" lon="7.26862022766271"><ele>4.5</ele><time>2026-04-29T17:09:26Z</time></trkpt><trkpt lat="43.694994879643" lon="7.268714955742682"><ele>4.333333333333333</ele><time>2026-04-29T17:09:27Z</time></trkpt><trkpt lat="43.69499567209544" lon="7.268849873695925"><ele>4.166666666666666</ele><time>2026-04-29T17:09:29Z</time></trkpt><trkpt lat="43.694999030585684" lon="7.2689430372822565"><ele>4.0</ele><time>2026-04-29T17:09:32Z</time></trkpt><trkpt lat="43.69502189314451" lon="7.269069526602926"><ele>4.333333333333333</ele><time>2026-04-29T17:09:57Z</time></trkpt><trkpt lat="43.695055354549105" lon="7.269163834796723"><ele>4.666666666666666</ele><time>2026-04-29T17:09:59Z</time></trkpt><trkpt lat="43.69509288393926" lon="7.269270956869457"><ele>5.0</ele><time>2026-04-29T17:10:01Z</time></trkpt><trkpt lat="43.69511148679916" lon="7.269390632004783"><ele>5.333333333333333</ele><time>2026-04-29T17:10:03Z</time></trkpt><trkpt lat="43.69509382638845" lon="7.269491427698207"><ele>5.666666666666667</ele><time>2026-04-29T17:10:06Z</time></trkpt><trkpt lat="43.69509234717058" lon="7.269613509649874"><ele>6.0</ele><time>2026-04-29T17:10:09Z</time></trkpt><trkpt lat="43.695091349298345" lon="7.2697495966803425"><ele>6.666666666666667</ele><time>2026-04-29T17:10:11Z</time></trkpt><trkpt lat="43.6950913492989" lon="7.269837352626187"><ele>7.333333333333334</ele><time>2026-04-29T17:10:12Z</time></trkpt><trkpt lat="43.69509237011239" lon="7.270004501350049"><ele>8.0</ele><time>2026-04-29T17:10:14Z</time></trkpt><trkpt lat="43.695098854909425" lon="7.270177139504559"><ele>8.666666666666668</ele><time>2026-04-29T17:10:16Z</time></trkpt><trkpt lat="43.69510305464611" lon="7.270268918150806"><ele>9.333333333333334</ele><time>2026-04-29T17:10:17Z</time></trkpt><trkpt lat="43.69510679193995" lon="7.270368050425698"><ele>10.0</ele><time>2026-04-29T17:10:18Z</time></trkpt><trkpt lat="43.69510996462857" lon="7.2704678259834"><ele>10.0</ele><time>2026-04-29T17:10:19Z</time></trkpt><trkpt lat="43.695111933745494" lon="7.270570867094602"><ele>10.0</ele><time>2026-04-29T17:10:20Z</time></trkpt><trkpt lat="43.695113604146144" lon="7.270681756026939"><ele>10.0</ele><time>2026-04-29T17:10:21Z</time></trkpt><trkpt lat="43.69511528565469" lon="7.270793380819828"><ele>10.0</ele><time>2026-04-29T17:10:22Z</time></trkpt><trkpt lat="43.69511610186081" lon="7.270910823671884"><ele>10.0</ele><time>2026-04-29T17:10:23Z</time></trkpt><trkpt lat="43.695116549300344" lon="7.271026176270249"><ele>10.0</ele><time>2026-04-29T17:10:24Z</time></trkpt><trkpt lat="43.69511654930043" lon="7.271144768916162"><ele>10.0</ele><time>2026-04-29T17:10:25Z</time></trkpt><trkpt lat="43.69511654930058" lon="7.271254435130548"><ele>10.0</ele><time>2026-04-29T17:10:26Z</time></trkpt><trkpt lat="43.695116119867656" lon="7.271354329074298"><ele>10.0</ele><time>2026-04-29T17:10:27Z</time></trkpt><trkpt lat="43.695115508642374" lon="7.271453572746576"><ele>10.0</ele><time>2026-04-29T17:10:28Z</time></trkpt><trkpt lat="43.69511490165443" lon="7.271552128409708"><ele>10.0</ele><time>2026-04-29T17:10:29Z</time></trkpt><trkpt lat="43.695115144458306" lon="7.271653096435586"><ele>10.0</ele><time>2026-04-29T17:10:30Z</time></trkpt><trkpt lat="43.695116485178254" lon="7.271756718682643"><ele>10.0</ele><time>2026-04-29T17:10:31Z</time></trkpt><trkpt lat="43.69511841308763" lon="7.2718547608175435"><ele>10.333333333333334</ele><time>2026-04-29T17:10:32Z</time></trkpt><trkpt lat="43.695120394380915" lon="7.271956094582314"><ele>10.666666666666668</ele><time>2026-04-29T17:10:33Z</time></trkpt><trkpt lat="43.69512276361867" lon="7.2720546838061875"><ele>11.0</ele><time>2026-04-29T17:10:34Z</time></trkpt><trkpt lat="43.695124939277505" lon="7.272145217934267"><ele>11.333333333333334</ele><time>2026-04-29T17:10:35Z</time></trkpt><trkpt lat="43.6951284719984" lon="7.272295147166564"><ele>11.666666666666666</ele><time>2026-04-29T17:10:37Z</time></trkpt><trkpt lat="43.695130960078366" lon="7.272441024555054"><ele>12.0</ele><time>2026-04-29T17:10:39Z</time></trkpt><trkpt lat="43.695131149303386" lon="7.272553663594778"><ele>12.0</ele><time>2026-04-29T17:10:41Z</time></trkpt><trkpt lat="43.69513114930545" lon="7.272663282900849"><ele>12.0</ele><time>2026-04-29T17:10:52Z</time></trkpt><trkpt lat="43.69513196088603" lon="7.272794510737725"><ele>12.0</ele><time>2026-04-29T17:10:54Z</time></trkpt><trkpt lat="43.69513114930569" lon="7.2728969465733755"><ele>12.0</ele><time>2026-04-29T17:10:55Z</time></trkpt><trkpt lat="43.69513191655845" lon="7.272992809595182"><ele>12.0</ele><time>2026-04-29T17:10:56Z</time></trkpt><trkpt lat="43.69513373663744" lon="7.273103744781129"><ele>12.0</ele><time>2026-04-29T17:10:57Z</time></trkpt><trkpt lat="43.69513544041288" lon="7.2732230482525475"><ele>11.333333333333334</ele><time>2026-04-29T17:10:58Z</time></trkpt><trkpt lat="43.69513705940948" lon="7.273346874325125"><ele>10.666666666666666</ele><time>2026-04-29T17:10:59Z</time></trkpt><trkpt lat="43.6951388481336" lon="7.273474805619079"><ele>10.0</ele><time>2026-04-29T17:11:00Z</time></trkpt><trkpt lat="43.69514112735368" lon="7.27359603662982"><ele>9.333333333333332</ele><time>2026-04-29T17:11:01Z</time></trkpt><trkpt lat="43.69514331206191" lon="7.2737122405455334"><ele>8.666666666666666</ele><time>2026-04-29T17:11:02Z</time></trkpt><trkpt lat="43.69514711670009" lon="7.273834612026494"><ele>8.0</ele><time>2026-04-29T17:11:03Z</time></trkpt><trkpt lat="43.695149549301654" lon="7.273956341501536"><ele>7.666666666666666</ele><time>2026-04-29T17:11:04Z</time></trkpt><trkpt lat="43.69516369284832" lon="7.2740792227666535"><ele>7.333333333333333</ele><time>2026-04-29T17:11:05Z</time></trkpt><trkpt lat="43.69515779412265" lon="7.274197050637705"><ele>7.0</ele><time>2026-04-29T17:11:06Z</time></trkpt><trkpt lat="43.695133923747534" lon="7.274310577210632"><ele>6.666666666666666</ele><time>2026-04-29T17:11:07Z</time></trkpt><trkpt lat="43.69512566279715" lon="7.274427110493836"><ele>6.333333333333333</ele><time>2026-04-29T17:11:08Z</time></trkpt><trkpt lat="43.69511736881274" lon="7.274544109797505"><ele>6.0</ele><time>2026-04-29T17:11:09Z</time></trkpt><trkpt lat="43.6951098658316" lon="7.274659059325227"><ele>5.833333333333333</ele><time>2026-04-29T17:11:10Z</time></trkpt><trkpt lat="43.69511645897485" lon="7.274775470850201"><ele>5.666666666666667</ele><time>2026-04-29T17:11:11Z</time></trkpt><trkpt lat="43.69510860559464" lon="7.274889818863416"><ele>5.5</ele><time>2026-04-29T17:11:12Z</time></trkpt><trkpt lat="43.6951021830753" lon="7.275005871747134"><ele>5.333333333333334</ele><time>2026-04-29T17:11:13Z</time></trkpt><trkpt lat="43.69509501412561" lon="7.275125641541629"><ele>5.166666666666667</ele><time>2026-04-29T17:11:14Z</time></trkpt><trkpt lat="43.69508657664085" lon="7.275242766280081"><ele>5.0</ele><time>2026-04-29T17:11:15Z</time></trkpt><trkpt lat="43.69507781839924" lon="7.275363165839281"><ele>5.0</ele><time>2026-04-29T17:11:16Z</time></trkpt><trkpt lat="43.69506925749911" lon="7.275483040243085"><ele>5.0</ele><time>2026-04-29T17:11:17Z</time></trkpt><trkpt lat="43.69506043953668" lon="7.275604495379609"><ele>5.0</ele><time>2026-04-29T17:11:18Z</time></trkpt><trkpt lat="43.69503522864562" lon="7.275725052476866"><ele>5.0</ele><time>2026-04-29T17:11:19Z</time></trkpt><trkpt lat="43.69502506306505" lon="7.27585114479264"><ele>5.0</ele><time>2026-04-29T17:11:20Z</time></trkpt><trkpt lat="43.69502953212236" lon="7.27597824495145"><ele>5.0</ele><time>2026-04-29T17:11:21Z</time></trkpt><trkpt lat="43.695016986992435" lon="7.276102356470441"><ele>5.0</ele><time>2026-04-29T17:11:22Z</time></trkpt><trkpt lat="43.69500472599589" lon="7.276225458346905"><ele>5.0</ele><time>2026-04-29T17:11:23Z</time></trkpt><trkpt lat="43.694991927197236" lon="7.276349962370956"><ele>5.0</ele><time>2026-04-29T17:11:23.999Z</time></trkpt><trkpt lat="43.6949794940623" lon="7.2764721283217195"><ele>5.0</ele><time>2026-04-29T17:11:24.999Z</time></trkpt><trkpt lat="43.6949652463261" lon="7.276594965757691"><ele>5.5</ele><time>2026-04-29T17:11:25.999Z</time></trkpt><trkpt lat="43.69493732701904" lon="7.276707669525512"><ele>6.0</ele><time>2026-04-29T17:11:26.999Z</time></trkpt><trkpt lat="43.69492149175609" lon="7.276825323411532"><ele>6.5</ele><time>2026-04-29T17:11:27.999Z</time></trkpt><trkpt lat="43.69490740989435" lon="7.276942143668221"><ele>7.0</ele><time>2026-04-29T17:11:28.999Z</time></trkpt><trkpt lat="43.69490612011391" lon="7.277061815897228"><ele>7.499999999999999</ele><time>2026-04-29T17:11:29.999Z</time></trkpt><trkpt lat="43.694886473790056" lon="7.277178119710494"><ele>8.0</ele><time>2026-04-29T17:11:30.999Z</time></trkpt><trkpt lat="43.69487337415884" lon="7.2772940085974325"><ele>9.0</ele><time>2026-04-29T17:11:31.999Z</time></trkpt><trkpt lat="43.69485762945182" lon="7.277416710834934"><ele>10.0</ele><time>2026-04-29T17:11:32.999Z</time></trkpt><trkpt lat="43.6948443389167" lon="7.277538919321157"><ele>11.0</ele><time>2026-04-29T17:11:33.999Z</time></trkpt><trkpt lat="43.6948283416701" lon="7.277662771788291"><ele>12.0</ele><time>2026-04-29T17:11:34.999Z</time></trkpt><trkpt lat="43.69481041283382" lon="7.277789500466845"><ele>13.0</ele><time>2026-04-29T17:11:35.999Z</time></trkpt><trkpt lat="43.69479256677931" lon="7.27791372216764"><ele>13.0</ele><time>2026-04-29T17:11:36.999Z</time></trkpt><trkpt lat="43.69477176554339" lon="7.278036242815931"><ele>13.0</ele><time>2026-04-29T17:11:37.999Z</time></trkpt><trkpt lat="43.69474497023864" lon="7.278159290994761"><ele>13.0</ele><time>2026-04-29T17:11:38.999Z</time></trkpt><trkpt lat="43.694692393126324" lon="7.2782665601176575"><ele>13.0</ele><time>2026-04-29T17:11:39.999Z</time></trkpt><trkpt lat="43.69464781067693" lon="7.27837517746858"><ele>13.0</ele><time>2026-04-29T17:11:40.999Z</time></trkpt><trkpt lat="43.69461063585317" lon="7.2784925358671675"><ele>13.833333333333332</ele><time>2026-04-29T17:11:41.999Z</time></trkpt><trkpt lat="43.69455504609563" lon="7.278590470515146"><ele>14.666666666666666</ele><time>2026-04-29T17:11:42.999Z</time></trkpt><trkpt lat="43.69449400626093" lon="7.278683950576447"><ele>15.5</ele><time>2026-04-29T17:11:43.999Z</time></trkpt><trkpt lat="43.69443415262898" lon="7.278771040660856"><ele>16.333333333333332</ele><time>2026-04-29T17:11:44.999Z</time></trkpt><trkpt lat="43.69437480503809" lon="7.278856303117136"><ele>17.166666666666668</ele><time>2026-04-29T17:11:45.999Z</time></trkpt><trkpt lat="43.69431382899203" lon="7.278936266904125"><ele>18.0</ele><time>2026-04-29T17:11:46.999Z</time></trkpt><trkpt lat="43.69424678464442" lon="7.2790077269303"><ele>18.666666666666668</ele><time>2026-04-29T17:11:48Z</time></trkpt><trkpt lat="43.69417030844952" lon="7.279065642760125"><ele>19.333333333333332</ele><time>2026-04-29T17:11:49Z</time></trkpt><trkpt lat="43.694087503033955" lon="7.2790977989606205"><ele>20.0</ele><time>2026-04-29T17:11:50Z</time></trkpt><trkpt lat="43.69399754196242" lon="7.279115008790434"><ele>20.666666666666664</ele><time>2026-04-29T17:11:51Z</time></trkpt><trkpt lat="43.69391273740942" lon="7.2791181360658825"><ele>21.333333333333332</ele><time>2026-04-29T17:11:52Z</time></trkpt><trkpt lat="43.69382461764213" lon="7.279120963350743"><ele>22.0</ele><time>2026-04-29T17:11:53Z</time></trkpt><trkpt lat="43.69374266382533" lon="7.279138753328252"><ele>22.0</ele><time>2026-04-29T17:11:54Z</time></trkpt><trkpt lat="43.69367513469349" lon="7.2791838425494895"><ele>22.0</ele><time>2026-04-29T17:11:55Z</time></trkpt><trkpt lat="43.69362051063167" lon="7.279266170770166"><ele>22.0</ele><time>2026-04-29T17:11:56Z</time></trkpt><trkpt lat="43.69358827608953" lon="7.279377653085301"><ele>22.0</ele><time>2026-04-29T17:11:57Z</time></trkpt><trkpt lat="43.693566229208095" lon="7.279501975489585"><ele>22.0</ele><time>2026-04-29T17:11:58Z</time></trkpt><trkpt lat="43.69354033275388" lon="7.279628153797484"><ele>22.0</ele><time>2026-04-29T17:11:59Z</time></trkpt><trkpt lat="43.693504134550174" lon="7.279752534841992"><ele>20.200000000000003</ele><time>2026-04-29T17:12:00Z</time></trkpt><trkpt lat="43.69346309928771" lon="7.279878313901697"><ele>18.400000000000002</ele><time>2026-04-29T17:12:01Z</time></trkpt><trkpt lat="43.69342283740502" lon="7.280000764168794"><ele>16.6</ele><time>2026-04-29T17:12:02Z</time></trkpt><trkpt lat="43.693381672147645" lon="7.28011403981883"><ele>14.8</ele><time>2026-04-29T17:12:03Z</time></trkpt><trkpt lat="43.6933402815391" lon="7.280229685710302"><ele>13.0</ele><time>2026-04-29T17:12:04Z</time></trkpt><trkpt lat="43.6933003821964" lon="7.280341692256629"><ele>12.999999999999998</ele><time>2026-04-29T17:12:05Z</time></trkpt><trkpt lat="43.693260951448366" lon="7.280455653023034"><ele>13.0</ele><time>2026-04-29T17:12:06Z</time></trkpt><trkpt lat="43.69322365376835" lon="7.2805711591071125"><ele>13.0</ele><time>2026-04-29T17:12:07Z</time></trkpt><trkpt lat="43.693187205701705" lon="7.280681059338181"><ele>13.0</ele><time>2026-04-29T17:12:08Z</time></trkpt><trkpt lat="43.69315659921434" lon="7.28079325555905"><ele>12.999999999999998</ele><time>2026-04-29T17:12:09Z</time></trkpt><trkpt lat="43.69313381828677" lon="7.280911213826458"><ele>13.0</ele><time>2026-04-29T17:12:10Z</time></trkpt><trkpt lat="43.69312519663576" lon="7.281032988852013"><ele>13.0</ele><time>2026-04-29T17:12:11Z</time></trkpt><trkpt lat="43.69313446766576" lon="7.281155129686433"><ele>13.0</ele><time>2026-04-29T17:12:12Z</time></trkpt><trkpt lat="43.69315737633435" lon="7.281279105909806"><ele>13.0</ele><time>2026-04-29T17:12:13Z</time></trkpt><trkpt lat="43.69319028891533" lon="7.281398226399123"><ele>13.0</ele><time>2026-04-29T17:12:14Z</time></trkpt><trkpt lat="43.693230459517665" lon="7.281521118693967"><ele>13.0</ele><time>2026-04-29T17:12:15Z</time></trkpt><trkpt lat="43.69327720454896" lon="7.281632435595935"><ele>12.999999999999998</ele><time>2026-04-29T17:12:16Z</time></trkpt><trkpt lat="43.69332652975809" lon="7.281735517214554"><ele>13.0</ele><time>2026-04-29T17:12:17Z</time></trkpt><trkpt lat="43.693376390711904" lon="7.281826858386922"><ele>13.0</ele><time>2026-04-29T17:12:18Z</time></trkpt><trkpt lat="43.693429915111416" lon="7.281906640544299"><ele>13.0</ele><time>2026-04-29T17:12:19Z</time></trkpt><trkpt lat="43.69348278815949" lon="7.281980515379844"><ele>12.999999999999998</ele><time>2026-04-29T17:12:20Z</time></trkpt><trkpt lat="43.693532919760514" lon="7.2820501796941635"><ele>13.0</ele><time>2026-04-29T17:12:21Z</time></trkpt><trkpt lat="43.69357815116286" lon="7.282113397141159"><ele>14.499999999999998</ele><time>2026-04-29T17:12:22Z</time></trkpt><trkpt lat="43.69363928623772" lon="7.282204604800155"><ele>16.0</ele><time>2026-04-29T17:12:24Z</time></trkpt><trkpt lat="43.69368846695338" lon="7.2822759039953056"><ele>17.5</ele><time>2026-04-29T17:12:27Z</time></trkpt><trkpt lat="43.69376889649921" lon="7.282393112062924"><ele>19.0</ele><time>2026-04-29T17:12:53Z</time></trkpt><trkpt lat="43.69381861309714" lon="7.282463768244832"><ele>20.5</ele><time>2026-04-29T17:12:54Z</time></trkpt><trkpt lat="43.693872133648014" lon="7.282540881551888"><ele>22.0</ele><time>2026-04-29T17:12:55Z</time></trkpt><trkpt lat="43.69392373176063" lon="7.282614708798531"><ele>22.0</ele><time>2026-04-29T17:12:56Z</time></trkpt><trkpt lat="43.69397490252392" lon="7.282687351220198"><ele>22.0</ele><time>2026-04-29T17:12:57Z</time></trkpt><trkpt lat="43.69403332856859" lon="7.282762822926637"><ele>22.0</ele><time>2026-04-29T17:12:58Z</time></trkpt><trkpt lat="43.69409425297745" lon="7.282831567158739"><ele>22.0</ele><time>2026-04-29T17:12:59Z</time></trkpt><trkpt lat="43.694159551170436" lon="7.282884506994562"><ele>22.0</ele><time>2026-04-29T17:13:00Z</time></trkpt><trkpt lat="43.69422836256251" lon="7.282926506270718"><ele>22.0</ele><time>2026-04-29T17:13:01Z</time></trkpt><trkpt lat="43.694300648021354" lon="7.282959977096835"><ele>22.0</ele><time>2026-04-29T17:13:02Z</time></trkpt><trkpt lat="43.69438317594251" lon="7.2829909675231335"><ele>22.0</ele><time>2026-04-29T17:13:03Z</time></trkpt><trkpt lat="43.69447516100573" lon="7.283024584302148"><ele>22.0</ele><time>2026-04-29T17:13:04Z</time></trkpt><trkpt lat="43.694561868349126" lon="7.283055680577042"><ele>22.0</ele><time>2026-04-29T17:13:05Z</time></trkpt><trkpt lat="43.69464782098794" lon="7.283085853094911"><ele>22.0</ele><time>2026-04-29T17:13:06Z</time></trkpt><trkpt lat="43.69473265537505" lon="7.283112460004139"><ele>22.0</ele><time>2026-04-29T17:13:07Z</time></trkpt><trkpt lat="43.69481649086758" lon="7.283142877414999"><ele>20.333333333333332</ele><time>2026-04-29T17:13:08Z</time></trkpt><trkpt lat="43.69490026353835" lon="7.283172491692952"><ele>18.666666666666664</ele><time>2026-04-29T17:13:09Z</time></trkpt><trkpt lat="43.69498467693246" lon="7.283201982715956"><ele>17.0</ele><time>2026-04-29T17:13:10Z</time></trkpt><trkpt lat="43.69506960113021" lon="7.283232608732704"><ele>15.333333333333332</ele><time>2026-04-29T17:13:11Z</time></trkpt><trkpt lat="43.695155939788506" lon="7.283265534125179"><ele>13.666666666666666</ele><time>2026-04-29T17:13:12Z</time></trkpt><trkpt lat="43.695243774092766" lon="7.283296157953608"><ele>12.0</ele><time>2026-04-29T17:13:13Z</time></trkpt><trkpt lat="43.69533170874148" lon="7.2833208870691974"><ele>12.0</ele><time>2026-04-29T17:13:14Z</time></trkpt><trkpt lat="43.695421810930334" lon="7.283341861914179"><ele>12.0</ele><time>2026-04-29T17:13:15Z</time></trkpt><trkpt lat="43.69550949788634" lon="7.28336085781585"><ele>12.0</ele><time>2026-04-29T17:13:16Z</time></trkpt><trkpt lat="43.69559981707612" lon="7.283382141880628"><ele>12.0</ele><time>2026-04-29T17:13:17Z</time></trkpt><trkpt lat="43.695686098588254" lon="7.283396680846804"><ele>12.0</ele><time>2026-04-29T17:13:18Z</time></trkpt><trkpt lat="43.695772375838516" lon="7.2834140169464305"><ele>12.0</ele><time>2026-04-29T17:13:19Z</time></trkpt><trkpt lat="43.69586323020439" lon="7.283429893677777"><ele>12.0</ele><time>2026-04-29T17:13:20Z</time></trkpt><trkpt lat="43.69595103541111" lon="7.283446947959403"><ele>12.0</ele><time>2026-04-29T17:13:21Z</time></trkpt><trkpt lat="43.6960421329364" lon="7.283459421154932"><ele>12.0</ele><time>2026-04-29T17:13:22Z</time></trkpt><trkpt lat="43.69613387757064" lon="7.283473384311853"><ele>12.0</ele><time>2026-04-29T17:13:23Z</time></trkpt><trkpt lat="43.69621947611519" lon="7.283487840151449"><ele>12.0</ele><time>2026-04-29T17:13:24Z</time></trkpt><trkpt lat="43.696304313522745" lon="7.283500040499454"><ele>12.0</ele><time>2026-04-29T17:13:25Z</time></trkpt><trkpt lat="43.69638772986848" lon="7.283504206778565"><ele>12.0</ele><time>2026-04-29T17:13:26Z</time></trkpt><trkpt lat="43.69647596150883" lon="7.283502203295209"><ele>12.0</ele><time>2026-04-29T17:13:27Z</time></trkpt><trkpt lat="43.69656257893143" lon="7.283527860049368"><ele>12.0</ele><time>2026-04-29T17:13:28Z</time></trkpt><trkpt lat="43.696645988486495" lon="7.283534794169515"><ele>12.0</ele><time>2026-04-29T17:13:29Z</time></trkpt><trkpt lat="43.69672946443783" lon="7.283542804864528"><ele>12.0</ele><time>2026-04-29T17:13:30Z</time></trkpt><trkpt lat="43.6968173478976" lon="7.283517678624629"><ele>12.0</ele><time>2026-04-29T17:13:31Z</time></trkpt><trkpt lat="43.69690372171334" lon="7.283528945033741"><ele>12.333333333333334</ele><time>2026-04-29T17:13:32Z</time></trkpt><trkpt lat="43.696990610232774" lon="7.283541509843785"><ele>12.666666666666668</ele><time>2026-04-29T17:13:33Z</time></trkpt><trkpt lat="43.69707852192452" lon="7.283555618136829"><ele>13.0</ele><time>2026-04-29T17:13:34Z</time></trkpt><trkpt lat="43.697161778652536" lon="7.283608910014133"><ele>13.333333333333334</ele><time>2026-04-29T17:13:35Z</time></trkpt><trkpt lat="43.6972472402588" lon="7.283624726690091"><ele>13.666666666666668</ele><time>2026-04-29T17:13:36Z</time></trkpt><trkpt lat="43.69733341667186" lon="7.283639658819265"><ele>14.0</ele><time>2026-04-29T17:13:37Z</time></trkpt><trkpt lat="43.69741703905371" lon="7.283653944827535"><ele>14.000000000000002</ele><time>2026-04-29T17:13:38Z</time></trkpt><trkpt lat="43.69749596259473" lon="7.283667166796174"><ele>14.0</ele><time>2026-04-29T17:13:39Z</time></trkpt><trkpt lat="43.69757712375835" lon="7.283680432996451"><ele>14.0</ele><time>2026-04-29T17:13:40Z</time></trkpt><trkpt lat="43.697650683930505" lon="7.283692677808558"><ele>14.0</ele><time>2026-04-29T17:13:41Z</time></trkpt><trkpt lat="43.69772969132324" lon="7.28370577885743"><ele>14.000000000000002</ele><time>2026-04-29T17:13:42Z</time></trkpt><trkpt lat="43.69780291184513" lon="7.283717374863636"><ele>14.0</ele><time>2026-04-29T17:13:43Z</time></trkpt><trkpt lat="43.69786661741636" lon="7.283727855105234"><ele>14.000000000000002</ele><time>2026-04-29T17:13:44Z</time></trkpt><trkpt lat="43.69797368474683" lon="7.28374554719127"><ele>14.0</ele><time>2026-04-29T17:13:46Z</time></trkpt><trkpt lat="43.69804477631058" lon="7.283757018318079"><ele>14.0</ele><time>2026-04-29T17:13:48Z</time></trkpt><trkpt lat="43.69810774648256" lon="7.283767864334425"><ele>14.0</ele><time>2026-04-29T17:13:51Z</time></trkpt><trkpt lat="43.69819240705952" lon="7.28378244635185"><ele>14.000000000000002</ele><time>2026-04-29T17:14:35Z</time></trkpt><trkpt lat="43.69826758162568" lon="7.283800121159403"><ele>14.0</ele><time>2026-04-29T17:14:37Z</time></trkpt><trkpt lat="43.698353071737046" lon="7.283826860296507"><ele>14.0</ele><time>2026-04-29T17:14:39Z</time></trkpt><trkpt lat="43.698439990890115" lon="7.283843500146454"><ele>14.0</ele><time>2026-04-29T17:14:41Z</time></trkpt><trkpt lat="43.69850473673807" lon="7.28391858185798"><ele>14.0</ele><time>2026-04-29T17:14:43Z</time></trkpt><trkpt lat="43.69854196631255" lon="7.283999452543415"><ele>14.0</ele><time>2026-04-29T17:14:46Z</time></trkpt><trkpt lat="43.69875000684477" lon="7.283973270119175"><ele>14.5</ele><time>2026-04-29T17:15:34Z</time></trkpt><trkpt lat="43.69885579045303" lon="7.2839458821018574"><ele>15.0</ele><time>2026-04-29T17:15:36Z</time></trkpt><trkpt lat="43.698973743972694" lon="7.283963986345335"><ele>15.5</ele><time>2026-04-29T17:15:38Z</time></trkpt><trkpt lat="43.699091446208676" lon="7.283984476019426"><ele>16.0</ele><time>2026-04-29T17:15:40Z</time></trkpt><trkpt lat="43.699211390650234" lon="7.283998316079545"><ele>16.0</ele><time>2026-04-29T17:15:42Z</time></trkpt><trkpt lat="43.69932456632949" lon="7.284016976214771"><ele>16.0</ele><time>2026-04-29T17:15:44Z</time></trkpt><trkpt lat="43.69944252115235" lon="7.2840334005399425"><ele>16.0</ele><time>2026-04-29T17:15:46Z</time></trkpt><trkpt lat="43.69956933803619" lon="7.284059776265683"><ele>16.0</ele><time>2026-04-29T17:15:48Z</time></trkpt><trkpt lat="43.699637090402746" lon="7.2840655426176495"><ele>16.0</ele><time>2026-04-29T17:15:49Z</time></trkpt><trkpt lat="43.699703774449176" lon="7.284074392429792"><ele>15.0</ele><time>2026-04-29T17:15:50Z</time></trkpt><trkpt lat="43.69982550146278" lon="7.284091233704922"><ele>14.0</ele><time>2026-04-29T17:15:52Z</time></trkpt><trkpt lat="43.699942123808285" lon="7.284114497049817"><ele>13.0</ele><time>2026-04-29T17:15:54Z</time></trkpt><trkpt lat="43.700062092241566" lon="7.284124882921293"><ele>12.0</ele><time>2026-04-29T17:15:56Z</time></trkpt><trkpt lat="43.700182016334956" lon="7.284155230892507"><ele>12.5</ele><time>2026-04-29T17:15:58Z</time></trkpt><trkpt lat="43.70029577472536" lon="7.284168231407149"><ele>13.0</ele><time>2026-04-29T17:16:00Z</time></trkpt><trkpt lat="43.70037817824321" lon="7.284185540545597"><ele>13.5</ele><time>2026-04-29T17:16:02Z</time></trkpt><trkpt lat="43.700442416204254" lon="7.284208192599638"><ele>14.0</ele><time>2026-04-29T17:16:04Z</time></trkpt><trkpt lat="43.70050553639796" lon="7.284232292377355"><ele>14.5</ele><time>2026-04-29T17:16:16Z</time></trkpt><trkpt lat="43.700599424053976" lon="7.284249408698902"><ele>15.0</ele><time>2026-04-29T17:16:19Z</time></trkpt><trkpt lat="43.70069320569838" lon="7.284264531266798"><ele>15.0</ele><time>2026-04-29T17:16:21Z</time></trkpt><trkpt lat="43.70079701466525" lon="7.2842777511119285"><ele>15.0</ele><time>2026-04-29T17:16:23Z</time></trkpt><trkpt lat="43.7008834187756" lon="7.2842898720064415"><ele>15.0</ele><time>2026-04-29T17:16:25Z</time></trkpt><trkpt lat="43.70095342173411" lon="7.284308431372986"><ele>15.0</ele><time>2026-04-29T17:16:27Z</time></trkpt><trkpt lat="43.701019042261734" lon="7.284320542344836"><ele>15.0</ele><time>2026-04-29T17:16:29Z</time></trkpt><trkpt lat="43.70108941549577" lon="7.284330860179067"><ele>15.0</ele><time>2026-04-29T17:16:31Z</time></trkpt><trkpt lat="43.70116084704591" lon="7.284345533797098"><ele>16.0</ele><time>2026-04-29T17:16:33Z</time></trkpt><trkpt lat="43.70123638150003" lon="7.284362312637108"><ele>17.0</ele><time>2026-04-29T17:16:36Z</time></trkpt><trkpt lat="43.7013134594938" lon="7.284386940165715"><ele>18.0</ele><time>2026-04-29T17:16:38Z</time></trkpt><trkpt lat="43.70141842986985" lon="7.284406712981593"><ele>19.0</ele><time>2026-04-29T17:16:40Z</time></trkpt><trkpt lat="43.70148580029175" lon="7.284425776253038"><ele>20.0</ele><time>2026-04-29T17:16:41Z</time></trkpt><trkpt lat="43.70155705629394" lon="7.284462232997823"><ele>21.0</ele><time>2026-04-29T17:16:42Z</time></trkpt><trkpt lat="43.70163003892851" lon="7.284507344792097"><ele>21.0</ele><time>2026-04-29T17:16:43Z</time></trkpt><trkpt lat="43.70171006978827" lon="7.284563308782444"><ele>21.0</ele><time>2026-04-29T17:16:44Z</time></trkpt><trkpt lat="43.701786319326295" lon="7.284604382046011"><ele>21.0</ele><time>2026-04-29T17:16:45Z</time></trkpt><trkpt lat="43.70186660344184" lon="7.284648495901248"><ele>21.0</ele><time>2026-04-29T17:16:46Z</time></trkpt><trkpt lat="43.70194927023473" lon="7.284689276300473"><ele>21.0</ele><time>2026-04-29T17:16:47Z</time></trkpt><trkpt lat="43.702040968375826" lon="7.284729368433117"><ele>21.0</ele><time>2026-04-29T17:16:48Z</time></trkpt><trkpt lat="43.70213222144555" lon="7.284771064100918"><ele>20.666666666666668</ele><time>2026-04-29T17:16:49Z</time></trkpt><trkpt lat="43.70221467533745" lon="7.284814713186698"><ele>20.333333333333332</ele><time>2026-04-29T17:16:50Z</time></trkpt><trkpt lat="43.702289390862425" lon="7.284859296046306"><ele>20.0</ele><time>2026-04-29T17:16:51Z</time></trkpt><trkpt lat="43.702360300592915" lon="7.284894731845805"><ele>19.666666666666664</ele><time>2026-04-29T17:16:52Z</time></trkpt><trkpt lat="43.702429774856064" lon="7.284934896787051"><ele>19.333333333333332</ele><time>2026-04-29T17:16:53Z</time></trkpt><trkpt lat="43.70248977146222" lon="7.284971634844947"><ele>19.0</ele><time>2026-04-29T17:16:54Z</time></trkpt><trkpt lat="43.70261159599905" lon="7.285049177507592"><ele>19.0</ele><time>2026-04-29T17:16:56Z</time></trkpt><trkpt lat="43.70268771773069" lon="7.285098615367872"><ele>19.0</ele><time>2026-04-29T17:16:57Z</time></trkpt><trkpt lat="43.70276989485192" lon="7.285146419218911"><ele>19.0</ele><time>2026-04-29T17:16:58Z</time></trkpt><trkpt lat="43.70285766413675" lon="7.285194514058603"><ele>19.0</ele><time>2026-04-29T17:16:59Z</time></trkpt><trkpt lat="43.70293979806685" lon="7.285234713666631"><ele>19.0</ele><time>2026-04-29T17:17:00Z</time></trkpt><trkpt lat="43.7030094211019" lon="7.285275264022287"><ele>19.0</ele><time>2026-04-29T17:17:01Z</time></trkpt><trkpt lat="43.70306898870322" lon="7.285316699452247"><ele>19.666666666666664</ele><time>2026-04-29T17:17:02Z</time></trkpt><trkpt lat="43.70312557811733" lon="7.285359357865119"><ele>20.333333333333332</ele><time>2026-04-29T17:17:06Z</time></trkpt><trkpt lat="43.70318648492872" lon="7.285402210846048"><ele>21.0</ele><time>2026-04-29T17:17:08Z</time></trkpt><trkpt lat="43.703316031731056" lon="7.28546202389401"><ele>21.666666666666668</ele><time>2026-04-29T17:17:10Z</time></trkpt><trkpt lat="43.703389158621384" lon="7.285503722137405"><ele>22.333333333333336</ele><time>2026-04-29T17:17:11Z</time></trkpt><trkpt lat="43.70345337687942" lon="7.285544139498905"><ele>23.0</ele><time>2026-04-29T17:17:12Z</time></trkpt><trkpt lat="43.70351511710207" lon="7.285578697543002"><ele>22.599999999999998</ele><time>2026-04-29T17:17:13Z</time></trkpt><trkpt lat="43.7036181761788" lon="7.285636068312647"><ele>22.2</ele><time>2026-04-29T17:17:15Z</time></trkpt><trkpt lat="43.70371716535432" lon="7.2856807111171875"><ele>21.8</ele><time>2026-04-29T17:17:17Z</time></trkpt><trkpt lat="43.70378774474532" lon="7.285710629878589"><ele>21.4</ele><time>2026-04-29T17:17:18Z</time></trkpt><trkpt lat="43.70386117816305" lon="7.2857579424617835"><ele>21.0</ele><time>2026-04-29T17:17:19Z</time></trkpt><trkpt lat="43.703942969249425" lon="7.285804496447179"><ele>21.0</ele><time>2026-04-29T17:17:20Z</time></trkpt><trkpt lat="43.7040216014319" lon="7.285854188796372"><ele>21.0</ele><time>2026-04-29T17:17:21Z</time></trkpt><trkpt lat="43.70409487563943" lon="7.285898028223631"><ele>21.0</ele><time>2026-04-29T17:17:22Z</time></trkpt><trkpt lat="43.70415740696293" lon="7.285938500580767"><ele>21.0</ele><time>2026-04-29T17:17:23Z</time></trkpt><trkpt lat="43.704266180614574" lon="7.286007973818934"><ele>21.0</ele><time>2026-04-29T17:17:25Z</time></trkpt><trkpt lat="43.70437727807533" lon="7.286067206075738"><ele>21.166666666666668</ele><time>2026-04-29T17:17:27Z</time></trkpt><trkpt lat="43.70443827925179" lon="7.286105189541259"><ele>21.333333333333332</ele><time>2026-04-29T17:17:28Z</time></trkpt><trkpt lat="43.70450610164263" lon="7.286141804674213"><ele>21.5</ele><time>2026-04-29T17:17:29Z</time></trkpt><trkpt lat="43.704567235812895" lon="7.286179719828893"><ele>21.666666666666664</ele><time>2026-04-29T17:17:30Z</time></trkpt><trkpt lat="43.704674772150575" lon="7.286218332023334"><ele>21.833333333333332</ele><time>2026-04-29T17:17:32Z</time></trkpt><trkpt lat="43.704741498553496" lon="7.286246280551586"><ele>22.0</ele><time>2026-04-29T17:17:34Z</time></trkpt><trkpt lat="43.70480456484779" lon="7.286283294085255"><ele>22.0</ele><time>2026-04-29T17:18:00Z</time></trkpt><trkpt lat="43.70488147305428" lon="7.286331688379071"><ele>22.0</ele><time>2026-04-29T17:18:02Z</time></trkpt><trkpt lat="43.70497472227626" lon="7.286389469095561"><ele>22.0</ele><time>2026-04-29T17:18:04Z</time></trkpt><trkpt lat="43.70504548062108" lon="7.286432943977641"><ele>22.0</ele><time>2026-04-29T17:18:06Z</time></trkpt><trkpt lat="43.70512675358393" lon="7.286479032444149"><ele>22.0</ele><time>2026-04-29T17:18:08Z</time></trkpt><trkpt lat="43.70521168136834" lon="7.2865263095981"><ele>22.0</ele><time>2026-04-29T17:18:10Z</time></trkpt><trkpt lat="43.705325985490894" lon="7.286596466060216"><ele>22.400000000000002</ele><time>2026-04-29T17:18:12Z</time></trkpt><trkpt lat="43.7054033163723" lon="7.286640679501885"><ele>22.8</ele><time>2026-04-29T17:18:13Z</time></trkpt><trkpt lat="43.705490523472406" lon="7.286699722863688"><ele>23.2</ele><time>2026-04-29T17:18:14Z</time></trkpt><trkpt lat="43.705585503098845" lon="7.286758512250316"><ele>23.6</ele><time>2026-04-29T17:18:15Z</time></trkpt><trkpt lat="43.70568218916305" lon="7.286819848811487"><ele>24.0</ele><time>2026-04-29T17:18:16Z</time></trkpt><trkpt lat="43.70578248676748" lon="7.28687778873928"><ele>24.0</ele><time>2026-04-29T17:18:17Z</time></trkpt><trkpt lat="43.70587978921922" lon="7.286933224357225"><ele>24.0</ele><time>2026-04-29T17:18:18Z</time></trkpt><trkpt lat="43.70596996298967" lon="7.286988080808995"><ele>24.0</ele><time>2026-04-29T17:18:19Z</time></trkpt><trkpt lat="43.70606194930017" lon="7.287045970513868"><ele>24.0</ele><time>2026-04-29T17:18:20Z</time></trkpt><trkpt lat="43.70615622634619" lon="7.287102152586652"><ele>24.0</ele><time>2026-04-29T17:18:21Z</time></trkpt><trkpt lat="43.70625493386045" lon="7.287152748186871"><ele>24.0</ele><time>2026-04-29T17:18:22Z</time></trkpt><trkpt lat="43.7063495215521" lon="7.2872070867073155"><ele>24.0</ele><time>2026-04-29T17:18:23Z</time></trkpt><trkpt lat="43.70644449357801" lon="7.287265854309318"><ele>24.0</ele><time>2026-04-29T17:18:24Z</time></trkpt><trkpt lat="43.706538001979844" lon="7.287327039810657"><ele>24.0</ele><time>2026-04-29T17:18:25Z</time></trkpt><trkpt lat="43.70662374055025" lon="7.287377750891416"><ele>24.0</ele><time>2026-04-29T17:18:26Z</time></trkpt><trkpt lat="43.70669595090453" lon="7.287419377320102"><ele>24.0</ele><time>2026-04-29T17:18:27Z</time></trkpt><trkpt lat="43.706760068794985" lon="7.287452000072082"><ele>24.0</ele><time>2026-04-29T17:18:28Z</time></trkpt><trkpt lat="43.70685005051889" lon="7.287488261284794"><ele>24.0</ele><time>2026-04-29T17:18:30Z</time></trkpt><trkpt lat="43.70692043604814" lon="7.287316555465771"><ele>24.0</ele><time>2026-04-29T17:18:31Z</time></trkpt><trkpt lat="43.70696466205793" lon="7.287195750380294"><ele>24.0</ele><time>2026-04-29T17:18:32Z</time></trkpt><trkpt lat="43.70701630164948" lon="7.2870539923050135"><ele>24.333333333333332</ele><time>2026-04-29T17:18:33Z</time></trkpt><trkpt lat="43.70705829607955" lon="7.286935029234149"><ele>24.666666666666664</ele><time>2026-04-29T17:18:34Z</time></trkpt><trkpt lat="43.70708528703897" lon="7.286824583836001"><ele>25.0</ele><time>2026-04-29T17:18:35Z</time></trkpt><trkpt lat="43.70711943159491" lon="7.286734707818239"><ele>25.333333333333332</ele><time>2026-04-29T17:18:36Z</time></trkpt><trkpt lat="43.70715016650514" lon="7.2866505714193694"><ele>25.666666666666664</ele><time>2026-04-29T17:18:37Z</time></trkpt><trkpt lat="43.7071993620957" lon="7.286516808632452"><ele>26.0</ele><time>2026-04-29T17:18:39Z</time></trkpt><trkpt lat="43.707226821963886" lon="7.28643823819592"><ele>25.166666666666664</ele><time>2026-04-29T17:18:41Z</time></trkpt><trkpt lat="43.70725300116128" lon="7.2863444139778"><ele>24.333333333333332</ele><time>2026-04-29T17:19:00Z</time></trkpt><trkpt lat="43.70727988051461" lon="7.2862375298593856"><ele>23.5</ele><time>2026-04-29T17:19:02Z</time></trkpt><trkpt lat="43.707327240289004" lon="7.2861400166095285"><ele>22.666666666666664</ele><time>2026-04-29T17:19:04Z</time></trkpt><trkpt lat="43.70725822589553" lon="7.286064679137341"><ele>21.833333333333332</ele><time>2026-04-29T17:19:05Z</time></trkpt><trkpt lat="43.70719409107758" lon="7.285966442020462"><ele>21.0</ele><time>2026-04-29T17:19:07Z</time></trkpt><trkpt lat="43.70711145262889" lon="7.285850393047627"><ele>21.0</ele><time>2026-04-29T17:19:09Z</time></trkpt><trkpt lat="43.70700684441633" lon="7.285778913268592"><ele>21.0</ele><time>2026-04-29T17:19:11Z</time></trkpt><trkpt lat="43.706930565233755" lon="7.285708535307515"><ele>21.0</ele><time>2026-04-29T17:19:13Z</time></trkpt><trkpt lat="43.70687698551856" lon="7.285657397632222"><ele>21.0</ele><time>2026-04-29T17:19:15Z</time></trkpt><trkpt lat="43.70696972274375" lon="7.28545811939083"><ele>21.0</ele><time>2026-04-29T17:19:16Z</time></trkpt><trkpt lat="43.70700449290904" lon="7.285359106475731"><ele>21.0</ele><time>2026-04-29T17:19:17Z</time></trkpt><trkpt lat="43.70703779159482" lon="7.28525538505706"><ele>21.0</ele><time>2026-04-29T17:19:18Z</time></trkpt><trkpt lat="43.7070729181757" lon="7.28514692689151"><ele>21.0</ele><time>2026-04-29T17:19:19Z</time></trkpt><trkpt lat="43.707107489791376" lon="7.2850425126584115"><ele>21.0</ele><time>2026-04-29T17:19:20Z</time></trkpt><trkpt lat="43.70713735034022" lon="7.284946615883432"><ele>21.0</ele><time>2026-04-29T17:19:21Z</time></trkpt><trkpt lat="43.707162712294995" lon="7.284854689301757"><ele>21.0</ele><time>2026-04-29T17:19:22Z</time></trkpt><trkpt lat="43.707195211362055" lon="7.284768000468009"><ele>21.0</ele><time>2026-04-29T17:19:23Z</time></trkpt><trkpt lat="43.70724555084365" lon="7.284614373055041"><ele>21.0</ele><time>2026-04-29T17:19:25Z</time></trkpt><trkpt lat="43.70728543136687" lon="7.284473343233239"><ele>21.0</ele><time>2026-04-29T17:19:27Z</time></trkpt><trkpt lat="43.707298114951406" lon="7.284381805809898"><ele>21.0</ele><time>2026-04-29T17:19:29Z</time></trkpt></trkseg></trk></gpx>